GFSCGP_250_rhum_000.txt.gz
RH
50 52 54 41 37 26 21 20 18 11 14 25 39 46 42 34 15 9 8 16 20 32 57 69 76 79 80 76 76 78 85 86 87 91 99 100 100 100 100 100 98 76 64 53
37 32 24 14 7 5 7 7 8 14 21 19 17 15 12 18 39 59 68 73 86 92 90 78 72 66 61 55 53 58 59 55 59 50 40 47 51 43 74 51 34 29 27 27
12 11 12 13 17 26 25 21 19 17 15 23 35 51 84 90 89 88 84 82 71 53 47 44 44 41 39 36 40 37 30 27 27 26 25 24 24 24 24 22 24 32 40 46
15 16 18 19 19 22 36 42 41 43 68 89 90 76 69 60 55 49 41 32 26 23 20 20 21 21 22 24 26 29 26 22 22 22 21 22 24 26 33 41 47 47 46 44
31 37 42 39 55 58 58 76 73 63 48 38 37 32 26 28 20 20 20 18 18 22 27 33 30 29 32 35 37 30 30 38 40 38 38 37 36 34 33 34 36 34 34 36
70 60 64 69 66 59 42 27 23 22 22 28 27 25 25 24 23 25 27 30 42 50 50 44 39 39 42 41 39 34 31 31 29 28 32 36 38 37 38 39 43 46 46 44
48 41 41 30 20 21 23 23 26 27 27 30 28 29 32 33 42 52 52 48 44 46 47 52 55 46 43 40 40 40 39 39 40 39 38 38 37 39 42 44 46 51 57 69
20 18 16 17 22 24 21 20 22 26 34 38 41 48 52 51 47 44 47 50 55 58 60 55 49 51 49 45 42 41 43 42 40 38 37 37 38 45 56 64 74 81 78 69
26 26 24 22 27 39 50 52 49 46 40 40 41 44 45 48 49 54 60 60 57 52 53 52 46 45 42 40 41 42 43 43 44 42 43 53 72 87 88 79 70 60 55 48
21 22 45 56 54 48 48 43 45 46 46 44 47 47 49 52 51 50 49 47 44 41 37 37 37 40 47 53 47 43 45 50 51 58 68 72 73 71 66 60 49 44 52 57
44 58 55 49 47 45 44 46 54 54 55 51 55 55 53 48 44 41 38 36 34 33 37 40 48 54 56 58 52 45 44 46 49 56 58 58 60 60 54 48 52 62 62 62
58 52 52 57 59 60 58 57 59 59 59 57 52 48 44 43 42 40 40 43 42 41 39 37 43 46 50 46 41 42 47 50 51 52 56 61 60 54 50 54 64 62 74 62
51 59 67 69 69 68 62 61 65 66 58 51 51 50 47 44 44 42 48 49 44 42 41 40 48 55 52 45 44 48 47 52 59 58 56 54 52 51 59 64 71 84 76 67
56 59 67 71 73 67 62 62 61 61 54 56 52 52 51 49 47 49 52 54 61 62 62 67 68 66 58 56 60 61 54 51 52 53 49 48 55 61 64 72 82 78 74 54
66 71 72 74 72 64 63 65 62 57 55 55 47 55 54 55 53 54 59 47 54 64 62 64 71 74 64 61 58 53 53 52 53 51 56 61 63 64 77 90 84 76 61 40
85 83 76 66 63 64 71 70 66 60 63 66 73 73 71 63 52 60 75 70 55 58 65 69 69 62 47 47 50 48 52 57 64 68 71 66 69 84 97 92 87 56 36 19
88 79 69 70 67 70 80 61 68 67 76 77 89 70 73 56 55 77 86 83 72 70 73 80 77 65 49 41 43 50 62 75 77 77 74 77 88 100 98 88 64 30 18 12
93 90 74 73 60 63 85 88 80 72 77 89 84 76 68 59 76 100 83 83 80 87 88 85 78 59 47 46 53 68 74 80 77 79 76 84 99 100 91 58 25 18 14 10
99 90 72 67 80 75 98 100 85 72 73 92 74 84 56 68 93 100 86 93 93 89 92 81 71 59 58 61 69 74 76 79 82 81 94 91 100 97 69 30 19 14 10 9
80 80 82 78 72 75 100 100 100 72 86 85 100 77 78 96 100 100 91 93 86 86 80 67 68 71 68 65 66 70 77 83 86 95 86 98 98 74 34 22 15 10 10 8
94 94 88 79 67 73 100 94 87 93 100 100 96 89 93 100 94 90 90 94 89 84 65 72 83 76 67 63 65 80 79 84 95 94 99 85 72 41 26 17 12 10 9 7
89 84 87 84 83 80 80 86 100 100 92 80 87 91 87 95 91 90 100 92 80 68 83 88 78 61 61 63 77 76 84 92 96 99 82 64 42 29 18 12 11 9 8 6
88 88 80 95 96 80 76 89 87 82 72 86 91 96 100 93 86 94 89 84 75 89 84 65 60 65 66 72 73 77 92 100 100 81 59 37 28 18 14 11 9 8 6 6
97 100 100 100 100 99 84 85 86 79 89 90 88 91 92 98 96 89 92 88 68 72 71 71 73 70 72 72 78 95 100 97 84 58 31 24 18 15 12 10 8 7 6 5
100 100 90 75 86 79 83 80 73 85 89 90 88 93 99 96 95 94 85 63 66 80 76 72 74 74 77 87 96 98 96 88 58 34 23 19 16 14 10 9 7 6 5 5
99 81 70 69 73 68 78 82 87 94 99 87 87 93 94 84 78 75 72 72 84 83 82 80 75 82 90 87 87 84 79 49 33 26 21 16 14 11 10 8 6 6 5 6

GFSCGP_250_rhum_003.txt.gz
RH
92 96 91 96 99 97 100 100 99 94 85 79 75 66 63 68 64 51 32 23 21 21 19 29 37 60 68 78 80 83 79 73 69 59 60 68 75 71 74 88 77 66 62 69
84 94 96 98 97 82 66 46 30 24 19 16 17 20 30 36 40 39 36 30 25 30 37 65 85 76 63 51 46 42 38 32 28 32 38 38 38 40 41 39 37 36 34 32
58 58 58 52 45 36 16 8 6 9 12 20 24 28 34 36 28 27 42 56 66 70 64 46 31 24 25 23 20 22 26 27 27 31 33 36 35 30 31 37 43 51 53 54
43 40 27 16 14 13 16 24 26 24 30 49 77 93 99 86 74 68 53 34 25 21 20 21 23 28 29 29 31 38 39 44 47 52 55 50 48 47 43 42 41 41 43 42
14 16 18 21 24 25 26 36 50 67 98 94 81 63 57 49 34 20 17 20 29 35 34 37 44 49 50 53 53 50 44 42 40 37 36 37 36 36 35 34 34 34 34 35
17 18 23 29 38 37 56 82 84 50 32 33 25 20 17 17 22 26 32 39 47 54 51 45 44 46 47 48 46 44 45 43 40 36 35 33 33 33 33 34 34 33 34 42
61 63 70 59 63 62 46 33 24 21 22 21 23 24 26 31 37 52 57 51 49 47 48 53 57 56 52 46 40 37 35 33 31 28 26 26 27 28 30 31 33 48 53 59
58 48 40 43 33 20 22 24 24 25 31 38 44 51 58 57 53 52 56 59 59 61 61 53 42 34 32 34 37 39 37 34 33 35 37 37 37 40 48 58 68 74 72 64
19 20 23 27 26 25 28 39 53 64 68 64 62 60 58 57 53 51 56 60 53 40 35 34 34 39 40 37 36 35 40 47 54 65 78 85 91 89 86 77 66 59 56 55
26 29 29 29 40 50 54 52 55 57 54 53 50 50 52 51 53 52 48 42 37 36 38 39 44 49 54 55 56 57 64 74 80 80 76 78 73 62 58 54 56 56 56 55
29 28 45 54 51 49 49 46 44 45 49 52 56 56 52 49 46 44 44 42 42 46 44 47 59 68 70 77 80 75 70 64 58 50 51 49 44 46 54 61 57 62 58 69
44 51 46 46 50 55 58 58 56 56 59 63 61 56 51 47 48 49 48 48 50 55 59 60 60 65 71 76 70 70 68 57 47 42 40 41 47 54 56 54 57 56 71 79
57 52 51 59 65 67 69 65 63 64 63 67 65 60 59 59 59 57 53 58 54 49 49 51 58 57 60 57 60 63 60 55 47 43 41 45 49 50 56 59 66 79 79 70
58 57 63 70 74 76 74 66 64 65 65 62 59 66 70 77 77 68 62 64 62 50 60 62 73 73 72 66 63 59 58 49 42 40 44 44 46 58 61 78 82 80 83 89
63 60 66 73 76 76 75 72 69 73 70 70 63 68 62 85 90 77 70 65 52 64 68 76 94 92 82 73 66 59 56 49 49 46 44 50 58 65 76 85 91 94 90 69
69 75 80 83 83 86 93 88 75 73 68 68 75 83 60 75 88 74 75 64 62 75 69 93 98 95 80 74 68 63 56 57 51 48 50 57 70 78 89 100 97 93 85 57
84 90 93 94 98 92 100 76 81 76 77 75 89 79 78 84 89 94 79 63 83 76 91 100 96 85 78 79 69 63 59 54 51 55 59 74 88 91 100 96 100 87 64 26
98 96 90 96 86 89 98 99 80 71 71 71 84 74 85 87 93 96 74 87 87 90 93 96 91 88 86 80 75 61 56 61 67 70 84 94 95 98 92 87 74 51 27 17
99 91 84 82 87 76 99 100 96 77 78 72 70 92 92 89 86 83 77 88 94 97 96 98 92 86 90 83 65 64 73 80 81 87 99 99 85 92 87 63 39 27 19 16
91 91 85 84 70 77 100 99 92 87 93 94 100 91 87 78 73 85 83 92 98 99 94 86 90 94 96 70 73 84 91 82 90 97 97 91 86 85 59 32 26 21 18 14
79 78 80 82 84 92 91 83 83 83 94 100 100 100 92 74 80 82 88 100 94 91 85 93 86 90 84 84 88 91 82 92 96 97 92 79 83 52 32 26 21 18 14 11
88 97 100 100 100 87 85 81 85 94 95 88 83 76 77 77 73 79 100 100 99 90 91 84 90 99 89 87 87 88 95 100 97 83 76 81 54 30 26 24 18 14 12 10
92 94 85 90 81 61 66 87 92 84 78 87 89 82 72 70 79 88 100 96 95 85 88 90 100 89 79 81 91 99 100 88 79 75 77 52 29 26 24 19 14 13 10 10
99 95 92 87 100 95 96 96 86 86 92 89 73 72 72 79 86 96 100 100 91 90 96 92 75 74 88 98 97 94 86 81 70 70 49 28 28 23 20 16 13 11 9 9
100 100 100 100 100 100 100 90 75 78 77 70 75 83 88 90 89 93 97 89 90 84 87 76 86 97 99 96 85 80 75 60 57 44 31 25 24 22 17 13 11 8 9 6
100 92 79 94 95 83 87 83 83 84 76 74 82 82 78 81 92 94 88 87 80 81 96 100 100 100 98 80 74 67 49 45 38 25 23 23 23 17 13 11 8 8 8 5

GFSCGP_250_rhum_006.txt.gz
RH
100 100 100 100 100 100 100 100 100 100 100 100 100 100 100 99 93 91 82 70 63 47 31 24 33 39 32 37 41 54 64 65 64 54 47 39 32 28 25 23 24 27 32 34
100 100 100 100 100 100 100 100 100 100 97 87 87 85 77 63 47 40 44 49 50 43 34 41 48 56 60 65 66 57 42 32 20 19 20 22 26 33 37 40 47 53 57 56
100 100 100 100 100 100 100 100 88 59 39 25 21 15 9 15 32 31 27 23 28 47 65 76 71 60 44 28 20 19 23 30 38 43 48 50 50 52 53 54 54 53 52 53
93 90 90 98 92 84 67 54 34 10 8 15 15 22 26 25 27 38 59 71 66 44 35 22 19 20 24 31 40 49 53 54 56 54 52 52 51 50 53 55 56 56 56 52
58 52 56 58 53 34 21 15 11 22 27 25 31 39 42 67 70 37 22 20 20 19 24 31 40 47 49 50 55 56 52 48 46 45 41 37 34 34 34 34 33 32 32 32
34 37 34 24 17 19 19 28 39 49 54 64 60 67 57 25 22 24 24 28 41 44 42 44 50 55 58 52 47 43 39 35 31 30 30 30 30 32 34 31 30 31 34 35
22 21 20 24 37 54 69 94 90 94 66 51 27 22 20 23 28 46 47 44 44 45 52 58 51 45 43 42 40 36 34 34 35 39 41 38 38 42 41 38 39 39 39 43
25 37 51 73 79 83 76 65 43 30 26 26 27 36 43 49 51 49 49 50 59 61 48 44 41 37 36 33 30 33 37 39 40 48 62 67 65 62 55 47 44 43 43 46
62 68 83 82 64 34 24 23 26 30 43 54 52 51 47 46 51 57 64 65 52 44 41 38 36 34 30 39 50 55 59 62 65 74 87 89 87 77 65 48 42 43 51 57
48 35 26 21 21 23 26 45 53 56 54 49 48 50 52 57 61 64 58 55 49 46 43 42 36 34 40 49 61 67 76 80 87 81 72 66 66 59 48 49 53 53 50 53
22 25 26 25 32 64 69 61 57 56 58 61 67 70 66 63 60 57 53 51 49 49 52 50 45 45 47 57 66 77 92 90 80 75 72 65 58 49 49 48 47 51 57 58
33 27 34 71 68 60 54 52 61 71 72 72 72 74 66 63 63 60 57 56 57 56 52 53 52 46 59 74 96 98 100 92 79 78 67 60 54 55 54 55 59 61 59 65
34 58 68 57 48 50 58 68 71 75 79 79 74 67 59 62 63 66 72 75 75 72 64 55 50 58 74 95 99 100 98 93 78 74 65 58 60 60 68 70 68 66 70 70
67 69 54 56 67 72 75 76 78 75 75 72 66 66 59 64 65 70 83 86 87 81 66 60 57 67 84 97 99 97 93 84 79 76 65 72 71 76 76 76 73 78 77 71
69 60 62 74 78 81 84 82 78 73 72 72 68 70 51 74 83 100 99 86 76 86 83 66 74 79 87 89 96 90 86 82 82 80 80 81 82 81 80 77 84 82 81 85
70 69 79 83 81 80 85 94 80 81 72 72 70 77 62 70 82 83 88 79 97 100 77 79 82 86 90 92 93 89 84 85 92 87 85 84 76 79 81 81 88 92 82 62
86 74 80 85 83 93 100 77 80 68 60 57 65 69 73 85 86 87 92 100 100 86 76 82 85 84 91 89 95 93 87 92 86 90 85 75 84 83 87 92 95 80 59 46
70 72 80 82 86 99 100 90 71 60 66 65 73 80 89 82 83 94 90 100 79 74 75 82 86 85 87 96 100 99 92 87 93 84 78 87 90 93 98 92 76 60 50 40
84 87 90 95 86 95 100 99 91 77 77 71 84 82 77 74 78 85 86 85 86 84 86 84 82 86 96 100 100 97 94 100 90 84 81 95 100 100 86 66 50 49 35 22
68 70 75 80 74 91 96 89 83 86 94 100 98 91 86 91 91 90 85 88 88 84 76 76 86 95 100 100 100 97 100 91 85 84 99 100 99 80 48 42 37 24 18 18
83 84 83 74 73 79 76 79 92 99 97 94 97 100 100 100 88 84 88 77 70 71 78 90 95 99 98 100 100 99 86 91 90 99 100 90 71 50 26 19 17 16 16 14
70 71 68 67 68 61 76 83 99 93 88 86 89 97 95 81 71 67 66 63 69 85 91 83 88 94 98 98 91 86 86 97 99 93 81 64 39 22 14 15 15 15 15 12
70 67 68 79 86 76 76 80 82 84 94 97 92 74 65 61 58 57 63 79 83 79 80 87 89 90 90 90 87 90 94 86 75 68 49 31 19 13 13 14 14 15 13 11
70 70 80 80 81 73 72 84 87 81 91 84 69 60 57 57 65 74 80 84 85 84 78 79 89 88 90 74 93 98 89 69 57 46 22 19 11 12 12 13 15 14 12 10
97 77 68 84 99 94 100 86 65 71 76 62 56 57 65 72 77 77 77 82 87 80 78 82 86 79 76 96 87 66 44 35 23 20 20 22 15 14 15 15 15 13 11 9
100 98 96 94 91 84 82 83 98 97 76 55 68 83 85 73 76 83 88 84 78 81 79 78 78 90 86 83 71 43 35 32 34 36 26 15 14 14 15 14 13 11 9 8

GFSCGP_250_rhum_009.txt.gz
RH
100 100 100 100 100 100 100 100 94 100 100 100 100 100 80 87 100 100 94 94 90 93 93 74 63 52 40 40 43 50 55 51 46 43 48 60 43 29 24 28 31 32 30 29
100 100 100 100 100 100 95 100 99 100 99 91 94 98 99 95 96 93 89 86 84 78 69 62 58 48 38 40 41 41 44 55 53 34 27 31 32 31 30 32 37 41 45 46
100 100 100 100 100 100 96 100 100 100 100 99 83 84 82 77 71 54 31 23 29 32 32 33 35 39 52 68 67 44 30 34 37 37 36 35 36 38 38 42 45 48 53 52
92 99 100 100 93 98 100 100 100 96 79 71 57 34 17 15 12 17 27 30 30 46 65 75 69 40 46 37 41 42 42 42 38 35 35 38 40 37 39 40 38 36 34 37
99 100 100 100 100 99 100 94 93 72 52 24 10 17 65 35 53 78 70 73 66 43 22 20 33 43 44 44 40 36 35 38 39 40 41 41 43 52 56 58 60 63 62 50
99 98 93 88 84 91 80 69 55 27 14 14 32 58 42 66 57 39 32 24 25 37 44 40 43 42 38 37 38 39 41 44 42 44 47 53 62 67 65 59 64 71 71 64
85 92 63 49 52 54 45 25 22 20 26 32 72 72 51 27 30 23 27 44 44 39 42 45 40 40 41 40 40 40 43 49 54 62 69 75 76 71 67 67 70 66 61 59
36 36 38 38 33 26 25 29 44 69 93 70 29 27 26 31 33 47 42 38 40 44 42 42 43 43 44 41 39 42 47 51 54 64 71 72 77 77 71 68 74 70 65 60
26 30 28 34 48 68 67 84 92 73 35 29 39 57 54 47 43 42 41 44 48 47 47 47 47 52 51 46 40 45 56 62 58 60 66 77 93 93 89 84 82 77 67 66
23 32 62 90 100 89 63 49 37 36 45 62 60 54 52 50 52 52 52 52 54 56 51 50 50 53 54 50 47 46 52 52 57 73 77 85 99 98 90 84 85 71 72 74
73 74 78 81 69 39 33 42 64 71 67 56 52 50 58 62 62 65 63 61 59 57 56 55 58 62 61 50 44 48 60 66 81 84 80 85 91 86 80 80 77 80 72 66
44 39 35 31 34 35 56 78 78 71 63 62 64 70 68 71 69 68 67 67 70 75 79 80 80 77 67 47 53 65 72 77 81 83 84 86 94 84 79 80 82 71 69 69
28 29 34 38 51 69 75 75 74 73 73 76 71 74 71 72 67 60 58 62 62 71 74 72 75 75 86 75 62 66 74 79 75 84 92 92 90 84 82 86 78 76 73 70
44 42 47 56 72 81 78 76 77 78 78 77 67 62 58 60 62 62 66 66 66 69 71 79 83 100 92 64 61 70 77 77 84 90 92 84 85 87 90 83 79 81 80 77
35 38 68 77 72 71 78 83 81 78 76 76 61 62 52 67 73 70 76 78 76 82 78 81 100 94 69 67 69 69 86 83 94 94 94 92 93 96 88 82 85 77 72 74
38 72 75 66 73 77 92 93 76 74 76 79 71 80 45 45 57 64 72 78 80 80 86 91 76 69 71 70 74 78 83 99 98 97 98 98 87 89 90 94 88 82 80 71
73 76 66 66 72 82 89 76 75 69 69 62 69 69 66 65 66 76 78 77 82 77 84 75 75 73 78 73 76 89 100 100 97 94 90 89 95 87 78 76 83 79 65 44
75 71 65 67 74 82 85 69 75 76 72 56 69 70 68 73 72 78 75 81 86 93 74 69 68 73 71 78 88 94 89 82 90 99 94 90 85 88 93 90 67 49 31 28
71 77 81 74 74 76 80 89 84 79 73 63 81 74 68 66 69 68 69 90 88 77 66 60 63 67 78 91 90 87 88 91 96 95 84 91 99 95 81 64 43 33 27 29
74 74 74 72 69 76 83 85 92 82 69 88 78 70 60 65 70 79 80 72 71 75 62 60 68 79 84 85 89 95 91 85 84 84 86 86 72 74 64 46 37 37 20 10
88 84 82 81 82 85 88 82 79 75 76 69 73 80 89 100 97 100 100 89 67 60 62 73 82 82 87 86 93 90 85 87 93 80 82 79 79 53 35 28 22 10 10 11
95 99 94 82 77 77 76 75 80 76 72 75 80 79 82 99 100 92 72 72 66 65 75 88 77 79 89 98 96 88 87 74 71 74 72 60 61 44 34 22 15 14 13 14
86 86 88 85 67 61 65 75 66 68 82 85 79 91 94 80 71 79 80 65 66 81 88 82 70 91 94 93 96 80 68 63 76 78 63 44 37 43 38 32 24 19 18 16
75 70 64 69 72 62 62 63 69 80 80 82 86 87 86 85 90 75 61 77 97 94 81 78 91 85 91 88 76 69 70 76 79 64 54 58 55 40 27 25 26 27 18 16
71 63 59 68 73 75 90 79 77 68 70 84 97 87 82 72 55 61 81 92 93 81 76 82 85 85 78 70 70 68 76 74 66 63 54 46 40 40 32 21 15 13 14 14
77 81 90 96 99 100 90 78 81 82 98 97 92 78 63 66 77 85 94 89 72 74 90 89 81 73 69 67 68 75 68 62 54 46 39 34 35 24 17 15 15 15 13 11

GFSCGP_250_rhum_012.txt.gz
RH
100 100 100 100 100 100 100 100 79 96 98 94 76 79 74 100 100 100 98 100 98 82 100 100 100 100 96 93 85 83 78 75 80 74 57 46 39 33 36 42 37 27 25 25
98 100 100 100 100 100 100 100 100 98 93 100 100 100 100 100 98 80 71 78 74 76 72 73 78 73 68 64 64 60 49 44 44 43 46 49 44 32 26 25 27 28 31 33
89 98 100 100 100 100 100 100 89 80 86 100 78 84 79 78 80 76 82 77 75 84 77 62 47 45 39 37 40 50 59 66 46 35 29 26 25 26 26 33 38 38 41 45
83 85 99 100 100 100 100 82 78 74 95 100 96 79 85 86 71 50 30 17 13 13 17 25 24 39 63 74 75 49 44 34 30 28 28 28 33 47 56 61 69 70 74 78
90 96 89 94 99 95 72 82 72 76 100 90 97 78 70 34 19 83 60 55 55 40 72 76 66 42 38 41 42 35 31 31 31 34 41 46 42 45 51 58 69 82 82 78
89 99 96 93 94 83 92 80 90 99 94 84 86 38 52 52 98 96 100 99 62 43 31 24 29 40 41 36 32 32 34 33 37 37 40 43 47 47 52 62 67 74 75 68
74 100 100 100 100 100 99 95 87 88 72 52 26 49 62 73 89 100 100 100 46 27 41 41 38 40 34 35 36 39 43 42 44 44 42 47 54 52 66 71 75 71 65 63
72 93 72 88 82 87 74 72 67 54 33 34 57 91 98 65 77 67 99 67 44 49 41 38 36 36 37 37 44 46 52 58 58 52 50 52 56 64 70 76 79 78 72 68
76 90 92 89 76 44 41 46 34 25 51 92 96 58 39 33 35 40 57 51 48 39 37 37 41 42 43 45 49 54 66 79 75 58 51 54 63 70 72 72 75 76 69 65
69 64 45 37 37 37 30 36 54 94 93 60 34 37 48 58 56 52 43 43 40 36 36 40 47 54 63 68 70 72 78 92 91 74 66 59 62 70 71 77 81 74 75 83
24 19 28 30 32 31 68 99 84 61 39 39 50 61 55 50 46 43 41 37 35 42 48 51 53 58 62 74 71 78 78 100 100 64 61 62 68 72 76 83 80 81 86 79
39 41 54 62 96 97 98 66 34 36 56 70 70 65 56 49 44 43 45 48 54 55 55 59 60 62 75 75 80 90 100 98 73 69 65 69 67 78 81 79 78 77 75 78
80 88 89 100 84 60 43 31 55 78 75 67 58 55 47 50 57 61 59 54 51 53 57 61 71 77 68 63 72 95 84 69 65 69 64 71 79 84 80 78 73 70 82 91
38 50 61 44 30 35 38 78 85 81 66 60 49 52 60 63 68 62 58 50 48 50 60 66 66 64 69 69 72 67 62 64 63 63 66 71 69 78 78 72 76 78 78 74
26 28 27 30 37 42 80 88 84 80 61 65 52 63 56 59 63 65 58 59 57 61 60 72 69 66 74 89 65 58 56 57 63 69 68 67 73 79 77 81 83 74 65 59
39 35 36 39 49 82 82 82 79 62 60 71 71 70 54 64 57 54 47 45 66 81 72 67 74 83 71 63 62 61 58 60 69 70 70 75 82 86 93 91 72 60 58 68
41 31 33 42 89 80 79 67 64 69 72 71 76 74 59 48 68 65 58 66 73 74 74 85 86 75 73 70 60 58 57 69 77 70 70 84 90 95 95 78 63 54 62 64
32 25 34 59 79 79 62 59 67 75 72 62 82 85 76 65 69 72 66 72 73 69 85 82 82 66 68 64 60 64 76 77 69 70 84 88 91 89 71 64 63 70 64 43
30 32 62 78 76 67 66 68 67 71 62 76 91 82 71 72 76 70 65 69 77 76 87 100 78 74 77 76 70 81 81 75 73 82 89 93 80 67 66 68 58 50 37 36
40 52 77 81 69 67 70 74 71 68 62 82 81 85 78 72 70 69 70 80 78 96 83 72 77 71 69 68 75 84 90 80 84 94 92 76 69 64 55 58 47 40 39 36
49 52 71 75 81 82 87 85 81 78 85 85 94 94 96 86 84 81 83 82 95 80 73 69 70 75 75 80 91 92 78 91 97 90 76 68 62 64 73 57 41 48 41 22
73 75 74 75 82 82 78 82 91 94 90 96 98 91 82 70 78 94 92 85 86 90 80 79 76 77 83 85 83 76 90 93 86 73 70 65 65 68 61 52 42 42 32 26
87 88 92 87 85 100 100 100 96 94 100 89 79 78 78 92 99 91 86 82 94 89 78 76 76 83 87 87 77 92 94 83 75 72 66 69 67 47 39 39 36 31 21 12
68 86 93 100 90 88 95 96 75 82 81 78 85 99 100 100 92 86 89 92 82 84 79 76 85 90 83 87 99 91 79 77 77 71 63 59 46 39 34 29 23 15 13 13
65 78 84 100 91 84 82 78 73 69 80 100 100 98 93 84 80 80 84 94 94 88 74 77 72 78 92 94 87 81 80 80 75 67 64 44 35 31 20 16 14 14 12 10
78 80 88 99 94 87 69 62 72 96 100 100 95 74 72 73 83 93 95 92 83 76 76 68 75 81 82 78 80 85 88 71 66 57 40 33 31 24 24 20 14 11 10 9

GFSCGP_250_rhum_015.txt.gz
RH
90 96 100 100 100 100 100 87 100 100 78 86 94 100 84 100 100 100 76 100 100 100 94 71 74 98 100 100 100 100 99 98 93 93 100 100 100 85 81 82 81 66 45 39
90 94 100 98 100 100 99 78 100 100 100 79 100 100 67 94 98 100 100 100 98 100 80 80 92 76 73 84 96 97 76 82 76 71 71 69 55 47 42 38 36 29 24 26
74 86 85 80 95 95 92 99 100 100 100 96 73 95 100 100 100 100 98 95 88 65 66 74 79 82 81 74 73 74 64 57 48 42 44 49 43 32 28 25 24 30 35 32
50 64 75 71 68 79 96 89 89 97 81 71 86 100 86 88 73 65 59 76 77 70 51 28 19 14 20 25 31 38 50 58 67 48 38 31 28 26 27 30 32 35 38 48
45 60 69 65 65 79 90 90 90 97 77 81 71 84 77 93 66 52 44 53 81 98 65 65 65 49 62 62 53 60 49 52 39 32 29 27 26 26 25 27 32 40 44 47
73 88 100 96 94 75 92 98 91 74 88 100 82 60 95 93 62 34 29 60 45 46 57 100 29 23 25 40 64 55 43 35 33 32 31 29 30 33 36 36 38 43 44 46
77 96 88 90 93 94 87 82 76 100 95 82 78 84 71 47 19 88 85 76 37 44 63 94 34 46 44 45 42 38 36 36 37 37 38 40 41 39 36 42 50 51 49 52
75 80 96 96 99 99 100 72 76 100 92 97 79 82 44 21 64 94 100 60 60 84 78 89 50 54 47 38 39 46 51 54 58 56 51 54 69 97 77 73 51 55 56 56
58 73 95 85 71 98 86 96 88 88 75 64 61 37 32 94 95 82 74 87 99 86 100 65 99 92 56 44 52 50 48 57 59 59 68 82 99 90 75 62 57 54 54 59
66 66 72 72 70 81 83 88 57 48 46 44 59 78 72 58 43 36 44 46 79 94 57 59 59 48 45 40 42 47 47 60 67 72 83 90 85 66 61 53 52 57 62 60
36 46 60 60 48 82 86 42 37 33 60 99 92 83 50 38 41 43 54 52 43 44 42 40 40 43 50 53 53 54 55 62 64 68 66 64 58 50 52 55 62 62 59 65
22 29 33 37 39 38 36 31 30 79 84 83 64 40 40 63 60 53 42 53 50 44 41 38 36 42 49 56 73 70 66 65 74 79 74 61 47 51 51 56 64 61 61 74
55 38 30 35 37 30 29 54 99 98 53 39 36 39 55 55 55 56 56 43 50 52 52 52 45 45 56 69 71 75 81 82 70 61 58 48 48 53 61 67 66 69 75 86
65 70 88 78 67 77 82 90 93 56 34 31 56 58 63 50 60 60 57 53 39 42 44 39 47 54 58 64 83 94 83 64 58 52 50 51 55 65 68 70 73 77 87 81
41 50 53 64 71 70 71 50 29 27 27 57 62 62 52 66 70 71 72 50 58 68 40 40 55 57 58 62 60 59 59 52 51 53 53 53 68 70 73 76 75 81 79 71
24 23 25 26 23 30 27 29 30 32 41 66 47 57 48 63 69 71 52 45 55 72 88 80 63 62 66 67 69 68 68 60 55 60 58 70 69 72 73 76 78 79 73 66
37 45 43 44 37 35 39 29 32 58 58 50 52 56 57 68 75 73 77 73 69 65 79 79 82 85 79 83 74 62 64 62 62 61 69 72 81 81 85 84 84 72 65 60
80 57 56 50 38 49 32 42 57 66 47 56 67 76 72 70 66 70 77 84 90 86 69 74 78 87 88 68 65 65 66 71 68 71 76 76 88 92 93 84 70 64 66 56
89 46 56 48 39 43 45 64 66 60 57 70 77 72 76 84 74 78 86 88 82 71 66 57 72 80 76 77 76 77 76 79 71 72 74 89 89 84 75 66 71 73 59 52
54 56 56 45 36 50 78 86 71 60 61 78 76 80 77 77 78 83 81 75 71 81 77 73 86 80 75 78 81 82 92 81 79 71 75 79 75 71 70 77 75 62 53 41
57 57 63 47 48 69 91 89 79 72 68 77 82 84 83 86 95 98 93 86 86 96 89 82 83 81 82 87 93 96 76 69 70 67 69 73 74 78 92 86 63 53 43 32
43 50 66 73 64 71 83 97 83 80 81 88 88 87 99 100 100 91 85 87 93 92 92 92 88 87 87 85 91 70 70 75 73 74 75 78 90 98 85 72 62 50 45 40
39 46 65 80 80 91 89 82 90 89 99 96 94 100 100 94 87 82 92 100 100 89 87 80 81 86 94 93 73 79 84 80 78 82 85 92 93 93 78 65 56 46 38 31
44 42 52 68 82 96 95 100 100 100 100 96 94 100 96 84 78 100 100 100 89 89 78 72 82 100 100 80 80 86 82 78 83 86 94 98 96 82 69 55 45 36 26 18
62 50 50 65 53 66 82 95 100 100 96 86 95 96 77 81 100 100 100 99 94 83 72 81 95 98 80 73 80 83 79 81 88 94 99 99 84 70 49 41 37 27 19 13
68 76 72 80 90 70 76 78 85 94 100 100 95 82 96 100 99 92 88 83 77 70 79 93 86 70 72 76 78 74 81 88 96 100 88 84 70 49 38 31 22 16 14 10

GFSCGP_250_rhum_018.txt.gz
RH
60 81 86 100 97 100 100 92 100 100 100 89 93 100 100 96 99 100 100 95 100 100 100 100 100 97 83 51 46 50 60 69 80 87 79 94 99 97 92 88 89 85 85 80
60 87 89 85 95 100 100 98 100 90 100 100 73 82 100 93 98 100 100 93 99 84 88 74 78 87 91 70 67 74 88 82 88 87 97 97 82 80 77 70 64 57 51 40
44 86 75 82 96 100 100 82 92 82 86 90 88 95 95 92 88 100 100 96 96 75 74 70 69 71 61 67 70 83 78 77 71 67 72 67 57 51 51 48 44 40 32 28
42 67 75 76 91 93 95 100 95 100 100 100 100 98 85 94 93 85 97 75 100 100 78 100 100 97 65 32 25 21 27 36 37 47 60 69 72 57 41 35 31 29 28 27
46 63 71 75 100 90 100 100 99 95 100 98 84 84 82 100 100 99 100 99 99 81 71 81 73 48 47 35 42 57 58 58 54 52 56 64 42 38 37 37 35 32 31 28
51 57 58 77 90 96 88 90 97 100 97 82 89 85 78 85 82 63 87 93 97 77 60 70 35 60 78 36 44 69 58 52 55 46 44 40 37 37 35 35 36 31 32 31
51 59 73 81 83 97 87 76 87 87 81 76 72 78 64 65 78 72 60 44 25 35 51 62 50 52 57 55 76 63 49 62 48 45 51 43 44 38 35 33 33 34 39 40
34 57 73 90 95 98 100 88 85 94 88 66 86 78 70 78 79 56 26 20 30 39 47 43 43 58 62 59 58 55 52 58 55 63 44 40 33 37 44 44 45 47 43 42
17 55 53 73 98 100 83 92 76 72 94 78 94 92 91 68 37 28 35 34 44 47 67 66 94 85 89 92 85 61 68 78 58 50 51 50 53 53 45 48 51 49 46 49
17 30 60 54 72 91 82 85 100 100 99 90 67 64 51 42 63 62 79 55 35 32 38 54 76 68 61 61 56 53 52 52 67 67 59 61 54 52 50 52 58 55 52 56
17 20 46 42 48 60 66 66 64 74 95 56 41 34 24 26 54 69 48 43 59 63 72 63 69 63 57 56 51 45 43 47 69 68 62 55 53 52 52 64 65 57 62 62
23 20 21 24 31 34 66 74 54 79 53 41 29 25 39 53 66 44 75 71 59 56 59 66 62 55 50 45 37 38 49 60 54 44 46 57 61 67 73 78 60 65 58 57
28 43 31 22 28 24 30 32 35 41 37 48 51 52 65 46 34 57 62 62 67 71 67 61 50 44 45 45 55 61 59 57 58 67 79 82 80 77 71 64 64 58 59 61
41 50 55 61 46 40 54 51 48 55 77 79 81 62 36 31 64 61 56 58 60 63 68 58 63 51 45 62 74 71 76 87 88 84 81 75 70 56 58 61 61 67 63 67
55 62 54 55 62 70 96 92 94 90 92 86 61 40 24 58 67 78 73 56 52 50 40 29 34 53 69 63 59 51 50 57 58 56 54 53 54 61 64 67 69 69 71 76
59 62 43 30 38 47 54 61 67 58 52 33 25 27 32 80 87 87 72 71 78 80 79 73 70 56 44 47 48 49 49 50 47 48 56 69 80 73 68 68 71 76 77 75
60 53 40 24 22 23 29 26 23 25 24 33 32 50 76 84 78 75 78 80 75 65 66 74 76 64 65 66 58 53 56 60 67 72 83 90 82 71 67 72 77 80 78 72
57 43 39 36 33 43 42 33 33 34 38 41 70 84 73 66 70 75 79 78 75 81 80 79 70 73 84 77 73 68 67 73 72 72 83 83 82 70 66 81 80 76 69 80
61 59 48 52 53 63 57 45 30 28 41 71 88 82 74 64 64 66 72 74 90 87 87 77 75 78 78 81 67 67 70 69 71 88 89 86 80 71 75 76 73 72 80 89
64 65 61 72 55 62 66 60 27 30 60 94 93 86 81 79 76 73 77 86 85 83 70 68 64 73 79 75 72 74 79 77 77 90 89 76 68 66 77 68 67 86 91 97
61 78 77 84 59 65 69 40 38 37 84 96 96 95 88 80 86 94 95 88 84 77 80 85 92 91 89 87 85 88 84 76 84 85 76 65 66 78 72 78 89 90 97 81
70 54 45 49 54 56 70 62 53 84 98 100 94 88 92 91 91 90 93 91 86 88 90 90 100 100 99 99 97 83 79 83 85 83 69 69 77 74 77 86 95 100 81 82
77 59 42 42 48 47 63 94 98 89 89 96 99 100 100 100 100 100 97 99 96 99 88 100 100 98 94 92 79 83 83 86 87 72 71 77 79 83 92 98 97 87 89 64
78 65 47 42 45 47 54 81 100 100 100 98 93 92 95 95 92 91 97 99 91 89 96 100 100 98 90 85 89 83 87 88 76 74 78 85 84 85 96 100 92 82 70 55
82 66 48 48 56 55 49 56 79 96 96 94 92 92 95 94 92 90 93 99 100 100 100 98 98 85 88 89 86 89 84 75 76 78 82 78 85 100 97 85 80 67 52 36
84 66 53 54 52 62 60 50 51 61 75 95 100 100 100 100 100 100 100 100 99 98 93 87 84 91 90 87 87 82 74 76 82 86 76 84 99 88 82 74 68 50 33 25

GFSCGP_250_rhum_021.txt.gz
RH
29 42 74 86 98 99 100 100 93 100 100 100 100 100 96 100 100 100 90 84 100 100 100 100 100 100 100 100 100 100 100 100 100 92 89 78 70 70 78 87 100 96 83 68
29 35 68 84 85 96 100 100 97 76 94 93 97 100 100 100 99 72 80 70 71 70 71 86 100 100 100 100 100 100 86 88 81 70 64 66 72 75 77 70 64 66 66 56
24 37 51 87 96 100 100 100 100 100 100 100 98 100 100 100 100 81 100 100 97 98 72 72 99 100 100 99 99 76 83 67 52 53 56 61 56 54 52 44 46 58 63 52
21 39 46 85 100 100 84 96 71 97 99 99 100 100 92 86 85 87 96 100 100 100 92 62 64 81 76 64 71 91 77 55 27 20 20 28 45 58 56 53 56 46 38 35
19 35 46 70 82 88 99 92 67 66 84 99 94 73 96 89 93 100 94 83 75 95 95 80 73 64 50 60 57 53 43 28 42 51 54 47 53 42 42 45 43 38 35 38
18 25 53 58 60 90 99 100 81 74 69 96 100 100 100 99 99 90 98 80 61 58 66 69 69 61 52 47 50 52 39 48 61 57 73 75 70 44 42 54 47 40 44 47
19 18 50 67 71 95 99 100 100 95 100 76 80 86 64 69 82 86 89 90 96 77 60 59 57 42 58 80 74 78 60 70 84 83 78 69 57 48 56 58 44 43 48 46
22 17 31 63 80 83 88 90 100 100 100 97 84 80 71 71 78 77 87 85 87 69 36 24 37 89 97 100 100 100 82 73 87 92 100 100 78 61 58 46 45 50 48 42
26 17 17 44 66 73 69 75 82 87 93 84 66 81 88 76 80 67 53 58 47 28 51 81 82 84 100 100 100 91 100 100 98 90 90 64 49 49 48 47 45 47 43 44
27 20 19 21 53 60 66 66 79 82 88 81 74 91 100 85 85 65 44 27 40 62 78 50 38 48 67 78 74 68 70 65 75 60 45 48 47 52 55 53 50 45 53 57
24 26 22 18 31 34 49 66 79 83 78 79 74 96 94 65 53 49 26 31 61 53 36 43 74 72 57 51 56 57 58 51 50 49 66 63 62 60 59 54 54 63 62 64
25 29 29 24 16 19 40 49 58 62 78 80 66 78 61 36 39 41 85 63 51 45 62 62 67 54 55 68 66 59 51 59 50 45 54 50 50 50 53 63 67 68 65 60
27 30 33 39 28 20 18 26 32 39 63 46 39 46 30 42 56 86 74 51 47 65 66 61 60 64 68 64 56 48 56 67 62 64 71 70 70 75 76 71 66 62 67 64
28 30 34 54 43 42 33 24 20 26 32 25 29 28 38 84 79 54 59 84 75 64 51 64 78 80 88 94 87 72 79 91 98 100 93 77 66 68 67 60 58 67 71 70
38 31 32 51 54 55 56 54 53 58 59 67 68 84 80 94 62 47 86 86 73 69 77 89 97 98 83 71 76 77 83 86 77 68 64 56 58 60 60 59 61 69 73 74
35 33 34 49 60 53 30 42 39 36 40 66 68 55 61 44 41 59 76 75 67 74 79 72 61 55 65 71 81 85 75 71 73 68 58 63 58 56 57 63 69 76 79 71
34 30 36 56 54 51 24 21 18 21 29 42 45 44 33 34 42 64 62 64 78 79 76 72 73 72 67 69 68 53 51 54 61 58 57 55 60 68 72 75 78 79 76 76
31 34 40 56 54 39 33 29 36 37 37 43 46 40 37 36 53 73 87 85 74 70 76 77 75 74 85 84 77 74 74 72 63 63 65 74 78 78 80 78 79 82 86 85
36 41 45 54 53 58 52 39 40 36 47 61 52 39 30 34 61 84 87 78 76 78 74 73 81 91 90 95 92 79 76 72 75 78 78 82 84 84 85 80 80 81 82 82
50 34 41 50 61 69 74 58 46 40 74 66 39 34 36 48 61 66 72 79 78 78 84 94 97 93 91 80 75 77 85 87 80 80 87 88 89 88 85 92 88 90 88 86
51 37 50 48 59 88 91 69 79 61 74 54 41 38 42 56 79 86 86 89 96 100 100 98 87 76 69 73 76 77 78 80 88 95 94 92 91 88 87 87 89 78 81 84
54 46 58 67 66 62 62 74 71 67 65 58 53 57 74 86 93 96 94 97 100 95 89 86 85 90 92 92 94 96 96 95 96 97 97 94 89 86 84 82 77 79 82 82
55 50 57 72 78 65 54 49 50 61 57 57 70 71 86 98 95 86 80 76 80 83 86 95 99 98 91 90 98 100 99 100 100 100 92 86 81 76 75 75 77 79 78 76
59 71 73 78 82 81 72 52 46 50 57 53 55 74 88 87 88 89 91 95 92 90 95 92 78 80 92 95 94 98 100 100 96 87 81 74 70 73 76 78 77 79 80 74
64 80 91 100 85 82 84 69 57 54 58 64 59 55 61 72 85 95 99 99 95 85 86 90 96 100 99 99 100 97 96 93 83 74 70 70 76 74 78 77 77 74 67 57
84 100 90 98 91 88 87 75 57 61 74 84 80 71 64 64 74 94 99 89 87 94 100 100 100 100 93 90 92 98 94 80 72 72 73 75 70 72 75 73 68 60 54 50

GFSCGP_250_rhum_024.txt.gz
RH
22 19 35 57 76 84 87 100 100 92 84 86 93 76 100 100 100 100 100 100 100 100 100 100 100 95 100 100 100 92 82 100 93 100 100 100 92 83 86 96 85 73 69 70
26 21 34 40 76 87 97 94 100 100 93 86 100 82 91 99 100 100 100 100 100 100 100 100 100 100 95 93 100 98 99 99 100 100 100 97 93 85 71 64 64 61 64 66
28 22 32 40 69 96 100 94 100 94 84 88 100 100 100 95 100 99 76 72 86 84 89 94 100 100 100 100 100 100 100 100 100 100 100 95 85 69 47 45 46 38 42 49
23 25 23 46 46 87 84 86 96 97 100 99 100 88 95 100 100 97 78 68 60 61 90 96 88 77 66 66 83 100 100 96 82 66 59 60 64 54 34 49 52 44 35 37
23 26 19 47 50 64 84 96 100 97 83 98 100 93 86 86 84 74 58 76 72 71 79 81 81 81 84 89 88 79 80 66 62 58 53 45 37 44 55 41 28 30 33 42
22 22 22 32 58 57 74 92 87 100 79 97 95 98 94 88 86 83 100 82 79 75 81 68 61 62 63 65 65 70 62 67 70 57 73 63 70 51 43 34 26 38 43 49
21 21 27 20 56 60 61 92 78 82 91 91 99 98 100 100 100 100 100 85 80 84 85 74 65 66 59 52 52 64 52 55 64 80 100 100 75 60 65 50 50 49 50 52
27 23 26 22 38 59 60 78 77 95 100 100 90 100 83 97 100 85 85 80 86 78 76 69 68 73 65 40 40 48 67 79 71 97 100 98 92 83 88 77 61 48 61 50
28 23 26 23 21 44 63 62 76 84 94 100 95 93 89 77 83 94 100 95 94 96 85 83 78 44 38 60 75 69 71 76 76 90 99 83 92 92 81 62 62 70 53 48
33 27 26 25 22 22 48 58 66 78 80 83 76 75 100 93 96 87 91 100 96 80 69 39 37 53 58 46 58 79 98 89 70 70 90 100 100 89 64 71 62 56 55 58
39 35 25 27 25 20 21 46 64 77 83 81 86 92 83 97 91 98 95 77 58 54 56 74 61 46 46 64 76 66 57 65 68 86 94 100 98 75 68 65 61 58 58 52
42 34 26 26 26 24 29 23 45 63 89 100 98 98 100 100 99 100 97 48 39 44 75 67 46 56 61 66 61 62 73 96 100 100 100 98 84 75 70 65 58 55 50 54
45 38 26 29 26 24 39 39 22 45 57 64 61 65 50 84 96 100 71 36 54 86 77 48 56 66 67 66 68 82 100 100 99 92 78 59 62 74 67 61 58 53 61 64
51 42 28 30 26 29 48 52 37 22 26 31 35 28 26 54 74 76 77 92 69 60 48 54 70 74 84 72 83 89 91 89 75 65 75 76 78 77 71 67 64 68 68 76
54 42 31 29 25 28 62 58 58 50 38 38 37 48 50 46 92 100 100 85 54 36 37 51 70 77 71 77 80 82 93 78 70 72 77 79 81 81 78 81 76 73 80 85
58 46 30 35 26 28 62 50 42 47 57 64 79 84 72 72 80 94 90 62 43 35 46 69 69 64 69 80 81 76 70 76 93 96 97 96 92 88 87 77 72 76 75 76
70 55 39 34 34 28 55 54 52 33 22 32 34 34 29 35 44 46 43 36 48 68 72 70 68 77 78 76 76 75 82 92 98 96 88 82 80 79 70 67 70 75 76 78
70 57 37 40 43 37 36 48 49 35 29 34 39 39 36 32 34 34 36 37 44 69 86 91 90 82 82 78 80 85 88 91 82 71 70 76 73 64 66 73 83 86 84 89
71 55 47 50 40 38 52 44 48 55 55 51 50 53 41 38 36 39 37 43 51 74 83 81 72 70 78 85 88 96 91 87 87 91 86 76 76 77 82 90 94 89 98 100
68 59 53 52 39 38 50 49 52 64 96 56 34 44 56 46 32 32 37 54 72 77 81 82 83 88 87 93 89 80 92 100 96 76 74 74 79 87 94 96 91 98 98 97
65 63 58 61 52 45 52 52 54 77 86 76 70 68 60 63 55 39 31 36 53 65 71 77 84 89 85 83 89 94 84 70 65 67 76 81 95 95 95 94 99 97 100 96
74 59 65 57 57 66 48 49 58 56 77 81 71 64 74 69 63 67 57 59 69 81 89 91 88 82 86 89 82 69 62 69 74 83 85 92 93 96 98 100 98 100 91 87
79 60 63 64 62 69 62 51 55 63 57 56 53 49 51 62 62 60 69 77 81 83 82 84 89 87 74 66 65 71 77 80 90 95 100 100 100 100 100 100 100 88 81 86
74 66 63 67 65 66 62 59 64 74 74 71 68 56 49 49 53 61 63 62 59 60 63 64 62 64 70 75 78 81 92 99 100 100 100 100 100 96 92 89 80 77 85 84
84 84 83 73 61 45 66 83 78 81 78 78 75 73 67 59 62 69 78 79 76 72 72 79 81 80 79 85 95 100 100 100 100 100 98 89 83 83 80 77 75 82 80 79
100 86 78 79 57 61 88 100 96 97 93 89 88 82 75 62 61 67 74 82 88 90 91 93 93 96 100 100 100 100 100 100 100 96 83 77 80 82 79 79 80 78 78 77

GFSCGP_250_rhum_027.txt.gz
RH
31 33 35 24 24 43 66 76 94 85 63 74 76 88 100 100 100 100 100 100 100 100 100 100 100 100 100 100 100 100 89 96 100 100 100 100 99 86 79 53 63 91 78 81
32 35 31 26 23 41 62 73 78 90 99 83 89 72 84 80 96 100 100 100 100 100 100 100 100 100 100 79 88 70 66 62 62 76 67 46 55 72 66 96 98 89 84 76
34 40 27 26 23 44 50 89 74 84 100 94 82 74 76 95 82 100 100 100 99 84 100 100 98 97 100 100 100 96 92 92 76 69 89 100 100 100 95 81 72 58 52 58
39 47 31 23 24 39 56 74 97 99 100 100 100 100 99 96 95 93 100 100 95 91 91 88 85 98 96 94 96 100 99 97 94 95 91 87 81 74 66 50 44 48 52 51
46 54 36 24 25 28 56 56 78 100 94 99 98 92 99 79 99 100 100 95 72 65 67 63 72 76 92 80 73 73 72 72 67 61 70 74 80 66 53 43 51 57 50 46
61 55 36 24 24 24 42 61 66 83 90 99 99 100 100 92 76 84 89 79 75 85 80 69 66 65 67 73 68 70 64 67 67 70 81 77 70 57 57 66 76 69 53 46
72 56 37 32 26 25 27 70 67 72 90 97 100 100 100 91 90 80 79 97 82 99 88 71 74 74 71 76 74 80 82 80 76 74 78 79 98 88 73 66 70 67 52 43
70 58 42 38 33 26 26 36 73 72 72 90 99 99 78 78 86 100 100 100 98 94 87 69 71 78 75 81 88 88 77 64 41 62 64 74 75 97 100 98 96 71 47 54
73 62 51 39 33 27 27 26 46 73 72 93 100 100 100 74 88 90 83 100 95 84 74 69 76 72 87 76 56 56 39 51 65 71 73 77 80 99 100 100 94 94 74 76
76 65 58 43 35 29 29 32 26 57 71 81 99 100 100 100 100 100 100 93 95 96 100 99 92 89 68 47 42 58 57 63 62 68 69 73 84 100 100 100 100 84 90 98
78 83 62 47 35 35 28 31 26 37 80 72 73 93 88 100 100 100 100 100 99 93 100 100 70 56 54 72 77 53 56 66 68 72 91 100 100 100 100 100 84 100 100 91
83 86 58 48 36 32 29 29 30 23 46 58 82 99 68 87 100 97 96 100 100 91 96 85 46 45 71 67 51 67 78 80 87 100 89 100 100 100 100 100 100 86 70 64
99 87 65 46 35 34 30 30 29 38 41 45 76 96 52 55 87 98 96 100 96 80 77 55 43 87 77 53 65 71 80 90 100 100 100 100 98 99 91 78 66 63 62 70
99 74 61 50 39 34 30 30 33 44 50 32 44 55 50 56 70 76 84 80 69 75 52 64 85 83 64 66 80 78 76 79 96 100 100 94 82 84 70 62 68 75 76 80
93 78 69 56 39 37 34 33 30 51 53 57 42 38 38 44 40 38 44 56 59 48 60 70 55 49 61 80 84 83 82 84 87 80 78 79 75 68 72 78 88 87 82 85
99 93 77 52 39 43 39 31 37 37 52 51 54 67 56 63 74 86 100 99 83 63 61 64 45 47 77 91 94 96 91 90 85 86 84 78 77 78 82 92 100 97 94 79
90 78 64 49 39 54 41 39 40 36 52 54 35 57 59 70 74 73 79 85 93 72 45 32 30 37 68 83 84 86 83 79 80 81 81 83 82 85 99 100 99 92 79 76
100 83 64 48 42 62 42 37 37 42 50 45 34 36 34 35 40 34 34 45 49 48 41 38 36 34 43 67 76 74 72 73 76 81 90 86 92 100 100 94 81 79 77 77
96 87 57 44 54 58 49 42 44 40 56 54 56 55 53 51 56 58 53 61 62 65 64 56 54 56 68 80 81 81 87 88 92 96 89 95 100 100 95 88 82 80 79 81
82 65 59 68 61 69 51 44 40 44 64 37 59 66 73 64 67 74 83 69 45 39 46 61 83 95 100 100 100 100 98 100 91 83 93 100 97 90 83 84 83 80 87 88
88 68 77 76 76 80 59 47 43 43 50 47 50 61 78 85 96 91 91 64 64 75 58 56 70 91 96 98 95 85 75 78 85 86 87 76 77 82 84 80 82 88 89 96
100 91 83 73 74 83 60 56 47 43 40 51 57 65 69 79 77 72 55 63 72 72 74 77 76 72 70 70 71 75 77 75 75 69 72 85 84 78 78 86 87 94 100 100
100 86 60 71 95 84 76 62 57 56 50 48 60 67 79 72 63 56 55 49 48 51 56 59 60 61 62 65 66 68 75 78 80 86 85 76 79 89 96 96 100 100 98 98
94 75 68 85 98 92 79 65 72 70 58 54 66 67 72 81 80 77 76 72 64 61 57 58 62 66 69 76 81 78 80 82 74 73 78 87 98 100 100 100 97 91 95 91
96 82 91 96 100 87 70 70 78 67 62 50 87 89 77 91 90 82 81 82 82 80 74 70 68 68 71 73 77 78 77 79 87 95 99 100 100 100 100 93 88 90 92 97
100 100 84 100 96 82 75 72 88 80 66 56 87 86 81 98 100 96 89 90 92 91 90 88 90 88 84 82 81 87 93 100 100 100 100 100 100 95 89 94 95 99 98 91

GFSCGP_250_rhum_030.txt.gz
RH
46 28 35 48 38 27 27 51 70 76 89 77 76 99 100 84 87 79 100 100 100 100 100 100 100 100 100 100 100 100 100 100 100 100 100 100 100 100 100 100 93 100 100 98
51 31 30 50 39 30 25 45 62 72 77 79 72 81 89 96 76 79 77 89 100 98 100 100 100 93 100 95 99 100 100 100 80 78 86 99 96 93 98 99 93 86 77 82
55 33 28 53 40 32 24 29 60 51 69 88 70 76 69 81 91 84 94 99 100 74 100 94 100 86 100 100 98 69 83 73 74 72 72 65 68 71 68 72 72 72 70 88
55 39 26 43 42 34 26 26 53 58 68 88 95 79 75 85 88 84 92 100 100 100 72 98 100 96 81 100 94 100 100 98 76 66 64 57 66 63 66 77 87 83 75 62
50 44 30 27 42 41 32 26 37 66 68 85 100 100 95 86 71 89 95 100 100 97 92 90 79 90 90 96 99 99 99 95 90 88 91 86 80 76 67 62 53 58 52 51
46 46 32 33 44 43 33 29 31 61 72 87 83 98 100 100 77 73 95 93 95 97 81 71 67 74 66 64 65 64 58 62 59 54 54 62 72 68 78 72 63 51 48 59
47 44 28 36 50 45 38 33 31 37 73 78 77 91 95 88 84 96 79 92 94 98 84 81 100 92 74 71 66 60 60 61 67 72 69 64 69 61 53 72 73 85 67 85
54 51 28 29 51 49 42 36 34 32 47 73 81 82 78 74 82 87 80 81 80 76 98 88 70 71 83 78 85 83 77 75 70 75 67 57 60 76 98 100 100 100 100 100
69 59 33 36 57 51 45 42 36 33 35 57 82 84 80 77 85 87 91 90 89 84 82 78 67 74 77 87 99 97 79 58 53 62 70 78 100 100 100 100 100 100 87 76
68 52 34 54 64 51 44 42 35 34 37 42 77 90 76 69 64 66 87 89 95 84 90 80 76 66 66 74 76 72 59 57 59 69 82 93 99 94 100 100 98 99 100 100
66 50 38 73 79 57 44 43 36 33 37 39 64 78 78 60 63 74 79 93 98 100 95 83 86 73 68 71 56 45 57 79 93 70 69 78 74 82 92 100 100 100 100 100
72 46 55 94 86 64 45 38 37 38 37 46 39 65 78 74 68 73 80 91 91 91 88 96 93 97 98 86 59 38 61 69 69 73 76 74 79 76 100 100 100 100 100 100
100 46 90 100 86 69 51 39 39 30 33 60 46 43 51 54 72 78 76 74 82 81 84 85 91 100 100 92 57 72 78 65 79 80 72 73 99 100 100 100 100 98 93 91
80 52 69 100 98 75 50 47 37 32 36 38 60 61 43 30 39 61 88 86 79 81 75 76 87 97 100 78 92 100 84 78 78 78 77 90 91 99 99 100 97 90 80 72
100 79 63 100 100 81 56 46 39 43 38 36 48 60 56 48 34 36 54 59 56 54 51 46 58 91 99 98 93 74 74 76 83 84 84 78 82 90 94 87 82 79 70 67
100 70 74 100 99 80 72 37 41 39 38 44 41 52 55 54 56 43 43 45 59 65 68 74 80 81 100 90 68 59 59 81 89 92 92 92 93 89 84 81 80 76 77 95
100 74 98 100 89 81 83 49 41 43 46 46 40 47 49 47 39 44 64 78 97 100 98 93 88 67 61 68 43 40 62 80 92 96 97 99 97 92 88 82 80 95 100 100
100 62 100 100 92 100 70 53 39 46 47 50 41 40 49 42 35 29 33 50 58 68 83 87 73 58 46 40 42 47 47 65 90 97 95 89 86 90 92 92 100 100 97 93
91 86 100 100 100 100 93 49 43 47 49 38 61 56 58 60 58 56 46 51 56 59 64 66 68 67 65 60 56 59 65 70 78 88 93 96 100 98 99 100 100 95 90 97
100 100 100 100 100 100 73 54 37 56 60 49 43 49 56 58 65 72 63 61 61 65 68 71 83 80 66 63 73 87 90 93 97 98 97 93 94 98 100 90 84 91 94 92
100 100 97 100 100 100 83 55 41 54 63 51 53 52 44 46 59 70 84 84 85 96 100 86 74 77 76 81 87 86 88 94 93 92 93 94 88 79 84 90 86 87 85 76
100 100 100 100 98 100 74 48 50 50 74 71 66 56 55 53 48 61 76 85 100 99 80 56 51 52 53 59 62 67 74 81 86 87 82 79 82 84 85 86 83 79 84 96
96 90 100 95 90 99 90 59 50 53 72 92 77 67 73 65 56 49 59 80 91 85 78 74 74 74 72 74 71 66 66 72 81 88 88 84 84 92 91 83 86 94 93 85
100 100 100 94 96 97 85 89 57 54 84 87 67 72 82 79 68 58 68 68 80 99 96 90 88 86 86 85 85 85 84 82 87 95 96 89 77 74 83 85 84 81 81 82
100 100 100 72 99 92 90 75 74 88 100 75 79 72 80 82 72 58 60 66 75 87 90 94 94 90 88 88 88 91 94 97 87 78 75 74 79 88 90 90 85 88 93 86
100 100 89 99 98 70 78 80 93 100 97 83 93 79 76 73 76 66 69 75 72 67 77 84 92 93 90 87 85 82 80 74 66 67 69 72 79 77 82 89 90 95 92 91

GFSCGP_250_rhum_033.txt.gz
RH
90 80 47 38 41 43 37 32 27 56 77 76 77 79 92 82 82 77 100 91 79 81 100 100 100 97 100 100 100 100 100 100 92 100 100 100 100 100 100 100 100 100 100 100
93 55 55 37 41 46 43 36 25 45 61 77 80 82 78 100 100 85 89 100 100 100 97 97 100 100 99 80 98 100 100 100 100 95 90 98 100 100 98 100 100 100 100 99
100 85 76 62 40 48 48 39 27 29 59 67 67 75 82 95 96 75 71 96 100 100 100 100 100 100 100 100 90 64 88 100 100 100 100 100 97 94 94 97 96 96 91 89
100 92 92 81 39 47 50 42 32 27 50 67 74 60 70 77 68 69 64 71 89 100 97 84 100 94 100 100 100 100 100 95 77 64 62 43 44 45 48 59 66 66 58 62
100 100 100 70 41 42 52 46 36 31 29 61 72 74 70 95 86 69 72 72 100 100 100 99 58 100 100 100 97 88 100 100 100 100 100 100 100 87 79 78 80 78 73 68
100 100 93 75 55 39 62 48 41 38 30 44 66 85 80 82 93 97 88 67 69 97 100 98 96 85 90 95 97 89 78 70 66 68 64 68 73 76 71 66 59 56 52 54
100 100 100 99 65 43 52 56 44 39 32 32 51 75 82 75 77 100 100 90 86 83 99 94 82 64 58 56 57 60 59 52 50 59 60 56 59 60 60 56 64 61 71 79
99 100 100 100 64 45 54 60 46 42 37 30 34 55 71 85 76 75 75 97 96 89 70 61 79 72 63 66 67 64 65 62 58 58 54 58 55 58 69 63 77 88 98 88
99 95 100 94 57 48 55 77 54 44 41 34 33 36 49 71 78 67 61 62 64 74 74 97 100 100 93 79 71 69 65 63 63 57 65 86 57 45 46 85 100 100 100 100
100 100 100 100 70 49 49 79 66 47 43 36 29 35 39 58 64 80 66 58 61 67 76 96 94 78 94 94 86 83 93 91 70 64 60 85 39 42 66 98 100 100 100 100
100 100 100 100 95 45 46 88 81 53 46 39 33 36 32 33 34 68 79 71 62 61 68 74 76 87 98 77 64 76 95 100 95 58 42 44 57 71 81 100 100 100 100 100
100 100 94 91 82 79 41 96 94 64 44 42 35 35 32 35 26 36 61 80 76 70 65 60 63 73 68 61 63 67 74 88 91 62 60 58 68 72 85 92 92 100 100 100
99 95 100 93 100 70 50 100 99 73 45 47 40 42 28 43 41 40 35 48 90 90 80 72 67 66 69 74 77 82 83 82 81 59 64 70 74 77 77 87 84 81 97 100
100 94 92 100 99 64 52 100 100 72 52 42 47 36 34 34 39 53 55 45 39 73 86 85 82 74 81 81 81 94 89 77 68 81 87 80 74 98 99 88 86 88 97 97
97 75 85 100 100 93 43 97 100 91 56 44 45 38 38 32 37 52 59 56 41 37 40 50 58 53 54 59 62 76 81 72 72 84 78 85 86 85 100 97 93 91 88 82
97 82 67 92 98 94 46 73 100 97 60 55 44 44 38 33 36 49 52 53 57 53 41 38 39 60 62 49 62 88 98 98 94 75 62 69 83 90 99 100 100 98 100 100
100 67 53 100 100 100 98 93 94 94 60 60 47 46 43 32 33 44 47 45 50 58 74 74 63 58 49 52 52 62 83 96 98 73 49 46 62 91 100 100 100 100 100 90
62 52 100 100 100 60 99 80 100 77 68 62 47 56 47 34 31 39 44 45 43 35 41 47 50 43 35 39 39 39 45 46 44 46 48 52 58 58 63 69 77 78 86 99
46 100 100 100 92 99 100 100 99 93 73 59 48 63 57 45 40 36 37 50 55 62 64 55 58 61 68 76 75 71 63 56 51 51 61 78 90 98 99 100 100 100 97 100
52 100 100 100 100 100 100 94 95 86 90 34 73 54 64 62 57 58 53 50 55 66 82 72 66 74 85 89 91 84 80 82 80 81 86 90 91 97 98 95 94 100 98 95
62 99 100 100 99 100 100 100 100 96 85 37 64 49 50 59 66 63 66 69 58 45 54 67 85 96 100 100 96 64 53 52 54 62 68 75 78 85 93 93 97 100 99 95
92 100 100 100 92 76 100 100 84 100 60 50 51 50 53 54 60 59 59 62 70 63 53 52 67 85 93 91 81 73 76 79 81 84 86 89 96 100 100 98 92 82 75 72
100 100 100 100 100 100 100 100 100 98 77 54 54 60 50 58 63 68 75 65 56 56 61 58 58 62 75 93 97 95 93 92 94 99 100 100 100 100 93 86 72 67 67 67
100 100 99 100 100 100 100 100 100 86 63 67 79 81 64 55 68 80 83 66 65 72 62 68 73 78 88 93 98 100 100 100 100 100 99 96 87 82 72 66 68 77 81 83
100 87 100 100 100 100 100 91 100 85 79 74 96 89 89 83 81 90 92 64 78 89 69 68 80 65 73 77 80 95 98 90 90 89 78 65 58 60 73 87 93 83 86 93
100 100 100 100 100 99 99 100 100 100 81 69 80 98 100 99 100 91 76 80 85 81 76 66 58 73 73 72 73 79 80 71 68 64 61 60 76 89 97 92 92 94 98 98

GFSCGP_250_rhum_036.txt.gz
RH
46 60 95 100 63 63 37 30 46 40 28 33 50 47 98 100 100 70 76 82 89 84 82 100 100 100 61 83 100 90 78 95 100 100 100 100 100 100 100 100 100 100 100 100
57 64 100 98 90 77 63 37 49 44 31 28 58 45 80 94 100 60 76 100 89 92 77 100 99 99 100 89 100 100 100 100 100 100 84 96 88 100 100 100 100 100 100 100
78 96 100 99 100 67 82 41 39 51 40 35 44 64 62 51 67 100 99 97 66 100 99 94 100 94 68 100 100 100 94 97 100 100 100 99 93 94 90 85 95 100 100 100
88 96 100 100 100 93 90 71 43 48 44 36 30 48 66 69 66 67 82 68 82 98 100 100 100 100 100 89 86 63 83 100 100 87 97 83 79 68 97 86 82 71 83 70
94 94 100 100 100 100 96 70 48 35 52 38 32 31 52 72 66 62 67 69 77 65 99 100 84 99 100 100 100 100 100 96 100 100 87 88 88 79 75 66 78 62 48 47
100 76 86 95 100 100 96 59 61 37 61 42 40 31 31 54 72 63 65 84 75 71 87 100 100 84 65 88 89 85 100 100 85 76 95 97 96 89 81 77 77 77 74 78
100 89 67 82 100 100 100 65 65 44 58 55 40 34 29 29 48 76 67 98 100 69 73 92 100 100 100 76 70 95 88 92 95 94 76 56 53 47 47 44 56 58 57 70
100 100 100 85 100 100 100 87 66 58 43 68 47 39 35 31 26 72 77 67 90 100 62 69 94 100 99 89 67 56 54 52 62 51 46 44 44 43 58 67 81 82 92 89
100 100 100 100 100 100 100 98 70 78 38 77 59 51 40 27 28 32 65 72 62 52 69 58 58 86 68 76 61 59 58 55 54 48 44 52 60 62 100 72 90 100 99 92
100 100 94 100 100 100 100 100 97 91 35 81 71 52 40 36 25 29 34 54 67 73 62 55 57 51 54 87 100 100 70 62 58 50 56 53 60 96 77 100 64 89 100 100
100 100 91 100 100 100 100 100 100 62 38 57 80 60 47 39 30 27 34 28 42 68 73 68 69 72 67 69 57 59 80 100 59 54 52 88 67 83 100 95 70 95 100 100
100 100 100 100 100 100 100 100 80 60 42 97 99 70 50 42 41 29 26 28 36 30 54 66 57 61 64 68 75 70 82 77 69 53 62 80 91 91 71 74 95 92 93 100
100 100 100 100 100 100 100 100 61 71 65 76 100 82 59 45 42 35 30 30 38 59 47 36 61 72 74 76 72 70 68 65 67 62 59 89 90 58 79 79 77 74 82 84
100 100 100 100 100 100 100 100 82 86 79 54 93 100 73 54 47 41 30 25 36 45 56 45 36 34 53 64 68 68 69 68 54 52 48 65 73 68 68 65 70 71 71 80
100 100 100 100 100 100 100 100 99 95 96 51 52 100 72 54 51 45 32 33 29 38 47 52 44 33 29 30 31 37 38 48 60 62 56 61 70 66 67 68 65 65 62 73
100 100 100 100 100 100 100 100 98 100 100 79 46 100 85 56 52 50 34 31 30 40 47 47 40 46 52 54 62 60 61 68 72 70 59 57 66 76 75 72 54 43 42 48
100 100 100 100 100 100 88 95 100 78 79 51 63 100 92 63 54 53 36 33 33 36 42 44 45 40 41 33 30 40 51 48 40 40 44 42 41 41 41 45 47 55 64 77
100 100 96 100 100 100 94 96 100 84 82 96 98 100 84 72 58 56 45 36 38 33 35 39 42 47 54 57 55 55 51 53 50 49 58 60 57 56 59 63 67 76 83 91
100 93 89 96 100 100 84 88 97 99 100 100 53 100 100 79 62 48 46 46 42 45 44 43 40 42 45 59 66 64 59 59 76 84 87 78 60 54 54 55 62 69 72 73
69 74 81 82 77 79 84 76 94 100 100 96 100 100 100 78 58 47 45 50 50 54 52 48 50 55 56 55 56 69 78 91 100 96 87 81 66 62 67 70 75 82 92 98
44 50 59 66 70 67 60 73 95 96 100 98 98 70 100 86 61 53 47 57 59 64 66 53 58 58 58 52 54 55 56 66 81 92 97 94 90 90 94 98 100 100 100 100
37 49 62 70 71 47 58 94 100 100 100 97 84 87 100 99 80 53 49 52 62 76 66 64 64 71 63 50 53 53 54 57 66 72 86 97 100 100 100 100 100 100 96 81
32 35 43 46 35 54 100 100 100 100 100 100 71 49 100 100 87 52 47 52 67 65 62 70 74 86 84 74 65 60 65 84 83 82 86 100 100 100 100 100 95 88 80 76
32 30 32 40 48 100 100 100 100 100 100 80 53 100 100 100 89 48 50 75 69 69 69 77 67 79 93 94 79 68 70 80 88 84 85 98 98 89 83 78 80 82 77 76
34 30 41 62 99 100 100 100 100 100 97 92 88 100 100 100 82 73 49 65 92 98 89 79 89 82 89 94 89 72 70 72 69 68 75 77 77 74 73 82 84 84 95 96
39 47 68 100 100 100 100 100 100 92 100 100 100 100 100 74 93 79 54 88 100 98 96 87 92 81 80 88 100 85 81 79 64 59 64 65 74 73 85 98 93 95 90 90

GFSCGP_250_rhum_039.txt.gz
RH
100 62 23 26 61 87 69 99 88 59 41 31 33 35 50 100 100 55 98 92 66 80 95 93 94 75 67 90 97 68 100 100 100 94 80 59 45 53 76 99 100 100 100 100
100 63 29 27 60 88 69 97 98 82 52 30 31 24 37 70 100 88 84 54 62 55 80 99 77 75 86 95 86 94 88 83 94 77 61 40 34 71 89 100 100 100 100 100
85 29 26 37 89 81 68 96 100 93 56 48 32 34 26 40 57 66 96 49 97 59 71 76 75 89 93 74 56 60 56 58 60 65 49 41 84 92 73 76 100 100 100 100
37 32 33 30 57 82 95 55 100 93 82 62 33 34 33 27 41 53 67 60 76 65 62 96 92 100 100 98 93 64 75 94 90 93 97 100 100 100 96 96 88 73 74 62
100 75 68 56 59 72 97 43 85 100 82 56 36 32 35 27 33 64 78 61 49 56 63 100 100 100 100 100 61 78 100 100 100 100 100 100 100 72 81 100 100 100 94 92
100 100 100 100 100 95 99 46 51 100 84 58 40 33 41 31 26 38 70 74 78 56 54 81 100 100 100 100 100 89 85 82 84 63 79 71 62 84 100 91 96 91 84 68
100 100 100 100 100 100 100 96 100 100 91 69 48 36 31 38 31 28 42 68 72 56 58 53 72 100 100 93 75 84 95 87 80 99 100 100 98 82 53 57 64 49 46 60
47 88 99 100 100 100 100 100 100 100 92 75 66 42 36 50 38 35 28 44 74 87 60 54 56 64 100 95 97 97 84 71 72 76 74 65 60 62 64 52 44 41 46 64
47 57 100 100 100 100 100 100 90 96 93 100 81 46 35 52 46 40 32 28 32 75 97 60 65 58 58 80 100 94 67 49 44 42 40 41 40 42 40 40 44 53 66 84
48 56 90 100 99 85 98 97 78 79 88 100 88 47 36 66 66 45 35 29 28 28 54 71 60 52 56 60 62 69 58 60 100 100 100 83 100 78 46 70 94 91 71 70
45 53 90 97 100 84 99 80 95 82 94 100 90 53 38 81 90 59 40 33 32 28 27 24 52 46 54 82 87 71 43 100 100 100 100 78 99 100 92 100 100 90 100 100
71 67 88 100 100 100 100 91 100 100 100 100 87 85 50 45 90 73 64 38 36 35 32 28 23 45 50 55 80 76 64 92 100 100 100 76 96 100 100 96 100 100 100 90
100 68 86 92 87 100 100 100 100 100 100 98 93 100 75 47 48 81 84 45 34 32 30 33 30 40 34 40 42 51 63 69 85 100 100 95 90 100 96 98 100 100 100 100
100 100 99 94 100 100 100 100 100 100 100 100 100 100 66 64 47 63 93 53 34 32 28 27 38 46 48 39 28 29 43 61 84 100 94 95 98 85 93 96 100 88 90 100
100 98 100 100 100 100 100 100 99 100 100 100 100 100 100 100 43 47 100 63 41 40 28 22 30 48 47 48 47 38 28 34 63 48 44 40 34 29 41 74 77 63 60 58
82 92 100 100 100 100 100 100 96 98 100 100 100 93 100 94 40 53 100 73 51 46 40 31 29 36 40 44 39 34 35 42 40 38 36 35 34 28 27 29 28 26 27 29
70 80 86 89 99 100 99 100 100 100 100 100 100 88 89 66 40 60 100 86 56 44 43 40 32 32 35 39 42 43 42 42 44 43 42 37 37 38 38 37 39 43 46 48
88 59 69 76 94 92 95 100 100 100 100 100 100 92 100 90 48 52 100 98 52 47 44 48 41 34 35 37 44 39 37 37 38 41 47 52 56 65 66 59 65 76 76 62
100 96 71 53 76 89 100 100 100 100 100 100 100 98 100 100 59 61 100 99 61 44 44 47 45 41 40 43 44 44 44 44 42 43 46 47 52 64 80 92 95 98 97 92
53 93 94 79 52 62 100 100 100 100 100 100 100 91 68 65 43 98 100 100 73 67 58 43 46 42 48 53 62 60 53 55 58 56 54 53 52 55 64 66 67 76 87 92
37 30 30 44 43 50 78 100 100 100 100 100 100 80 96 68 75 100 100 100 94 66 61 47 50 47 49 51 53 57 58 54 62 67 59 66 69 61 54 60 66 71 72 74
21 26 38 43 49 67 79 91 91 100 100 99 83 78 71 67 93 100 100 100 100 78 70 59 41 57 66 63 67 73 70 64 71 75 72 74 83 77 71 60 71 75 76 87
20 20 20 22 25 41 46 56 83 86 81 85 68 83 61 79 100 100 100 84 59 100 93 69 54 46 85 100 100 93 85 68 71 84 90 90 71 84 82 70 59 65 74 84
17 18 21 19 28 31 44 46 57 74 75 79 75 73 59 81 100 100 100 61 100 100 96 88 66 51 97 96 100 91 86 75 85 74 73 86 89 97 94 85 83 64 60 69
26 21 18 19 30 39 40 48 54 63 67 62 64 90 81 94 100 100 99 72 100 100 100 100 78 57 44 78 81 87 92 89 76 95 96 84 94 95 97 81 98 87 73 67
39 39 22 27 38 36 47 49 74 62 78 100 100 100 100 87 100 100 100 100 88 100 100 100 88 56 53 87 80 81 91 95 92 83 76 96 99 95 94 93 88 94 92 84

GFSCGP_250_rhum_042.txt.gz
RH
54 75 42 65 100 80 42 28 44 78 50 83 56 33 32 28 34 47 72 67 73 77 66 86 72 100 100 100 100 100 100 96 100 90 94 100 100 91 93 100 100 90 75 58
41 44 73 59 81 80 27 39 55 69 67 90 67 36 33 32 27 39 84 100 86 58 53 76 95 100 100 100 100 100 100 86 100 94 100 100 100 100 100 100 100 82 85 61
42 41 40 49 48 50 28 31 64 64 61 60 81 49 36 31 30 26 40 55 78 84 87 58 79 100 100 100 100 100 100 100 100 100 100 100 100 100 100 97 80 71 54 56
58 41 38 41 41 39 39 30 68 97 56 66 73 66 34 36 31 25 34 48 57 69 83 65 70 80 87 86 100 100 100 100 100 92 89 100 90 80 68 87 75 64 56 58
70 45 42 53 78 60 59 78 88 100 95 72 72 73 47 38 40 32 23 34 46 52 56 65 66 77 73 72 72 79 87 90 80 60 63 74 65 59 48 73 86 100 100 100
93 73 54 36 59 94 92 98 100 100 100 97 83 66 56 44 43 35 24 23 32 39 47 46 49 76 100 100 94 62 49 54 56 52 50 49 47 68 92 98 99 97 89 85
88 61 43 42 34 49 92 73 85 100 100 94 81 58 93 57 39 35 35 24 26 27 42 44 44 60 90 100 100 86 82 74 47 61 73 86 90 92 99 100 100 91 92 79
68 58 43 44 34 32 63 56 67 100 97 99 56 58 100 67 46 46 30 34 29 29 32 36 51 48 68 86 98 88 94 100 89 60 89 83 76 56 68 65 59 54 51 46
69 73 55 39 33 32 36 61 94 98 97 58 68 58 87 83 61 41 30 29 36 35 30 29 44 52 51 50 67 85 80 68 65 64 67 61 62 73 88 74 100 100 100 100
94 84 75 57 39 34 39 50 83 87 84 73 85 56 88 90 75 54 39 29 39 37 35 35 35 30 49 54 54 57 74 86 98 81 68 76 89 73 85 100 100 100 90 90
100 90 84 66 43 39 37 45 92 83 76 63 84 74 94 99 78 63 47 40 29 31 31 32 31 36 34 44 47 48 54 61 75 73 77 90 67 42 84 100 100 99 100 100
78 86 77 72 70 55 37 45 96 97 91 60 90 100 89 97 83 65 64 50 38 27 26 26 27 31 40 37 37 57 57 58 49 61 99 100 99 100 100 100 100 100 100 100
85 83 85 76 65 63 61 70 94 100 99 66 79 100 100 93 98 72 68 62 45 35 31 25 22 25 33 47 44 42 47 47 40 46 89 98 100 100 99 100 98 100 100 100
93 81 93 83 83 87 76 87 94 100 92 79 78 100 100 100 95 85 53 73 63 68 42 36 24 20 21 30 47 57 54 43 48 80 92 98 100 94 100 100 100 97 97 93
100 98 77 74 91 86 72 73 90 93 99 84 100 100 100 100 93 78 60 64 51 68 62 72 37 25 19 22 24 38 53 52 41 70 98 100 100 100 99 100 100 100 100 100
56 65 60 57 78 98 100 79 100 97 89 82 82 96 100 100 96 89 78 64 60 54 54 95 46 36 28 26 27 23 31 40 43 43 61 100 100 100 100 100 100 100 98 95
28 44 55 60 76 91 100 85 95 100 100 100 100 100 100 100 100 100 83 64 68 58 44 99 56 38 35 36 34 31 29 28 33 46 79 90 92 98 96 86 76 79 85 65
21 29 32 34 61 63 81 100 85 89 94 100 100 100 100 100 100 92 93 84 100 100 97 100 72 57 58 38 42 36 32 29 28 36 42 36 37 37 38 38 39 39 38 38
21 24 25 27 38 43 74 100 100 100 96 100 100 100 100 100 100 99 99 84 67 72 90 100 94 69 54 50 41 44 43 46 54 51 47 46 51 46 48 46 45 44 45 47
18 24 25 26 24 31 56 99 100 100 90 100 100 100 100 100 100 100 98 87 67 58 90 100 100 84 62 56 45 45 48 50 51 44 48 53 60 60 61 58 76 72 59 60
14 18 25 24 24 24 38 75 95 99 98 89 94 94 100 99 94 98 90 92 79 65 68 100 100 90 62 70 62 50 37 47 47 50 46 46 48 50 53 56 62 70 80 77
15 16 25 27 26 29 35 42 69 67 79 89 80 71 62 63 74 88 82 89 76 68 76 100 100 92 68 89 88 60 45 42 41 54 72 67 56 51 53 59 62 57 58 74
16 21 21 26 34 36 32 37 35 47 68 77 74 71 80 93 100 100 99 94 90 73 84 100 100 87 100 100 100 74 58 59 54 49 59 68 64 56 57 62 67 61 59 67
16 18 22 32 28 45 35 30 32 38 50 69 75 78 75 80 83 81 87 98 84 88 100 100 100 100 100 100 100 100 92 96 80 59 63 72 73 74 65 59 67 57 61 71
17 18 26 42 64 49 37 63 55 39 43 52 56 81 95 84 67 80 92 81 72 73 100 100 100 100 100 100 100 100 100 100 98 78 76 77 86 86 74 68 70 62 61 62
19 15 15 20 29 53 60 70 61 67 57 39 40 45 59 66 71 86 87 80 83 100 100 100 100 100 100 100 98 100 100 96 98 82 79 80 81 87 83 74 62 63 62 61

GFSCGP_250_rhum_045.txt.gz
RH
46 67 57 40 47 73 60 46 76 69 44 62 36 52 43 43 30 28 24 28 52 62 65 58 63 44 45 70 99 100 100 100 100 100 100 100 100 100 96 81 77 67 82 94
83 87 55 35 40 44 68 55 45 44 46 83 95 50 65 46 32 30 27 24 39 68 57 44 50 67 58 56 75 99 100 100 100 100 100 100 100 98 92 91 78 75 97 97
100 90 66 68 62 46 35 46 40 44 56 86 100 98 75 56 52 40 32 26 24 42 43 37 49 66 58 67 69 100 100 100 100 100 100 100 100 94 94 83 100 100 100 100
97 91 98 100 79 50 38 32 38 41 60 71 100 100 99 58 57 46 37 28 24 26 43 45 40 52 62 64 93 100 96 100 100 100 100 100 100 100 100 100 100 93 90 87
99 100 100 100 100 57 43 37 35 31 34 91 100 100 92 63 48 50 43 36 25 23 29 46 39 43 46 62 68 100 100 100 100 100 100 100 100 100 100 95 91 87 79 71
99 100 100 100 100 60 56 46 38 33 42 95 96 100 84 68 49 50 57 39 32 25 24 27 46 43 45 62 73 85 89 100 100 100 100 100 100 97 97 87 80 74 70 68
100 100 100 74 100 94 71 64 45 35 35 63 55 100 65 61 66 54 61 56 41 28 27 26 29 46 43 48 91 92 100 96 80 80 79 78 80 86 82 80 87 76 85 85
98 99 100 100 100 100 72 71 49 39 32 43 72 96 68 77 84 61 67 54 39 28 28 30 24 30 48 44 56 94 100 100 80 65 73 66 64 71 70 87 76 58 49 51
100 100 100 100 100 99 78 53 58 45 37 30 92 100 81 60 75 74 78 56 47 35 28 30 28 25 26 46 45 65 96 100 100 100 100 100 86 78 89 70 58 57 75 100
95 91 97 86 75 68 80 88 74 68 57 38 42 98 100 68 62 98 83 66 50 46 35 32 28 27 24 24 38 48 54 68 83 87 76 88 80 68 56 60 64 78 84 85
88 97 100 100 100 100 100 100 100 86 57 42 39 90 92 80 63 73 91 76 57 50 43 36 34 26 23 22 24 29 48 46 55 63 74 77 78 85 72 58 56 68 96 98
100 100 100 100 100 100 100 90 68 66 66 58 42 90 100 94 85 54 82 85 74 63 49 44 46 29 27 23 19 20 30 37 48 51 50 58 60 68 77 67 61 85 99 93
100 100 100 100 100 100 96 94 98 95 68 59 47 94 100 99 92 74 98 86 75 68 58 52 52 46 29 28 23 21 26 25 36 49 56 68 70 69 67 64 66 100 84 86
100 100 100 100 100 99 96 100 98 96 69 60 54 91 100 100 100 100 81 95 68 64 52 54 48 47 32 30 31 29 26 28 32 41 48 57 72 88 80 78 89 78 83 100
65 75 86 96 100 96 82 89 95 87 91 69 64 66 100 89 100 100 100 98 82 65 42 56 52 51 55 52 33 32 30 28 34 41 44 44 56 68 91 85 77 85 72 73
72 76 77 74 77 99 96 99 100 96 86 76 78 72 87 100 100 100 100 100 100 85 67 62 54 49 80 58 52 28 30 34 30 32 40 46 46 59 85 100 86 99 100 100
63 53 58 59 72 76 77 77 70 89 98 100 83 89 100 100 100 100 100 100 99 97 85 68 61 56 81 97 82 44 29 30 35 35 31 35 52 69 76 89 99 100 100 100
36 47 33 31 54 49 65 67 66 66 100 92 96 100 100 100 100 100 94 100 100 100 92 82 65 60 64 94 96 73 39 40 34 41 40 38 59 80 97 100 100 100 100 95
22 23 24 22 21 25 30 38 55 56 61 92 75 82 98 100 100 100 100 100 100 100 98 87 76 64 62 100 100 100 67 52 45 36 40 44 39 39 44 47 49 51 46 44
16 17 18 19 16 16 26 36 47 57 51 84 95 88 71 78 65 98 100 100 100 100 100 98 91 85 80 96 100 100 88 72 63 53 44 36 48 51 56 55 57 50 46 43
12 10 12 13 12 12 25 34 36 38 45 84 84 84 100 85 63 92 96 96 100 100 100 100 100 94 71 84 100 100 100 98 84 78 64 55 49 42 44 40 38 40 42 43
14 13 12 10 10 14 22 23 29 25 29 46 46 70 100 100 93 81 72 90 89 100 95 99 100 100 95 86 100 100 100 100 100 99 92 68 64 71 60 51 46 42 45 52
23 19 12 10 11 14 16 17 20 22 24 32 42 55 93 99 100 99 83 94 100 100 100 100 100 100 97 80 91 100 100 100 100 100 100 99 84 86 80 78 75 62 49 55
22 18 13 11 19 16 15 15 20 20 23 29 31 40 60 81 82 93 100 92 98 100 100 100 100 98 89 83 80 100 100 100 100 100 100 100 100 86 85 89 81 80 78 77
23 14 13 13 17 16 19 22 20 21 36 33 28 29 33 52 67 84 97 99 100 100 100 100 100 100 100 97 90 100 100 100 100 100 100 95 99 100 92 84 76 84 89 89
19 17 16 20 19 32 47 40 34 32 46 64 41 39 49 44 42 41 45 58 74 98 100 92 100 100 100 100 100 100 100 100 100 100 100 100 97 100 98 78 70 67 86 96

GFSCGP_250_rhum_048.txt.gz
RH
100 100 100 74 57 61 51 45 44 45 57 46 48 66 65 79 92 58 30 24 26 21 28 50 42 36 79 80 89 100 100 100 100 100 100 100 100 100 100 100 100 100 97 90
100 100 100 73 74 81 71 55 52 39 38 47 41 69 70 98 87 52 34 30 27 26 20 31 41 36 33 61 83 99 100 100 100 100 100 100 100 100 100 90 86 100 98 100
100 100 100 82 77 90 59 87 55 44 27 45 42 54 84 99 64 55 33 25 36 37 26 22 38 41 41 46 47 85 89 99 100 100 100 100 100 100 100 100 98 100 100 100
100 100 100 100 91 90 69 47 82 54 31 32 37 45 76 100 65 63 41 26 27 37 28 21 22 40 38 48 60 69 83 99 100 100 100 100 100 100 100 100 100 100 100 100
90 100 100 93 98 65 99 85 100 59 41 36 36 37 100 100 71 66 48 33 27 35 36 26 23 30 45 38 63 73 84 81 96 100 100 100 100 100 100 100 100 100 100 100
78 100 100 100 100 100 100 93 92 49 55 42 41 36 100 81 84 73 58 44 35 27 36 30 25 25 36 44 39 57 61 85 100 100 100 100 100 100 100 100 100 100 100 100
98 100 100 100 100 100 100 72 37 46 71 57 60 37 100 60 92 82 76 69 47 32 34 33 26 27 27 37 42 38 47 56 67 100 100 100 100 100 100 99 100 97 100 100
89 94 99 84 77 69 56 33 30 94 100 75 82 44 47 39 59 100 81 94 73 48 31 36 36 26 27 30 32 46 43 78 95 74 90 100 100 100 99 100 100 98 89 100
99 96 72 83 79 71 71 48 88 65 95 100 86 61 56 46 40 88 90 100 90 73 35 36 41 40 32 27 28 31 40 43 71 100 100 99 99 95 94 82 87 100 95 94
65 70 69 64 61 60 55 70 93 100 100 100 88 86 73 50 49 70 97 100 100 83 56 43 44 46 52 45 29 26 28 32 41 64 93 100 100 100 100 100 100 98 90 78
100 100 100 100 100 100 94 100 100 100 94 79 99 97 88 66 54 63 100 100 100 87 81 63 46 39 47 49 44 29 25 25 26 32 45 72 95 100 100 100 94 92 80 72
90 100 100 100 100 100 100 100 100 71 75 98 100 96 94 76 62 73 100 100 100 100 96 83 58 39 38 48 42 41 29 25 23 28 31 46 47 48 65 79 78 79 62 73
84 87 80 76 86 87 72 81 89 91 75 83 99 99 100 95 68 58 100 94 100 100 100 93 75 57 41 41 46 42 43 28 26 28 34 30 30 33 44 50 55 63 60 69
85 90 73 65 98 93 95 96 100 100 100 100 100 100 100 94 72 57 67 95 99 100 100 100 93 71 51 44 49 43 64 39 29 29 30 40 39 39 45 50 62 73 76 76
91 98 100 100 100 100 100 100 100 100 99 86 95 86 99 100 92 71 57 74 99 98 100 100 100 87 73 57 50 49 54 64 35 29 28 27 34 48 57 60 62 76 81 81
100 100 96 100 100 100 100 100 94 96 95 94 79 68 80 98 91 72 71 76 100 100 100 100 100 94 88 68 59 58 62 71 70 42 28 29 30 34 40 48 48 48 61 74
98 94 93 89 82 77 84 100 92 95 87 74 75 88 100 93 100 88 76 87 79 100 100 100 100 100 96 86 71 88 84 75 67 60 44 31 26 28 32 34 39 48 59 74
94 85 90 99 99 88 99 100 100 92 92 88 90 99 99 94 95 93 83 69 89 99 100 100 100 100 100 94 94 71 77 100 96 80 69 52 38 34 31 33 36 50 82 96
73 78 76 71 72 69 78 85 95 99 92 92 79 79 87 100 94 98 100 97 68 69 87 100 100 100 100 97 98 81 80 80 100 100 95 82 67 60 55 44 42 47 59 70
46 46 47 51 45 53 66 53 45 43 48 77 68 67 84 88 96 99 100 99 100 100 89 89 95 100 100 100 100 97 98 90 90 100 100 100 90 78 69 72 52 48 49 52
25 26 27 26 28 33 40 26 24 26 30 36 41 37 59 75 84 89 100 100 84 100 100 89 81 96 100 100 100 100 100 95 84 91 100 100 100 96 79 81 85 78 66 55
23 22 22 21 22 24 23 22 19 15 19 24 24 31 26 36 70 88 100 100 100 82 69 97 100 92 97 100 100 100 86 95 100 100 100 100 100 100 100 100 98 98 99 99
15 14 12 12 13 13 13 12 11 12 13 16 22 23 24 26 38 87 100 100 100 100 94 95 100 100 100 94 99 100 92 100 88 100 94 98 100 100 100 100 100 100 100 100
17 18 15 13 18 14 11 12 9 9 10 13 17 22 24 27 31 49 72 95 100 100 100 100 100 100 89 89 100 100 100 93 99 100 100 95 100 100 100 100 100 100 100 100
23 24 22 19 20 16 19 11 14 11 9 12 17 21 24 25 29 38 48 65 83 91 100 100 100 100 100 100 100 100 100 100 100 92 91 100 100 100 100 100 100 100 100 100
32 31 23 25 20 21 21 15 15 15 10 13 18 23 26 26 31 30 33 38 55 66 90 100 100 100 99 100 100 100 100 100 100 100 100 100 100 100 100 100 100 100 100 100

GFSCGP_250_rhum_051.txt.gz
RH
79 76 100 85 69 70 81 58 62 41 50 44 50 58 49 69 82 82 49 35 28 24 23 22 21 35 31 72 100 100 100 100 100 100 100 100 100 100 100 99 91 86 83 77
85 98 100 64 76 100 95 66 67 31 67 49 37 54 46 45 45 76 61 48 37 31 25 23 21 28 34 31 92 100 100 100 100 100 100 100 100 100 100 100 100 100 100 97
100 100 100 79 71 100 100 92 39 31 68 67 48 39 41 41 35 75 64 56 45 37 28 24 24 20 35 36 61 99 100 100 100 100 100 100 100 100 100 100 100 100 99 100
100 100 100 100 87 100 100 90 50 45 55 93 67 40 36 38 39 60 68 52 56 46 32 26 25 23 21 37 38 70 90 100 100 100 100 100 100 100 94 96 100 100 100 100
100 100 100 100 99 78 100 84 73 62 66 73 72 50 49 48 48 56 71 60 58 61 45 30 29 26 22 28 35 40 61 78 100 100 100 100 100 100 100 100 96 99 93 97
73 100 100 100 92 83 100 94 86 79 58 58 64 39 72 62 49 77 52 58 69 64 61 34 34 32 29 24 27 38 36 59 69 100 100 100 100 100 100 100 100 100 100 100
96 100 100 100 100 99 100 100 100 84 84 79 66 30 88 70 64 48 44 42 77 67 72 56 28 38 37 32 27 24 36 35 51 72 97 100 100 100 100 100 100 100 100 100
95 100 100 100 100 98 88 100 68 61 76 52 41 47 100 91 81 59 52 44 54 84 76 72 38 33 40 44 36 30 25 22 36 37 49 72 100 100 100 100 100 100 100 100
100 100 100 100 100 98 75 69 68 55 48 35 55 47 100 100 97 80 71 53 49 57 87 82 48 39 35 40 38 32 32 27 25 32 52 76 72 64 90 99 100 100 100 100
100 100 100 100 100 91 100 100 81 52 37 27 42 91 100 100 97 92 88 62 52 49 77 81 74 53 34 32 38 45 32 35 30 26 26 37 86 93 75 83 93 97 100 100
100 100 100 98 95 93 95 99 84 49 34 29 51 99 100 100 100 98 94 67 56 48 55 71 63 70 60 44 34 31 43 36 37 29 29 31 42 55 80 100 97 88 80 73
100 100 100 100 100 96 86 76 60 43 50 50 79 100 100 100 100 100 89 75 68 54 50 59 71 97 83 59 59 42 34 38 49 40 30 29 29 38 47 55 59 80 96 98
94 99 100 99 100 98 78 60 47 41 53 64 82 100 100 100 100 100 96 91 90 72 65 72 92 88 100 79 64 56 40 44 44 46 51 34 31 29 31 35 38 59 62 57
68 56 87 100 96 96 100 100 100 100 100 100 100 97 98 100 100 100 76 75 92 88 68 81 100 100 100 100 86 62 54 42 46 46 55 65 38 31 30 32 38 41 42 51
98 71 100 100 100 100 100 100 92 87 89 84 82 73 76 100 100 100 100 99 85 82 65 62 94 100 100 100 100 94 55 62 54 50 51 53 61 45 32 32 33 40 50 54
80 89 93 94 90 97 92 79 80 78 81 64 56 68 80 100 100 100 100 100 79 76 83 64 76 100 100 100 100 100 82 72 74 70 57 54 66 68 47 39 30 34 35 41
90 90 82 78 69 77 93 85 77 88 90 76 67 98 100 100 100 100 100 99 93 86 83 64 88 100 100 100 100 100 86 79 87 83 66 63 65 81 84 64 46 36 32 31
78 87 74 73 86 79 75 100 100 100 100 100 100 100 100 94 96 99 97 100 100 99 97 79 72 99 100 100 100 100 100 87 90 90 99 89 68 90 93 99 88 71 58 45
97 100 99 93 99 88 98 100 100 100 100 100 86 83 90 89 82 80 88 100 100 100 97 87 73 75 78 96 100 100 100 100 100 100 91 81 95 100 100 100 100 99 81 74
98 96 97 93 97 100 93 79 81 86 92 96 94 93 88 79 79 100 100 100 100 100 100 100 100 100 100 77 68 99 100 100 100 100 100 96 97 88 100 100 100 100 100 88
99 99 95 87 90 99 90 86 82 84 84 76 76 79 80 77 75 89 98 100 100 100 100 100 100 85 100 100 100 95 100 100 100 100 100 100 100 100 100 100 100 98 100 100
55 72 91 100 100 100 91 74 68 71 69 63 56 53 56 62 68 65 82 90 100 100 100 100 100 99 100 100 100 100 100 100 100 100 100 100 100 100 100 100 100 100 100 100
31 30 32 33 37 38 38 34 31 29 36 33 28 26 23 24 31 34 35 58 92 100 100 100 100 100 100 100 100 100 100 100 100 100 100 100 100 100 100 100 100 99 94 100
26 26 26 27 29 28 26 23 23 21 22 23 22 20 17 16 19 23 26 30 36 60 92 100 99 100 87 94 100 100 100 89 90 98 100 100 100 100 100 100 92 99 100 100
21 21 22 20 20 21 20 18 19 18 18 19 17 12 10 11 14 18 23 23 26 30 42 65 90 84 87 87 100 100 100 100 100 100 100 100 100 100 100 100 100 100 100 100
20 19 18 19 21 20 17 12 13 12 12 14 17 12 10 12 11 12 14 20 24 26 29 36 53 61 73 92 100 100 100 100 100 100 100 100 100 100 100 100 100 100 100 100

GFSCGP_250_rhum_057.txt.gz
RH
100 100 100 100 100 100 85 64 49 39 40 33 30 28 54 36 40 40 45 42 44 50 34 43 33 23 20 36 100 100 100 100 100 100 100 100 100 100 100 100 100 100 100 96
87 99 100 100 100 100 83 70 58 42 50 43 36 48 51 42 44 43 41 33 34 32 43 45 38 29 22 31 87 100 100 100 100 100 99 88 100 100 100 100 100 100 100 100
93 100 100 100 100 100 85 76 82 54 44 67 56 60 48 37 44 46 39 33 36 33 44 44 47 34 23 21 50 100 100 100 100 100 100 100 98 97 100 100 100 100 100 100
91 100 100 100 100 100 84 78 90 78 57 96 56 76 39 36 45 46 46 49 39 38 36 34 55 47 31 24 20 74 100 100 97 91 88 100 100 100 100 100 100 100 100 100
86 100 100 100 100 100 94 73 82 97 95 100 100 100 66 30 44 51 54 60 54 46 41 35 33 52 47 32 23 22 87 100 100 100 100 99 100 100 100 100 100 100 100 100
70 99 100 100 100 99 95 66 79 58 94 100 100 100 89 46 39 55 53 61 67 61 55 45 38 32 50 43 31 24 22 77 100 100 100 100 90 100 100 100 100 97 94 98
65 87 100 100 100 97 98 70 80 69 66 100 100 100 100 70 46 62 96 64 71 79 70 65 37 34 54 48 38 33 25 24 34 100 100 100 100 100 100 100 100 100 100 100
65 76 99 100 100 86 95 100 96 96 98 100 100 100 100 100 87 67 100 92 38 89 84 83 47 38 32 48 45 40 37 34 24 48 100 100 100 100 100 90 100 100 100 100
98 78 87 100 100 100 91 100 100 100 98 100 100 100 100 100 100 100 100 96 49 60 97 99 86 35 52 31 28 42 41 38 34 30 24 65 100 100 100 100 100 100 100 100
100 87 99 100 100 100 98 88 100 100 100 100 100 100 100 100 100 100 100 100 43 41 100 100 100 50 49 51 28 26 48 57 50 39 36 27 23 46 94 100 100 100 100 100
80 59 85 88 100 100 100 85 98 100 91 100 100 100 100 100 100 100 100 95 75 54 37 96 100 57 36 46 40 31 32 54 56 56 42 39 33 28 24 22 36 71 99 100
100 56 56 88 100 100 100 100 100 89 82 92 99 100 100 97 100 100 100 97 77 52 37 55 100 82 36 65 49 33 34 37 50 77 54 45 39 43 39 31 26 24 24 26
100 100 100 74 83 94 100 100 100 100 91 79 86 100 100 96 100 100 100 100 78 56 38 33 74 100 76 30 67 58 38 37 33 65 100 66 52 50 46 40 44 36 31 28
100 100 100 96 87 100 100 100 99 99 100 100 100 100 100 90 100 100 100 72 73 59 43 38 44 98 100 56 47 79 54 39 39 34 64 100 90 50 62 52 48 42 51 51
92 97 100 82 84 73 90 100 100 100 87 88 99 100 100 93 96 84 87 100 96 74 65 50 79 100 98 68 52 98 82 60 50 44 36 47 52 100 100 81 62 51 45 40
100 100 100 100 100 95 82 100 100 100 100 100 90 82 82 100 88 84 99 100 84 79 86 95 100 100 87 68 57 62 100 86 68 48 41 36 50 73 86 80 67 74 74 58
81 100 100 100 100 100 100 93 81 92 100 94 78 80 67 62 64 78 100 100 73 61 100 100 91 93 91 67 64 100 100 100 84 62 51 40 36 43 53 55 100 76 88 92
68 71 90 100 100 100 100 100 100 100 100 100 100 100 100 95 94 100 94 91 92 100 100 100 100 97 72 62 64 100 100 100 86 71 65 54 48 37 37 46 66 99 99 100
88 76 58 71 100 100 100 100 100 100 100 100 98 99 100 98 88 78 83 82 100 100 100 100 96 89 88 66 74 76 81 85 80 68 72 86 82 57 46 46 47 51 72 100
100 98 89 75 63 97 100 100 100 100 100 100 100 100 100 100 100 100 100 93 85 95 87 100 93 84 89 100 100 100 100 100 87 72 75 83 85 87 65 50 52 55 78 97
77 93 100 98 92 78 74 85 98 100 89 86 86 86 84 86 93 100 100 100 100 92 88 80 82 73 100 100 100 100 100 100 72 63 91 94 88 100 100 100 91 58 56 66
59 78 89 100 99 86 86 89 99 98 85 88 93 93 90 95 94 98 98 93 80 82 76 62 60 73 69 89 100 100 100 93 100 100 100 100 90 80 100 100 100 100 80 62
36 78 100 96 100 100 99 83 93 100 100 91 83 86 78 81 86 86 75 70 72 70 64 59 58 63 90 99 100 92 95 100 100 100 100 100 97 78 87 100 100 100 100 96
31 39 62 86 100 100 100 100 100 100 96 93 82 75 72 75 80 73 69 64 68 63 71 65 68 76 76 61 83 97 98 99 100 100 100 98 96 99 99 90 86 80 97 100
26 29 43 52 69 93 100 93 100 99 93 92 88 87 77 74 78 81 74 63 55 49 47 42 39 46 49 53 53 53 55 58 61 64 62 66 68 72 85 88 93 100 100 100
26 28 31 39 51 66 71 91 95 91 95 92 86 72 63 61 58 56 49 44 38 33 34 34 28 27 26 27 28 29 30 30 31 32 33 34 39 47 55 63 85 97 98 96

GFSCGP_250_rhum_060.txt.gz
RH
54 36 37 64 100 100 100 100 100 100 78 56 35 27 41 45 41 41 39 34 41 41 33 35 42 30 29 19 20 100 97 75 56 79 88 100 100 78 88 71 100 94 100 100
96 90 96 100 100 100 100 100 100 100 76 56 35 29 52 47 32 39 43 34 32 31 32 31 40 36 33 27 20 63 100 91 79 100 100 100 100 100 93 100 100 100 100 100
99 100 100 100 100 100 100 100 100 100 80 61 41 39 40 36 28 48 45 36 33 34 37 37 28 39 38 36 24 47 100 100 63 96 100 96 100 100 94 97 100 100 100 100
100 100 100 100 100 100 100 100 100 100 80 72 48 41 30 45 33 44 43 40 42 46 41 39 37 32 30 33 29 23 82 100 95 72 100 85 100 88 100 99 100 100 100 100
94 100 100 100 100 100 100 100 100 100 78 80 58 51 57 43 41 45 66 49 44 49 46 36 40 47 26 32 29 28 25 92 100 95 71 100 100 66 59 100 100 100 98 100
92 100 100 100 100 100 100 100 100 100 81 78 79 70 83 66 40 46 77 68 55 49 60 58 48 54 31 27 33 30 26 26 94 100 97 69 99 100 100 64 96 100 100 100
80 80 95 100 100 100 100 100 100 100 84 82 95 79 100 98 72 51 59 70 57 75 58 64 68 71 42 27 27 30 34 31 24 100 100 100 92 90 100 100 100 77 85 94
100 96 100 100 100 100 100 95 100 100 100 85 92 86 100 99 73 75 83 69 48 99 81 41 71 89 73 35 33 26 32 33 35 28 39 98 100 100 96 100 90 100 100 99
100 100 100 100 100 100 100 99 100 100 100 92 85 87 99 99 100 75 94 100 88 100 100 74 46 89 86 62 31 29 26 31 37 42 40 34 49 100 100 100 100 100 93 89
100 100 100 100 90 99 100 100 100 96 96 96 90 88 98 100 100 92 79 99 100 100 100 100 44 34 62 87 55 28 27 24 31 39 35 39 42 29 68 99 100 100 95 98
100 100 88 87 89 89 100 100 93 97 93 100 100 100 100 98 100 100 100 96 95 100 100 80 50 42 40 100 95 60 25 41 26 28 37 35 40 44 36 30 43 83 100 100
88 100 100 100 100 96 95 100 100 100 100 100 100 100 100 100 100 100 94 100 81 98 99 65 45 38 39 52 100 86 43 23 26 36 28 26 35 39 41 39 37 31 27 29
96 100 100 100 100 100 100 96 100 100 100 96 100 100 100 100 100 100 100 100 90 68 60 62 48 39 35 37 39 100 90 64 32 41 46 31 32 42 42 44 48 43 42 44
99 99 100 100 100 100 100 100 100 100 100 100 87 100 100 100 100 100 100 100 100 99 70 55 48 47 44 50 43 71 100 99 54 41 81 61 45 37 41 75 78 40 45 50
100 100 100 100 86 87 91 100 100 100 100 100 100 85 100 100 100 99 89 100 100 100 94 68 68 60 45 62 56 44 100 100 82 49 67 87 58 44 38 29 39 72 99 80
100 100 94 100 100 100 77 87 100 100 100 100 96 100 100 100 100 98 97 100 100 100 100 100 96 71 65 66 59 88 100 100 79 51 48 100 87 77 66 48 34 34 56 98
100 100 100 100 100 100 100 92 100 100 100 99 82 100 95 97 74 89 100 90 67 99 100 100 100 100 100 99 72 63 100 100 77 70 62 99 100 100 92 63 46 40 37 32
89 100 100 100 100 100 100 100 97 98 100 100 100 100 93 97 95 100 92 90 100 100 100 100 100 98 100 100 79 91 72 85 71 88 59 59 98 100 92 77 61 55 46 38
78 77 97 100 100 100 100 100 99 77 80 92 92 90 84 85 100 100 72 94 99 97 99 97 86 76 99 100 89 91 100 100 100 82 53 42 39 46 67 85 86 57 67 66
78 85 70 88 100 100 100 100 100 100 90 58 74 83 100 100 100 89 84 82 84 80 77 82 99 100 100 100 86 85 100 100 97 76 65 63 100 100 100 100 100 75 54 66
54 81 83 69 97 100 100 100 90 100 100 100 88 72 81 100 100 100 68 73 96 100 100 100 100 100 100 100 99 100 99 85 55 78 78 84 100 100 100 100 100 84 96 100
37 53 80 87 69 91 98 100 100 100 100 100 100 100 100 100 100 100 100 84 93 98 100 100 100 100 100 100 100 100 100 100 98 91 79 94 99 87 87 100 100 100 97 98
21 30 61 81 99 84 66 68 83 99 100 100 100 100 100 100 100 100 100 100 100 98 93 87 76 100 95 99 100 100 100 100 99 82 68 70 75 84 99 100 100 99 86 93
20 21 24 55 94 100 91 87 80 66 64 66 66 76 97 100 99 100 100 99 94 94 99 94 94 88 90 92 90 89 96 99 82 85 77 72 99 100 99 99 100 100 100 98
22 21 25 28 55 86 100 100 100 100 90 79 79 87 84 80 76 75 71 72 72 66 61 56 72 79 80 86 83 82 75 72 70 97 96 89 86 90 89 77 60 65 80 84
19 21 22 25 28 38 73 95 56 78 100 100 97 90 86 80 72 69 72 71 76 72 68 55 53 59 59 52 54 58 57 57 56 58 49 52 53 49 48 48 48 50 56 67

GFSCGP_250_rhum_063.txt.gz
RH
26 23 31 33 33 30 36 32 32 42 76 82 100 100 69 37 46 63 96 83 47 38 30 30 26 22 32 30 24 19 18 64 70 63 69 60 70 84 81 76 79 83 100 90
27 45 65 88 56 32 28 38 35 95 100 100 100 100 56 32 52 64 47 45 34 34 32 32 32 28 26 27 26 24 24 80 76 55 69 78 55 53 48 50 75 53 69 67
32 50 74 98 84 72 30 42 51 100 100 100 100 98 50 37 33 38 44 40 35 33 33 34 40 32 32 27 25 25 30 100 91 62 52 56 52 58 63 70 85 79 65 85
48 55 95 100 100 99 50 74 100 100 100 100 100 97 64 38 31 34 36 40 40 33 33 38 33 38 28 33 22 25 22 70 100 74 52 47 48 98 71 55 91 77 98 100
57 89 100 100 100 96 100 100 100 100 100 100 100 93 68 48 43 42 31 40 30 36 48 43 38 49 44 35 23 26 24 24 92 100 70 54 46 66 100 78 60 100 100 100
66 92 100 100 100 100 100 100 100 100 100 100 100 96 73 53 53 36 27 46 45 40 58 74 41 44 59 53 37 22 24 27 23 94 100 79 64 48 79 100 100 77 100 100
70 81 99 100 100 100 100 100 100 100 97 100 100 97 93 64 54 38 40 60 76 37 40 96 80 56 47 58 54 30 20 28 33 27 94 100 97 70 65 50 52 65 85 99
94 80 96 100 100 100 100 100 100 100 100 100 100 89 100 78 63 49 38 63 70 58 48 55 93 82 63 30 56 61 30 21 24 29 29 85 100 100 93 96 97 76 100 100
100 83 97 96 100 100 100 98 100 77 84 100 100 100 100 96 73 63 77 100 91 73 70 59 100 97 51 35 35 50 60 48 23 20 24 29 36 73 97 100 100 86 99 100
100 100 96 99 99 100 100 100 100 97 94 100 100 100 100 98 86 87 100 92 100 100 100 100 100 100 94 60 37 33 82 64 54 26 20 22 28 28 28 50 100 100 90 71
100 100 100 92 100 100 100 100 100 97 93 100 100 100 100 100 96 93 100 100 100 95 100 100 100 100 74 66 44 42 51 100 78 40 25 22 22 23 30 29 32 55 92 100
97 100 95 93 100 100 100 100 100 100 73 93 100 100 100 100 100 100 92 90 99 83 82 95 97 100 100 92 71 58 55 75 100 56 42 38 28 29 26 32 39 36 32 39
99 100 96 99 100 98 100 100 100 100 100 96 99 100 100 100 100 100 100 89 84 86 99 100 98 91 100 92 87 64 48 46 71 100 85 67 53 38 23 37 30 30 36 39
100 100 96 92 100 100 100 100 100 91 100 100 97 100 100 100 100 100 100 93 78 78 82 82 89 76 64 67 63 59 77 82 77 80 86 92 83 56 41 31 36 26 31 30
100 100 100 100 100 100 100 100 100 100 100 100 100 100 100 100 100 100 100 100 88 100 100 82 58 54 57 64 50 48 56 44 40 80 98 100 100 88 62 36 32 47 41 51
100 100 100 100 83 100 72 94 100 100 81 100 100 100 100 100 100 100 100 100 100 89 100 100 100 84 67 62 75 65 61 51 44 52 53 100 100 100 78 52 58 72 99 88
100 100 100 100 100 92 98 100 100 100 100 100 100 100 100 100 100 100 77 68 79 87 84 100 100 100 70 54 60 81 81 58 58 51 66 79 86 97 95 73 55 58 91 97
100 100 100 100 87 84 100 100 100 100 100 100 100 100 100 100 100 100 100 78 59 81 100 100 100 100 100 100 99 100 94 89 94 74 83 93 76 52 58 39 78 76 56 43
97 100 100 100 100 83 93 100 100 100 100 100 100 100 98 100 100 100 97 96 100 99 100 99 100 100 100 100 95 84 74 81 77 85 92 98 98 81 98 96 89 97 76 64
39 97 100 100 100 88 80 73 100 100 100 100 100 80 84 74 88 99 100 86 81 78 68 66 72 82 79 78 79 68 55 72 80 91 77 67 66 80 61 74 100 96 67 68
22 64 96 100 100 100 91 90 69 80 82 100 100 100 100 100 100 83 65 73 95 96 78 69 71 92 96 92 84 70 57 84 84 93 98 80 80 86 80 84 79 97 90 66
19 22 49 94 87 100 100 100 100 71 73 90 100 100 100 100 100 97 86 83 87 72 71 86 86 78 81 79 86 100 100 100 100 100 98 100 100 100 100 100 100 98 99 89
18 20 34 56 82 100 100 100 100 100 100 97 92 99 100 92 100 100 95 70 96 100 92 79 67 76 95 100 100 99 100 100 100 100 100 100 100 100 100 100 100 96 89 94
22 20 22 44 78 76 97 92 100 100 100 100 100 100 100 100 100 100 100 100 100 100 100 100 100 100 100 100 100 100 100 100 99 100 92 95 96 100 100 100 100 100 100 100
22 24 24 24 38 86 91 96 77 98 100 100 100 100 100 100 100 100 100 100 100 100 100 100 100 100 100 100 100 100 100 97 96 92 100 97 100 100 100 100 100 100 100 99
22 23 22 22 23 30 88 98 86 82 80 88 100 84 90 100 100 100 100 75 84 97 100 100 100 97 94 95 90 89 83 76 64 60 55 53 53 58 65 63 65 60 57 58

GFSCGP_250_rhum_066.txt.gz
RH
50 60 40 35 30 28 20 25 32 33 26 27 36 61 61 96 100 64 57 68 100 86 88 53 29 28 22 23 22 27 22 16 16 27 73 100 100 100 100 100 100 100 100 100
96 85 53 39 35 34 27 40 41 32 29 30 47 57 46 80 100 68 60 70 100 100 79 36 29 30 26 25 26 26 23 22 25 29 49 59 94 100 100 100 100 100 100 100
61 46 38 43 40 55 48 43 40 36 30 35 49 70 60 100 100 61 36 45 98 98 48 32 32 30 34 23 24 21 25 23 59 57 72 52 45 73 86 97 100 100 99 100
45 30 37 50 56 72 87 54 46 37 24 48 51 69 83 100 84 58 33 37 67 55 37 30 35 33 34 33 31 25 23 24 25 73 59 60 49 41 59 73 89 95 100 92
46 39 47 63 84 64 100 78 45 34 29 89 76 87 100 100 89 98 62 44 47 45 40 30 33 36 39 46 44 38 28 21 25 27 71 56 52 48 42 60 61 70 92 87
45 53 52 79 79 96 100 85 96 58 57 83 100 100 80 100 92 66 49 41 43 60 48 33 36 37 38 48 50 46 36 21 24 25 26 60 60 44 40 47 63 61 71 88
52 55 44 72 97 100 100 100 99 84 76 100 100 100 100 100 94 68 47 49 50 77 59 37 37 40 37 43 40 44 47 40 31 22 23 30 78 94 55 47 49 50 49 56
74 50 47 100 100 100 100 100 100 89 91 100 97 100 100 100 97 72 51 46 44 70 48 54 34 45 48 49 43 37 40 54 49 35 28 25 29 91 100 87 58 53 58 81
67 56 49 83 100 100 100 100 100 100 78 100 97 100 100 81 98 80 63 51 51 47 54 47 44 50 45 64 60 42 46 51 57 43 42 28 21 25 27 85 100 100 80 75
62 69 50 84 100 100 100 100 100 100 66 100 100 100 100 82 78 96 73 61 56 53 68 67 46 51 52 99 100 87 48 39 62 73 71 43 32 25 22 22 23 36 72 96
64 70 76 99 96 100 100 100 100 100 98 100 100 94 100 100 72 83 85 70 64 76 100 100 96 94 87 100 100 84 74 52 36 53 93 64 48 40 38 26 23 29 31 36
61 72 71 100 94 100 100 100 100 100 83 100 100 97 99 100 100 100 99 80 80 88 100 100 100 100 100 100 100 97 93 83 61 45 49 79 67 62 57 54 43 30 25 31
67 70 67 100 72 100 100 100 100 100 83 61 100 100 100 94 87 98 89 98 93 100 100 100 100 100 100 100 100 100 100 99 79 73 65 61 76 66 71 77 62 39 35 24
64 67 64 100 97 85 100 100 100 100 100 54 89 100 100 100 99 94 63 54 69 70 95 100 100 100 100 100 100 100 88 75 77 55 53 63 69 74 77 86 90 76 57 42
52 71 72 91 100 97 88 100 80 100 100 96 74 100 100 100 100 100 100 77 76 66 70 87 94 100 100 100 100 100 98 87 80 78 68 67 57 55 68 76 97 100 98 72
55 65 63 72 93 100 100 98 100 100 100 100 100 100 100 100 100 100 98 100 88 100 97 74 70 72 78 79 98 94 84 82 68 64 85 76 68 54 48 69 97 99 100 94
51 56 56 69 92 100 100 100 87 100 100 91 100 100 100 100 100 100 100 100 96 45 72 78 75 71 60 59 64 65 69 72 76 71 82 84 82 74 61 69 69 89 98 78
40 46 52 79 99 98 100 100 100 76 100 97 95 100 100 100 100 100 100 100 100 100 63 64 78 72 64 56 53 53 60 64 61 70 85 96 87 74 79 72 56 75 77 64
40 47 48 87 100 100 100 94 80 100 100 100 100 100 100 100 100 100 100 100 100 100 95 84 100 100 80 70 76 73 65 54 58 63 64 68 87 84 69 62 69 92 90 70
41 47 46 83 100 100 100 87 83 86 100 100 100 93 100 100 100 100 100 100 100 100 100 87 92 100 100 100 100 100 80 68 71 78 82 84 77 77 72 96 100 100 100 90
34 47 48 48 100 100 100 100 82 100 100 100 81 74 91 99 100 100 100 100 100 100 100 84 68 56 67 74 83 92 96 98 82 74 66 66 64 68 71 100 100 100 94 82
32 41 46 36 86 100 100 100 100 76 100 100 100 81 100 100 100 95 82 92 96 100 100 100 94 84 81 82 87 83 77 76 70 61 54 57 62 79 97 100 100 100 100 100
29 30 38 40 44 100 100 100 100 87 74 96 100 97 98 100 100 100 100 100 100 100 100 95 100 98 89 88 88 93 94 76 73 72 69 62 72 80 90 100 100 100 91 99
22 23 29 36 35 70 100 100 100 100 85 84 81 88 100 100 100 100 100 100 100 100 100 100 91 83 83 87 76 65 71 80 80 73 62 78 89 100 100 86 93 94 96 100
21 21 25 28 32 32 83 100 100 100 100 100 86 71 86 99 98 100 100 89 97 100 100 100 100 100 100 100 100 98 81 74 73 84 100 100 100 100 100 100 100 100 100 100
24 25 22 24 24 30 29 76 100 100 100 100 100 88 68 65 72 69 73 81 80 88 94 97 94 85 77 70 83 95 100 100 100 100 100 100 100 100 100 100 100 90 90 89

GFSCGP_250_rhum_069.txt.gz
RH
100 100 100 91 72 36 39 50 37 25 21 14 21 28 24 25 28 30 43 69 86 93 61 69 98 89 60 29 22 23 25 26 20 17 16 29 55 100 100 100 98 100 100 97
100 100 98 83 65 85 67 40 33 23 17 19 28 31 29 35 46 42 75 81 86 61 58 93 95 81 38 24 19 25 23 26 22 26 21 28 60 100 100 100 100 100 100 100
100 100 84 95 82 64 39 43 35 31 14 27 34 38 31 36 52 70 68 83 67 49 54 100 98 76 27 26 24 24 25 24 24 22 54 38 61 99 100 100 100 100 100 100
100 100 100 76 77 51 42 40 36 25 20 35 43 39 41 85 69 69 87 88 60 42 46 99 100 41 28 28 32 31 34 23 24 25 29 62 61 79 79 90 100 100 100 100
100 85 71 60 63 45 52 41 39 38 28 38 46 44 99 72 94 81 93 100 100 100 80 100 57 31 32 30 33 30 38 26 25 27 22 52 60 52 52 52 52 71 86 99
74 74 69 48 49 52 48 47 60 49 41 38 46 89 100 80 100 100 100 100 100 100 97 69 49 32 32 31 34 34 45 39 30 27 22 21 26 69 59 68 48 49 71 79
79 70 68 58 59 46 48 52 63 46 33 50 50 100 100 100 100 100 80 78 100 100 100 85 47 38 30 33 35 36 50 57 49 39 32 26 22 36 79 72 59 56 66 94
69 59 62 63 49 52 51 58 71 56 65 69 92 100 97 89 95 87 64 58 99 100 100 63 44 45 36 35 38 42 51 53 51 52 50 44 32 24 21 45 87 72 64 66
74 81 61 48 56 63 56 93 89 73 76 83 100 100 100 65 88 88 95 69 91 90 84 46 32 42 42 37 41 55 49 45 39 48 47 51 41 36 32 21 19 28 71 96
74 64 37 44 72 70 71 100 91 81 64 97 100 100 100 63 56 82 97 66 75 100 82 59 39 48 52 48 52 71 77 57 40 40 35 48 50 41 35 33 35 35 31 23
54 47 41 68 69 77 97 100 100 98 71 100 100 100 100 62 60 89 100 74 74 100 86 74 76 75 65 65 66 59 87 74 63 56 43 44 45 56 53 48 44 42 38 36
50 62 58 71 79 72 100 100 100 100 86 100 100 100 100 81 48 92 100 98 94 100 94 82 67 60 59 58 59 58 74 100 92 88 79 54 47 50 51 67 58 52 57 59
49 55 64 85 74 80 100 100 100 100 95 100 100 100 100 100 46 68 99 100 100 100 100 100 100 94 87 96 70 97 100 100 100 91 81 87 74 56 64 72 70 51 41 59
58 62 71 74 76 92 100 100 100 100 82 100 100 100 97 100 90 45 66 95 100 100 100 100 100 100 100 100 100 100 100 100 100 100 88 84 68 63 58 55 52 50 54 51
48 70 86 63 68 92 94 100 100 100 81 100 100 100 100 100 100 87 49 61 96 100 100 100 100 100 100 100 100 96 98 100 100 100 100 89 80 74 67 64 66 59 50 58
39 66 83 60 64 86 85 100 100 100 100 91 100 100 100 100 100 98 65 62 67 93 100 100 100 100 100 100 100 93 100 99 92 99 99 96 79 68 62 62 80 83 69 72
35 42 62 74 59 78 94 78 99 100 100 100 73 98 100 100 100 98 56 62 57 69 73 87 100 100 100 100 100 100 100 100 100 99 85 83 77 82 87 85 97 99 91 89
36 38 42 62 57 67 81 70 74 100 100 100 100 68 70 95 100 100 100 82 46 62 67 95 99 100 100 100 100 100 100 100 98 99 98 91 92 88 74 76 94 100 100 100
36 36 36 48 55 72 75 72 58 94 100 100 100 100 100 88 100 100 100 100 100 93 52 76 81 63 83 85 84 92 95 100 100 88 91 86 90 75 67 72 81 86 88 92
28 35 41 51 57 69 62 63 66 67 100 100 99 95 100 100 94 100 100 100 100 100 100 100 85 47 41 51 55 57 71 69 72 84 85 84 94 91 79 82 90 79 69 84
24 36 40 43 51 65 49 53 65 66 86 100 100 97 100 100 100 100 100 100 100 100 100 100 98 100 87 43 35 37 40 45 50 46 45 47 51 56 58 69 82 87 100 100
28 36 43 39 44 59 45 46 64 65 83 82 93 100 100 100 100 100 100 100 100 100 100 100 100 100 91 83 93 86 50 55 65 65 72 80 81 78 71 81 88 88 85 78
26 30 35 36 35 43 36 40 62 85 82 90 100 100 100 100 100 100 100 89 99 100 100 100 100 97 96 100 99 95 76 74 74 76 84 78 88 96 96 87 86 77 60 62
23 23 26 32 36 39 38 39 48 87 82 80 93 100 100 100 100 97 93 100 100 100 100 100 100 100 99 92 99 100 93 79 77 73 68 66 67 69 74 85 87 78 80 83
23 18 23 30 40 44 46 47 46 94 100 84 76 97 99 86 82 97 100 100 98 95 96 98 86 87 100 100 100 100 100 100 99 83 89 91 91 88 78 71 67 63 55 48
16 19 25 32 38 45 48 53 50 77 100 100 91 80 100 100 93 85 77 93 99 91 82 68 58 77 83 81 94 94 80 75 87 93 82 75 93 82 81 64 73 76 73 86

GFSCGP_250_rhum_075.txt.gz
RH
100 100 100 100 87 100 100 100 100 100 67 86 62 46 77 100 51 38 32 21 16 17 15 20 29 30 54 82 77 78 75 49 32 28 25 21 21 22 18 57 100 100 100 100
100 100 100 100 99 96 98 97 83 64 65 78 95 71 94 94 53 35 29 18 19 18 21 32 31 36 76 94 76 66 62 39 26 28 25 22 21 25 41 100 100 100 100 100
100 100 100 100 100 88 100 100 100 96 91 80 77 63 99 79 53 33 27 22 24 28 36 34 34 44 99 91 61 79 72 32 30 31 27 26 26 31 87 100 100 94 100 100
100 100 100 100 100 100 100 100 80 68 95 87 63 70 100 76 48 33 33 30 32 32 36 38 38 87 100 76 87 86 45 33 30 29 27 28 39 46 66 100 100 98 94 100
100 100 100 100 100 100 100 94 70 64 75 69 91 72 100 60 52 35 39 40 33 35 35 45 44 99 82 79 91 68 52 40 34 28 26 30 59 74 53 100 100 100 87 79
100 100 100 100 100 100 100 89 92 64 77 84 100 66 58 63 49 36 35 45 40 36 34 48 77 96 93 99 99 52 45 46 39 33 32 31 48 95 55 78 100 98 89 62
99 100 100 100 96 100 100 100 80 74 74 73 100 64 61 63 43 44 42 48 41 36 40 78 100 88 97 100 100 59 46 48 46 48 43 34 30 62 98 100 100 100 100 100
100 100 100 100 100 100 100 100 85 64 61 84 84 66 56 68 44 44 47 61 47 42 45 96 100 95 100 97 100 78 47 54 54 55 56 42 33 26 73 94 100 100 100 100
100 100 100 100 100 100 92 88 78 76 78 73 63 63 57 93 51 50 57 100 68 51 69 100 100 98 99 100 93 78 48 56 53 50 49 51 40 36 30 32 81 87 84 88
75 98 98 100 100 100 100 94 83 77 70 60 64 75 59 99 51 62 79 100 100 76 81 100 98 79 98 90 85 67 40 48 51 48 45 48 44 46 44 38 33 35 48 72
59 72 92 95 98 97 100 93 77 65 56 63 80 74 66 98 53 75 100 100 100 96 79 100 80 80 94 100 98 79 46 39 45 47 48 45 44 54 54 42 38 38 41 39
34 80 89 91 86 92 88 82 71 63 64 69 65 70 80 93 71 78 100 100 100 100 80 96 71 87 100 100 100 82 63 47 41 44 51 67 62 56 52 52 45 39 37 37
20 40 76 88 83 95 93 78 69 61 74 79 64 90 72 96 76 87 100 100 100 100 99 87 50 64 98 100 100 100 60 59 52 48 46 59 76 94 94 69 51 50 53 50
17 23 54 71 78 97 99 88 72 77 88 75 70 100 93 100 100 100 100 100 100 100 100 100 59 41 61 100 98 94 90 82 65 52 48 47 51 65 85 100 91 82 97 90
16 18 21 26 40 67 89 81 63 84 69 89 77 100 87 100 100 100 100 100 100 100 100 100 77 60 74 83 100 100 100 97 85 66 52 52 52 53 73 94 96 74 67 74
18 18 15 17 31 45 68 61 56 100 94 93 94 100 100 100 100 100 100 100 100 100 100 100 92 80 84 89 90 100 94 97 100 90 65 54 54 59 65 70 77 71 73 76
18 14 12 13 16 30 50 43 74 100 97 93 96 100 100 100 100 100 100 100 100 96 99 100 100 100 96 76 94 96 100 100 100 97 96 75 63 63 69 80 84 95 80 86
12 14 15 14 15 24 39 45 64 97 97 100 92 100 100 100 100 100 100 92 100 97 94 100 100 100 89 78 95 100 100 100 100 100 98 70 76 68 79 100 100 100 97 87
12 16 19 20 19 24 33 47 56 100 99 100 81 100 100 100 100 100 100 100 100 98 100 100 97 100 100 98 86 86 93 100 95 97 96 95 90 85 92 98 100 98 92 98
16 16 23 25 23 24 29 53 57 99 100 100 90 100 100 100 100 100 100 100 100 98 99 100 100 100 100 100 100 100 100 92 91 87 92 97 97 98 100 96 82 90 83 94
14 18 22 23 20 28 35 47 59 95 93 100 100 97 99 100 100 100 100 100 100 100 100 100 100 100 100 100 100 100 100 100 100 100 100 100 99 84 74 87 98 90 79 83
16 19 20 24 25 24 28 51 71 86 93 99 98 92 82 100 100 100 100 100 100 100 100 100 100 100 100 100 100 100 100 100 100 100 100 100 100 100 94 89 92 91 98 100
16 17 20 24 25 21 23 48 81 83 95 100 100 97 87 90 100 100 100 100 99 99 100 100 100 100 100 100 100 100 100 100 100 100 100 100 95 84 84 97 94 99 93 100
14 17 20 24 25 23 23 38 83 89 86 100 100 98 100 93 98 100 100 100 100 100 93 70 98 100 99 99 100 100 100 98 96 98 100 90 95 99 89 90 95 98 97 92
14 17 20 21 19 22 22 31 59 91 97 98 100 100 100 99 88 86 100 100 100 100 100 100 91 68 72 83 79 75 65 56 50 46 42 41 42 39 42 51 54 42 34 32
14 16 17 17 20 23 24 27 45 63 80 96 99 100 94 94 100 85 78 100 100 100 100 100 100 100 100 97 94 95 95 87 90 99 98 89 75 60 59 60 50 48 58 86

GFSCGP_250_rhum_078.txt.gz
RH
28 27 45 73 81 75 81 100 100 100 100 100 100 100 100 100 100 100 73 51 65 42 32 30 20 16 20 22 33 34 45 56 92 64 86 38 21 17 16 15 12 13 15 38
31 58 82 100 100 96 100 100 100 100 100 100 100 99 100 100 100 68 82 60 52 40 36 23 17 17 20 25 36 41 39 85 79 90 44 25 20 20 17 19 15 16 27 69
30 79 100 100 100 100 98 100 100 100 100 100 100 100 100 96 66 69 70 70 44 35 38 22 20 20 26 35 38 39 57 93 68 71 31 29 22 24 20 23 25 60 92 84
56 73 100 100 100 100 100 100 100 100 100 100 100 94 78 72 65 60 57 49 40 41 26 24 21 25 40 44 39 45 99 69 63 53 35 26 25 27 34 36 52 100 100 100
63 91 98 100 100 100 100 100 100 100 100 100 100 94 100 82 67 53 51 43 41 45 29 26 24 40 46 46 63 92 78 65 49 36 38 29 30 53 58 80 87 100 91 97
79 90 100 100 100 100 100 100 100 100 100 100 100 100 84 68 66 56 54 45 48 40 30 28 32 51 54 60 95 100 78 59 37 46 33 30 38 73 77 95 92 100 98 100
89 92 100 100 100 100 100 100 100 100 100 100 100 86 85 80 72 59 51 51 49 39 34 32 46 53 55 99 100 85 83 69 45 44 40 38 32 61 97 82 100 100 100 100
58 97 98 100 100 100 100 100 100 100 100 100 100 83 78 75 68 48 61 58 52 45 37 37 50 52 82 100 100 94 82 77 50 50 54 47 38 33 91 60 100 100 100 100
34 59 95 98 100 100 100 100 100 100 100 100 100 95 82 79 64 63 59 53 59 51 41 46 51 57 100 100 100 100 96 93 58 49 60 59 43 30 40 95 83 100 100 100
31 38 66 95 99 100 100 100 100 91 100 100 100 84 77 73 69 72 57 52 61 48 45 46 51 53 100 100 98 100 100 94 67 49 53 60 55 36 33 29 76 100 100 100
29 34 39 74 91 90 100 100 100 100 100 97 96 84 69 63 69 73 55 66 62 47 68 45 54 67 100 100 94 100 100 93 61 47 41 49 57 55 48 38 29 38 63 90
19 28 35 48 74 93 97 100 97 95 100 97 88 74 54 64 76 55 55 86 64 52 99 45 58 90 100 98 95 97 100 100 78 48 36 41 52 61 64 56 38 33 38 37
13 16 31 40 47 82 100 100 96 100 97 85 80 79 59 71 65 57 62 88 63 71 100 61 59 100 100 99 100 100 100 100 90 55 46 41 49 49 44 49 52 49 41 42
12 14 20 28 35 45 71 94 100 100 100 92 80 75 71 88 64 56 84 92 82 100 100 86 70 99 100 96 96 100 100 100 99 88 56 41 40 51 61 62 49 52 50 46
15 14 16 20 27 35 51 70 84 94 98 92 71 61 82 90 78 79 90 98 99 100 100 87 71 90 100 100 100 100 98 100 96 96 72 49 46 47 52 64 75 90 95 98
15 17 16 18 21 16 28 48 86 90 87 84 67 75 84 72 100 97 93 97 100 100 100 100 80 87 100 100 100 100 100 100 97 89 84 65 61 53 51 49 48 56 60 71
14 16 17 16 15 10 21 29 55 92 91 76 65 86 94 89 100 100 100 100 100 100 100 99 100 100 100 100 100 100 95 100 100 100 79 72 51 50 55 52 51 56 64 71
9 10 14 15 14 14 17 21 37 74 81 80 79 87 100 100 100 100 100 100 100 100 100 100 100 100 100 100 100 100 100 100 100 100 74 66 63 56 57 56 55 65 65 71
8 8 11 11 18 19 16 16 23 40 53 60 79 90 100 100 100 100 100 100 100 100 100 100 100 100 100 100 100 100 100 100 100 100 85 84 88 91 75 51 48 56 60 65
7 8 12 14 24 25 23 19 20 30 43 55 88 96 100 100 100 97 100 100 100 100 100 100 95 100 100 100 100 100 100 100 100 100 90 82 100 100 96 66 48 52 79 89
6 10 12 18 24 27 25 20 19 28 42 62 76 96 100 100 100 100 100 100 100 100 100 100 98 96 98 100 100 100 100 100 100 99 100 100 100 100 93 88 92 97 100 99
9 14 17 23 23 27 26 22 22 28 39 55 74 99 100 100 100 100 100 100 100 100 100 100 97 82 77 81 89 98 100 100 100 100 100 100 100 100 98 100 100 99 95 84
12 15 19 19 23 26 25 21 22 28 42 54 84 100 100 100 100 100 100 100 100 100 100 100 100 100 90 76 84 91 100 100 100 100 100 100 100 100 100 99 100 100 100 95
12 16 19 18 20 21 22 21 22 25 45 57 88 100 100 100 100 100 100 100 100 100 100 100 100 98 92 94 100 100 100 100 100 100 100 98 98 100 100 100 100 100 100 100
15 17 19 19 17 16 22 26 28 28 47 60 79 100 100 100 100 100 100 100 100 100 100 100 100 100 100 100 93 89 99 100 100 100 100 100 100 100 100 100 100 100 100 100
15 16 17 17 15 15 20 26 29 35 48 71 78 97 99 98 100 100 100 100 100 100 100 95 100 100 100 100 100 100 100 98 98 100 100 100 100 100 100 100 100 100 100 100

GFSCGP_250_rhum_081.txt.gz
RH
37 27 21 17 16 17 20 22 24 31 32 35 53 81 100 100 100 100 100 100 100 100 100 100 85 57 38 32 36 28 19 22 24 44 85 100 96 72 48 48 40 24 17 15
27 21 19 20 20 21 22 22 37 41 33 50 100 89 97 100 100 100 100 100 100 100 100 100 72 45 32 29 26 19 19 24 28 54 93 100 87 58 52 25 17 14 14 13
20 23 24 22 26 24 25 39 70 83 71 70 84 77 100 100 100 100 100 100 97 98 98 75 47 40 30 25 19 16 21 23 34 79 100 100 70 36 23 18 15 14 15 15
17 24 26 22 28 32 60 64 93 100 100 93 97 99 100 100 100 100 100 100 100 87 74 49 42 33 31 23 17 20 23 29 55 94 100 94 45 26 22 20 16 17 17 15
16 21 26 24 24 44 100 91 100 100 100 98 100 100 100 100 100 100 100 100 96 87 64 49 37 33 28 20 22 23 27 41 82 100 100 61 38 24 22 26 23 26 34 57
18 19 24 29 36 57 92 100 100 100 100 100 100 100 100 100 100 100 100 100 90 78 52 42 34 35 29 24 24 28 50 65 100 100 89 41 34 24 29 34 47 41 79 94
19 19 22 35 52 69 91 100 100 100 100 100 100 100 100 100 100 100 100 100 87 65 42 40 38 35 29 27 32 47 71 97 100 100 56 36 28 26 42 68 65 82 100 100
19 18 20 36 65 73 100 100 100 100 100 100 100 100 100 100 100 100 100 99 74 60 47 45 36 33 33 30 53 80 94 100 100 99 49 35 29 30 35 88 88 100 100 88
20 20 21 29 60 73 100 100 100 100 96 100 100 100 100 100 100 100 100 97 78 56 52 39 40 36 33 43 76 91 100 100 100 88 57 36 32 31 32 80 85 100 100 100
22 21 20 27 46 72 89 100 100 100 100 100 100 100 100 100 100 99 96 96 70 52 50 42 42 40 39 64 91 98 100 100 100 86 74 46 40 38 39 40 99 100 100 100
18 17 22 27 31 51 80 100 100 99 100 100 100 100 100 100 100 100 100 98 70 52 46 45 42 41 45 89 99 100 100 100 100 71 72 54 48 52 42 41 48 100 100 100
12 12 16 20 28 36 73 86 100 100 100 100 100 100 100 100 100 100 100 85 60 56 49 43 42 46 61 87 100 100 100 100 100 79 59 68 56 57 46 39 42 51 100 100
11 11 12 13 22 31 52 90 95 98 100 100 100 100 97 98 98 96 90 76 65 53 50 46 41 48 60 74 98 100 100 100 100 100 55 57 60 57 55 47 38 40 44 85
14 15 13 13 18 26 36 58 98 93 100 100 100 100 100 78 75 87 88 70 58 51 53 52 47 47 60 61 77 100 100 100 100 100 80 66 54 58 52 55 52 43 38 34
13 16 15 14 14 23 36 47 86 86 91 100 99 100 93 88 94 84 72 64 51 53 72 63 58 50 60 66 82 100 100 100 100 100 92 92 76 59 53 49 55 56 53 50
11 13 12 16 16 16 24 26 47 80 100 100 100 95 88 86 92 81 90 57 62 81 90 84 80 89 74 92 95 100 100 100 100 100 100 97 93 90 89 50 38 53 73 73
10 13 13 15 16 17 19 24 37 65 96 99 100 90 96 97 94 90 93 57 90 100 100 100 100 100 79 89 100 100 100 100 100 100 92 100 95 91 94 89 52 38 48 63
9 12 14 17 17 18 17 17 20 41 60 94 95 100 98 96 95 92 84 69 100 100 100 100 100 100 95 87 100 100 100 100 100 100 100 100 100 100 100 99 76 45 43 42
7 11 15 16 14 18 17 14 15 24 52 74 90 91 86 94 85 93 89 77 100 100 100 100 100 100 100 100 100 100 100 100 100 100 100 100 100 84 79 84 67 55 52 50
6 8 10 8 11 13 17 16 19 25 38 67 89 92 85 85 78 97 94 83 100 100 100 100 100 100 100 100 100 100 100 100 100 100 100 100 100 90 92 78 70 62 54 42
6 6 7 7 12 17 20 18 22 21 25 44 90 99 80 75 88 100 100 84 100 100 100 94 100 100 100 100 100 100 100 100 100 100 100 100 100 100 99 92 76 77 89 100
7 6 6 9 18 22 23 22 26 24 21 29 49 83 64 72 97 100 100 98 100 100 100 100 100 100 100 93 100 100 100 100 100 100 100 100 100 100 100 88 96 100 100 100
7 7 7 11 19 25 26 29 29 30 25 24 29 43 60 78 93 100 100 100 100 100 100 100 100 100 100 100 100 100 100 100 100 100 100 100 100 100 100 100 100 100 100 100
6 7 8 13 18 24 26 29 27 27 24 22 22 32 51 82 89 100 100 100 100 100 100 100 96 100 100 100 100 100 99 100 100 97 100 100 100 100 100 100 100 95 100 100
7 8 10 15 21 24 26 28 25 23 23 21 20 37 59 66 95 100 100 100 100 93 100 100 100 100 100 100 100 100 99 100 100 100 100 100 98 98 99 100 100 100 100 100
9 12 16 20 20 21 17 18 21 25 27 22 23 35 58 60 91 100 100 100 100 100 79 100 100 95 100 100 100 100 100 100 88 93 99 98 100 100 100 99 96 99 100 100

GFSCGP_250_rhum_084.txt.gz
RH
96 77 83 85 60 38 29 20 15 16 14 13 14 20 26 31 37 43 56 58 100 100 100 100 100 100 100 78 72 98 97 76 62 38 26 24 26 32 61 93 98 94 67 56
84 99 72 38 38 26 20 17 15 15 15 13 18 22 25 40 52 52 56 88 100 100 100 100 100 100 98 86 50 93 95 72 47 30 25 25 32 46 85 92 99 74 59 48
80 57 31 28 28 20 17 15 15 16 18 18 23 22 26 42 54 51 66 80 80 100 100 100 100 100 91 100 100 96 68 41 37 26 26 28 37 74 90 94 91 67 49 38
50 36 24 19 19 17 15 16 17 20 20 24 25 33 65 61 66 73 97 98 100 100 100 100 100 100 90 80 66 52 42 41 26 22 27 35 61 93 90 92 74 55 30 21
30 27 22 20 16 15 16 17 21 24 22 27 100 45 100 94 98 100 100 100 100 100 100 100 100 99 80 72 57 45 42 28 23 26 33 54 94 98 92 82 44 20 16 15
30 23 20 20 18 18 20 21 24 28 37 56 98 64 100 100 100 100 100 100 100 100 100 100 100 83 68 59 54 41 32 32 28 35 49 91 100 99 82 36 21 21 17 18
23 22 22 18 17 19 22 24 25 30 64 87 98 100 99 100 100 100 100 100 100 100 100 100 93 90 58 60 47 35 31 32 35 48 86 100 100 94 50 21 24 28 32 33
22 23 18 13 25 20 21 24 33 46 86 100 100 84 100 100 99 100 100 100 100 100 100 100 100 86 53 41 42 35 30 32 45 87 100 100 100 70 29 24 32 55 55 47
18 18 19 16 23 19 21 27 40 68 88 96 100 100 100 100 98 100 100 100 100 100 100 100 70 45 41 47 43 35 32 38 80 94 100 100 90 44 27 29 34 89 80 69
18 16 20 17 19 21 21 28 61 97 100 100 100 100 100 100 100 100 100 100 100 100 100 77 69 52 60 66 48 33 43 70 92 100 100 100 64 34 34 29 30 81 100 100
22 18 23 15 20 23 21 30 54 89 98 100 100 100 100 100 100 100 100 100 100 100 100 86 81 67 77 84 57 74 50 83 100 100 100 96 44 36 42 32 29 76 100 100
19 19 16 15 16 20 19 28 46 70 100 100 100 100 100 100 100 100 100 100 100 100 90 95 85 61 76 85 73 100 97 96 100 100 100 90 45 44 51 46 32 52 92 100
14 13 12 12 12 17 16 30 40 64 100 100 100 100 100 100 99 100 100 100 100 100 100 97 77 54 58 76 88 100 100 93 100 100 100 98 62 51 62 56 49 32 58 98
10 12 12 12 15 14 15 26 32 40 83 100 100 100 100 100 100 100 92 100 100 100 100 99 71 58 53 56 80 100 99 100 100 100 100 100 80 59 68 58 58 54 42 52
8 9 10 12 12 14 14 17 26 48 81 99 100 100 96 100 100 100 100 100 100 100 93 67 58 69 56 58 62 93 98 100 100 100 100 100 94 84 66 66 63 58 51 48
5 6 6 10 12 13 14 19 30 31 94 84 85 86 89 100 100 100 100 100 100 76 66 63 68 58 55 60 49 71 88 100 100 100 100 100 89 88 85 63 61 63 58 51
5 6 8 11 9 11 17 24 24 40 73 36 57 82 100 100 100 99 100 100 92 77 64 66 56 53 81 71 50 56 68 92 100 100 100 100 93 100 100 99 82 60 53 58
5 5 7 9 10 13 24 21 22 29 28 37 47 88 97 100 100 100 100 98 88 70 74 66 92 99 98 94 64 54 64 91 100 100 100 100 100 99 100 100 100 90 75 54
5 5 6 9 14 22 20 21 24 20 18 40 62 71 83 100 100 100 100 100 99 73 77 89 100 100 100 99 100 66 64 75 100 100 100 100 100 100 100 100 100 100 100 82
6 7 7 10 17 25 13 20 26 22 23 38 38 56 76 90 98 96 99 99 97 72 76 100 100 100 100 100 100 92 95 100 100 100 100 99 100 100 100 100 100 100 89 76
6 8 9 11 14 18 10 15 22 19 24 26 28 49 77 83 100 100 100 100 94 79 92 100 100 100 100 100 100 100 100 100 100 100 100 98 100 100 100 100 100 100 100 100
8 9 9 9 9 9 6 11 17 18 22 25 28 48 71 78 96 99 100 100 91 92 94 100 100 100 100 100 100 100 100 100 97 95 100 100 96 99 100 100 100 100 100 100
8 8 9 9 7 8 10 14 19 19 23 28 27 38 65 71 82 98 96 100 92 87 94 100 100 100 100 100 100 100 100 100 100 100 100 100 99 100 100 100 100 100 100 100
6 8 9 8 8 8 13 22 25 25 28 34 30 29 47 69 82 99 100 99 94 89 95 100 100 100 100 100 100 100 100 100 100 100 93 99 100 99 100 100 100 100 100 100
7 7 7 8 10 10 16 24 26 28 30 33 31 28 30 50 71 99 100 86 99 99 97 100 100 100 100 100 100 100 100 100 100 97 97 100 100 100 100 99 95 100 100 100
7 8 8 9 11 14 24 25 24 20 21 26 29 30 28 34 56 68 96 84 96 100 100 96 100 100 100 100 100 100 100 100 95 100 100 100 100 100 100 92 92 99 100 100

GFSCGP_250_rhum_087.txt.gz
RH
75 50 69 97 100 98 79 84 75 46 23 15 16 14 13 13 15 16 15 17 24 26 33 40 60 61 92 100 95 100 100 100 100 96 79 45 78 95 62 34 25 26 41 66
75 100 100 94 87 67 74 71 57 24 17 14 14 12 13 15 14 18 19 22 29 34 40 47 55 88 93 100 100 100 100 100 99 69 34 88 100 80 48 28 27 34 44 63
99 100 85 65 72 90 84 65 30 17 15 15 11 11 14 18 19 20 27 27 36 36 41 47 62 98 100 100 100 100 100 74 46 52 97 97 68 52 32 27 30 52 62 73
84 85 90 93 85 71 66 39 20 15 14 14 12 12 19 21 22 31 38 36 52 48 51 52 85 100 100 99 84 100 90 92 100 100 90 55 50 40 25 31 46 54 75 81
70 84 78 82 76 61 39 20 17 15 14 14 14 11 70 32 53 41 52 68 64 50 53 58 97 79 94 100 100 100 100 98 92 82 47 46 44 24 29 35 52 80 85 79
96 79 69 68 63 46 29 21 14 14 12 17 15 17 54 54 71 86 72 92 81 80 89 83 100 100 100 99 73 100 100 100 98 66 46 38 29 26 32 48 85 84 70 70
76 76 88 67 40 31 22 18 14 17 15 21 23 24 58 100 92 100 100 100 100 100 99 100 100 100 98 100 100 100 100 94 56 50 39 34 27 32 41 81 91 64 72 34
84 75 63 47 36 29 22 18 15 17 19 22 29 43 99 100 100 100 100 100 100 100 100 100 100 100 100 94 94 92 55 68 69 64 43 30 31 42 91 95 66 64 27 21
53 47 57 37 25 22 20 19 17 20 20 24 34 52 100 100 93 100 100 98 100 100 100 100 100 100 98 94 57 62 81 56 67 67 45 43 40 97 100 69 69 30 27 30
52 25 29 26 22 18 20 20 19 20 22 26 46 71 100 100 97 83 100 100 100 100 100 100 100 100 99 94 100 100 93 96 82 69 49 55 97 100 95 72 42 28 39 46
24 18 24 28 20 20 21 22 20 20 23 25 62 84 94 100 100 98 100 100 100 100 100 100 100 100 95 90 96 96 99 87 100 47 58 84 100 100 84 67 32 28 38 58
20 14 11 23 27 22 22 21 18 20 26 30 77 100 100 100 100 82 100 100 100 100 100 100 100 100 98 78 61 78 76 100 100 39 67 99 100 100 88 41 37 35 38 61
17 12 14 20 27 17 16 19 17 20 24 36 82 100 100 99 100 100 70 100 100 100 100 100 100 100 87 56 44 52 75 98 95 68 99 100 100 100 96 41 46 45 42 51
13 17 16 16 17 12 13 15 15 19 27 44 83 100 100 97 95 100 100 77 95 100 100 100 100 100 75 58 68 51 57 87 100 100 100 100 100 100 96 42 59 60 57 40
15 15 10 10 12 10 10 14 15 15 25 28 66 93 100 100 94 100 96 100 96 100 100 100 100 100 83 96 84 54 62 91 100 100 100 100 100 100 99 48 58 70 71 60
10 11 9 9 8 8 11 15 16 15 22 30 46 90 100 100 100 94 98 100 100 100 97 100 100 100 100 79 93 93 60 71 100 100 100 100 100 100 100 67 47 51 69 70
10 8 7 7 7 7 10 17 18 17 20 29 52 64 100 95 100 100 85 80 84 99 100 100 100 100 100 88 84 74 61 64 100 100 100 100 100 100 100 98 53 51 62 66
7 7 6 5 5 7 14 13 18 17 22 43 93 59 83 75 82 100 100 99 98 94 100 100 100 100 94 74 61 63 59 67 100 100 100 100 100 100 99 100 97 90 86 79
7 6 6 5 6 7 9 14 20 18 21 32 42 28 34 77 82 96 98 100 100 100 100 100 100 91 63 61 69 61 67 84 100 100 100 100 100 100 100 100 100 100 100 88
6 6 6 6 7 9 12 18 24 23 22 24 31 31 27 57 90 89 98 94 100 100 100 99 93 87 71 70 77 94 93 100 100 100 100 100 91 100 97 100 100 100 100 100
6 6 7 7 10 11 11 12 20 24 27 26 24 27 27 41 66 93 99 98 100 100 100 96 94 71 76 76 100 100 100 100 100 100 100 100 94 100 100 100 100 97 100 100
7 8 8 8 9 10 10 10 15 20 24 19 20 23 24 37 44 73 92 100 100 97 100 93 94 75 75 100 100 100 100 100 100 99 100 96 98 100 99 99 100 100 100 100
7 7 7 8 9 9 8 8 8 15 19 16 17 20 23 36 40 62 88 99 100 100 100 94 86 77 86 100 100 100 100 100 100 100 100 100 100 100 100 100 100 100 100 100
8 8 8 7 6 7 7 7 9 16 20 24 20 23 23 26 38 61 68 84 95 100 100 95 82 79 100 100 100 100 100 100 100 99 100 100 100 100 100 100 100 100 100 100
9 10 9 8 8 9 10 9 12 13 20 27 27 27 30 31 43 58 66 73 86 96 99 98 95 87 100 100 100 100 100 100 100 100 100 100 100 91 100 100 100 100 92 100
10 10 10 10 12 13 12 12 16 20 25 31 36 34 35 37 38 45 61 68 72 87 95 99 99 87 99 100 100 100 100 100 100 100 100 100 100 100 100 87 100 100 100 100

GFSCGP_250_rhum_090.txt.gz
RH
100 100 100 99 49 41 63 84 93 98 100 79 89 60 63 42 19 14 14 12 13 14 14 16 19 20 22 28 35 50 68 81 100 100 100 100 100 99 100 92 77 49 86 65
100 100 83 61 43 56 73 91 100 85 76 79 67 59 57 26 14 12 12 13 12 13 16 17 17 17 20 23 35 49 74 91 100 100 100 100 92 68 97 77 50 66 68 50
93 97 78 51 53 66 83 100 100 100 89 70 52 44 30 17 11 12 12 11 14 16 17 17 18 20 26 26 33 64 68 99 94 91 100 100 75 84 62 48 56 61 48 36
71 57 48 59 92 94 100 100 100 73 64 54 51 20 28 11 13 12 11 16 18 21 19 20 21 26 33 39 58 74 97 100 92 100 100 90 73 46 93 76 53 49 44 29
74 65 74 99 100 100 100 100 100 99 63 42 51 13 21 12 13 13 19 22 27 30 26 25 26 36 51 59 100 100 99 96 100 91 80 67 55 84 84 58 51 41 29 31
71 88 99 100 99 92 98 98 80 63 48 44 24 14 16 15 16 20 34 36 45 29 37 37 38 43 78 100 100 91 94 100 78 73 63 46 78 100 83 60 40 27 30 36
100 100 92 94 98 84 76 74 59 49 44 25 17 15 16 19 21 35 72 69 61 74 79 60 61 68 100 100 96 64 65 42 43 40 45 85 84 65 61 57 24 29 38 49
100 100 100 100 93 81 63 47 45 38 23 18 15 17 19 25 27 60 83 87 95 82 95 76 79 99 100 92 67 100 100 100 98 87 94 97 99 69 61 27 27 38 68 98
100 100 100 80 76 71 59 54 43 27 20 16 15 20 25 30 66 93 99 100 100 86 88 100 100 100 100 66 51 70 66 80 100 100 97 100 86 66 28 30 38 69 100 100
89 85 74 78 65 61 56 44 29 21 16 16 19 23 30 38 81 87 100 100 100 100 100 100 100 100 91 75 63 64 88 98 100 100 93 79 70 39 32 40 62 100 100 98
48 43 45 57 48 40 33 30 23 17 14 20 21 28 40 78 68 97 100 72 100 100 99 100 100 100 99 69 84 99 92 82 86 77 68 95 90 48 42 67 100 100 100 77
44 41 36 44 48 39 28 20 21 16 20 22 21 34 83 98 100 94 100 68 98 100 100 100 100 100 72 100 100 76 98 98 100 100 92 100 100 83 52 84 100 100 88 44
52 30 18 18 30 44 25 18 21 19 20 21 22 43 68 100 100 100 99 95 90 100 100 100 100 100 94 100 100 72 100 100 100 100 98 100 100 100 71 95 99 99 77 33
40 27 13 11 19 27 24 21 21 18 18 18 26 33 56 100 100 100 94 74 86 100 100 100 98 100 100 100 98 69 94 100 100 100 100 100 100 100 86 95 92 100 65 39
22 22 14 14 18 21 18 16 16 14 15 17 28 53 66 90 100 100 100 72 70 100 100 100 100 100 100 100 100 93 100 78 98 100 100 97 98 100 99 90 99 100 60 45
15 19 18 17 12 11 12 14 14 14 13 18 22 24 45 82 92 100 88 87 65 96 100 100 100 100 100 100 100 100 100 74 67 78 100 100 96 100 100 91 80 100 69 53
18 14 10 11 9 10 10 10 11 11 13 17 17 19 49 57 53 86 86 100 72 99 99 78 85 90 95 100 100 100 89 62 62 83 70 83 78 100 100 87 71 94 88 62
12 9 10 9 8 7 7 7 8 9 13 20 21 20 35 57 51 50 77 78 100 100 100 100 98 89 100 87 94 96 72 66 60 69 80 90 65 83 100 96 59 94 100 68
15 12 8 7 6 5 6 7 8 9 11 19 24 20 27 48 55 66 57 78 76 89 100 100 100 100 100 100 97 96 82 63 62 54 73 67 68 67 100 100 72 73 100 100
9 8 7 6 6 6 7 8 8 10 14 19 27 26 24 34 54 84 81 74 76 91 100 100 100 100 93 100 100 100 67 64 67 69 67 59 58 99 96 100 94 76 100 100
8 7 7 6 6 6 6 9 9 10 14 19 26 26 24 22 33 72 77 87 86 80 99 100 100 100 84 93 100 100 70 54 56 63 62 57 72 97 100 100 100 81 78 99
8 8 7 6 6 6 8 9 12 15 16 19 28 27 27 25 22 35 82 76 86 90 97 99 97 99 89 99 95 72 60 63 66 72 79 84 98 100 100 100 100 100 90 94
9 8 7 8 8 9 8 8 10 16 20 22 24 25 24 23 24 23 42 77 82 93 100 100 100 100 100 100 100 98 94 79 91 86 99 95 100 100 100 100 99 100 100 100
9 8 9 10 9 9 10 10 12 15 17 20 20 23 25 24 24 25 26 49 75 93 97 100 100 100 100 100 100 99 100 100 98 96 94 100 100 100 100 100 100 100 100 100
10 10 10 12 11 12 11 11 9 10 11 14 18 22 22 23 24 24 25 31 63 84 88 99 100 100 100 99 100 99 97 95 90 100 100 100 100 100 100 100 100 100 100 100
10 9 10 11 14 15 14 13 10 14 16 21 24 28 27 27 26 27 33 32 40 59 90 84 94 100 99 96 100 99 97 90 96 100 100 100 100 100 100 100 100 100 98 100

GFSCGP_250_rhum_096.txt.gz
RH
63 71 84 94 90 85 91 91 99 86 70 66 76 93 85 96 84 81 91 77 67 53 51 42 50 71 66 29 23 21 18 19 17 14 14 18 32 34 50 85 99 82 68 87
54 58 85 82 84 88 90 80 96 88 74 73 68 82 100 100 87 95 80 64 60 56 51 40 36 39 27 19 18 17 14 13 14 14 16 16 22 31 45 66 75 48 83 100
61 69 87 86 92 88 94 100 100 95 94 82 70 74 86 85 90 79 62 63 54 49 40 40 32 21 19 14 12 11 11 12 13 15 15 16 19 28 55 72 73 76 81 100
52 63 90 100 99 97 95 100 100 100 96 95 77 74 86 89 87 75 66 52 44 38 29 21 19 16 11 10 9 10 11 12 13 15 14 18 20 29 52 78 75 99 100 100
64 64 73 79 97 80 85 79 86 89 87 80 76 65 77 80 70 59 50 44 38 31 28 21 15 12 9 10 10 11 11 12 16 18 20 21 26 30 56 57 100 76 99 100
62 74 74 81 98 88 84 84 74 68 71 67 70 63 66 63 48 44 42 33 26 22 22 16 14 10 11 13 13 14 14 15 17 21 21 26 30 39 55 60 100 100 100 99
70 69 70 76 83 73 68 71 83 77 73 65 53 49 53 53 55 51 46 36 18 19 20 16 12 14 16 16 15 16 14 16 18 18 24 36 46 51 60 96 92 87 79 68
77 76 70 81 84 74 64 62 67 75 68 57 57 50 62 64 57 51 56 35 20 20 18 15 16 19 21 19 19 18 21 26 24 26 37 49 80 79 71 65 62 66 92 92
74 71 69 71 72 74 70 58 65 62 59 55 61 70 71 58 56 62 47 32 19 18 19 16 23 36 25 27 26 31 55 52 59 66 57 71 99 99 96 100 100 100 97 89
72 65 68 69 70 65 63 60 63 62 59 64 72 69 69 79 70 51 53 27 20 20 18 23 45 53 46 39 35 47 70 79 77 78 78 82 86 100 99 100 100 100 100 88
65 70 74 74 75 67 68 73 81 83 72 62 67 67 80 61 51 50 43 28 24 21 25 50 72 71 70 49 50 76 99 100 99 89 97 91 100 100 100 100 100 100 97 58
75 87 93 95 71 76 87 83 70 72 74 66 62 58 56 49 43 38 33 27 27 22 37 63 83 95 74 64 87 93 100 100 100 100 100 100 100 100 100 100 100 100 99 46
91 87 92 91 79 80 81 93 79 61 50 54 33 35 36 36 36 25 25 24 27 29 71 69 95 96 72 98 100 86 100 100 100 100 100 100 100 100 95 100 100 100 100 55
97 90 94 92 96 99 98 84 55 43 36 31 31 32 43 26 31 19 23 26 29 40 82 88 100 99 100 100 100 100 100 100 100 100 100 100 100 100 100 100 76 100 100 65
92 90 90 84 68 62 52 52 46 39 35 25 36 19 44 24 19 20 25 28 31 42 82 100 100 100 100 100 100 100 100 100 100 100 83 97 100 91 70 51 47 43 92 82
79 94 82 68 64 58 39 35 35 33 26 13 13 26 22 19 18 26 25 23 28 38 91 100 100 100 100 100 89 100 100 100 100 94 75 85 71 55 83 100 100 99 72 100
93 78 74 63 40 24 26 26 20 16 17 13 18 28 19 21 23 30 26 25 27 39 72 88 100 99 100 100 95 100 100 100 100 98 100 99 68 90 86 100 100 100 76 93
84 65 45 32 29 24 20 23 20 18 17 15 15 18 16 18 22 30 24 22 24 35 50 95 92 100 100 100 100 100 100 100 100 100 100 100 93 100 100 100 100 100 100 65
44 25 22 26 30 23 19 16 13 12 12 12 12 12 13 16 19 21 21 20 21 37 55 100 84 100 100 100 100 100 99 100 100 100 100 88 96 100 100 100 100 100 100 100
27 27 26 21 18 15 12 10 10 10 9 9 11 14 18 18 17 19 22 19 21 36 62 87 92 97 100 100 100 100 100 100 100 100 100 82 60 100 100 100 100 100 100 100
26 22 20 14 14 14 11 8 8 8 8 9 10 12 15 20 23 23 22 20 33 40 50 85 100 93 100 100 100 100 100 100 100 100 100 100 100 100 100 100 100 100 98 99
20 16 16 15 12 9 8 8 7 7 8 9 11 13 18 22 24 21 19 20 35 46 70 69 92 100 98 100 100 100 100 98 100 100 100 100 100 100 100 100 100 100 100 100
17 19 14 10 11 9 8 7 8 8 9 10 11 14 16 16 21 23 21 20 26 50 57 71 67 97 100 100 100 100 94 100 82 100 100 100 100 100 100 100 100 100 100 100
20 16 11 10 11 9 8 8 9 9 10 12 13 18 21 19 18 20 21 20 22 40 71 78 76 94 96 95 100 96 97 100 100 88 97 100 100 100 100 100 100 100 100 100
16 13 12 10 12 9 8 9 11 11 12 14 16 19 23 21 24 23 26 25 23 23 35 58 81 71 73 82 77 83 98 89 98 100 100 100 100 100 100 100 100 100 97 88
14 13 14 11 10 9 9 10 13 16 15 16 16 15 17 19 20 20 20 27 26 25 22 28 42 52 72 86 90 82 82 92 91 98 100 100 100 100 100 100 95 93 94 82

GFSCGP_250_rhum_099.txt.gz
RH
65 55 50 53 46 44 48 58 71 71 73 63 77 88 86 86 77 70 70 57 59 66 83 100 100 96 95 83 65 61 56 49 43 38 35 36 42 32 35 38 22 29 29 48
48 56 76 55 49 45 45 50 65 71 70 67 81 87 95 98 88 76 73 80 86 80 69 65 70 78 81 68 56 53 50 40 30 21 22 20 20 22 25 19 16 26 33 58
39 42 55 57 50 55 45 50 61 64 64 71 85 92 98 90 88 81 81 90 88 84 74 63 60 60 64 63 54 52 37 19 16 18 15 12 12 11 12 30 38 30 53 56
40 42 44 64 62 54 49 50 49 50 60 84 90 96 94 87 89 82 94 96 88 76 64 62 61 59 53 43 31 29 20 18 16 12 10 10 10 10 12 25 36 47 68 84
37 46 45 53 60 63 69 50 50 53 60 72 88 97 100 93 100 89 84 80 70 64 60 56 44 34 33 27 18 14 17 15 11 10 10 10 10 12 12 18 35 45 81 93
29 34 39 49 58 57 55 54 56 56 56 63 87 77 81 77 82 74 67 69 72 65 52 39 35 24 26 17 14 13 13 11 11 11 10 11 12 13 13 19 32 52 88 100
28 35 41 49 53 53 55 56 59 65 74 72 96 75 84 83 70 63 56 52 58 54 41 35 26 21 16 13 13 12 12 13 14 13 13 14 15 14 15 17 38 67 84 100
24 26 31 40 52 61 66 69 66 67 78 72 66 70 88 73 65 62 55 51 46 39 31 30 25 25 16 13 13 12 17 17 16 16 18 23 40 21 22 27 53 69 99 100
21 28 34 41 48 51 61 66 75 81 70 69 71 75 73 66 60 52 53 49 44 36 29 25 23 20 16 15 15 21 24 19 18 46 62 69 71 58 44 47 86 88 100 100
21 25 32 42 46 54 74 82 78 74 72 77 76 72 77 75 60 60 62 61 53 35 25 27 27 19 18 18 30 31 30 24 42 86 86 87 91 95 89 97 99 100 100 100
32 37 42 45 52 71 78 74 71 78 76 72 64 63 70 69 66 78 82 76 58 40 27 29 25 21 20 27 43 36 36 77 90 96 96 100 100 96 100 100 100 100 98 100
48 50 54 67 78 76 84 86 78 79 83 72 60 72 81 70 69 64 70 75 55 32 29 29 23 22 28 41 58 47 70 94 96 100 100 100 97 100 98 100 86 100 100 100
70 64 62 67 76 76 71 70 72 73 65 68 62 79 75 66 56 56 54 53 47 37 27 25 21 27 51 80 74 65 100 100 100 100 100 100 100 100 100 100 100 100 100 84
97 95 98 98 98 94 90 89 72 58 66 72 79 61 80 65 42 44 45 50 42 34 25 25 22 44 89 97 87 92 100 100 100 100 100 100 100 100 100 100 100 95 74 74
100 100 100 99 98 99 97 87 76 67 63 64 66 43 60 25 26 34 33 32 27 24 22 23 24 59 94 100 90 100 100 100 100 100 100 100 100 100 100 100 100 72 43 72
100 100 100 100 96 96 94 84 81 70 60 49 42 42 26 27 24 26 20 17 19 18 19 21 31 82 97 100 93 100 100 100 100 100 100 100 100 100 100 98 80 78 66 58
95 98 94 81 77 73 66 60 56 54 50 34 27 24 16 19 22 18 15 14 15 16 19 23 43 96 98 100 100 100 100 100 100 100 100 100 100 100 100 71 69 100 100 95
99 93 78 72 68 61 57 51 45 36 24 18 17 17 20 18 19 20 20 20 19 14 18 24 54 95 100 100 100 100 100 100 100 100 100 93 92 89 60 44 43 100 100 100
92 76 71 67 56 51 48 39 28 22 23 20 16 14 14 14 15 16 18 21 18 18 23 29 63 98 100 100 100 100 100 100 100 100 100 74 87 80 70 66 72 100 100 100
71 63 57 50 48 42 31 27 23 22 17 14 13 11 10 10 11 13 15 17 17 20 28 30 57 100 100 100 100 100 100 100 100 100 100 100 92 100 95 75 76 100 100 100
56 44 46 44 32 25 22 18 16 14 13 12 11 10 10 9 10 11 13 13 15 21 28 32 54 100 100 100 100 100 100 100 100 100 99 100 100 100 100 82 95 100 100 100
46 45 33 24 21 17 17 14 12 10 10 10 10 10 10 10 11 14 17 15 14 19 29 41 48 96 99 100 100 100 100 100 100 100 100 100 100 100 100 100 96 100 100 100
40 31 24 18 23 18 13 11 10 10 10 10 10 10 12 12 13 17 21 17 17 18 28 38 51 70 100 100 100 100 100 100 100 100 100 100 100 100 100 100 94 100 100 100
27 23 20 18 18 12 12 12 11 10 10 10 11 13 16 15 13 16 16 17 19 17 22 28 51 67 93 100 100 100 100 100 100 100 100 100 100 100 100 100 100 100 100 100
23 24 18 16 14 12 14 13 11 10 11 12 14 15 15 14 13 15 16 16 18 20 19 22 26 47 65 93 95 100 100 100 100 100 100 100 100 100 100 100 100 100 100 100
22 20 16 13 14 14 14 13 11 11 13 14 16 20 21 20 19 20 20 18 17 17 20 22 23 28 52 74 91 94 100 100 100 100 96 100 100 100 100 100 100 100 100 100

GFSCGP_250_rhum_102.txt.gz
RH
35 35 33 30 46 48 60 60 57 52 41 58 57 50 47 44 42 46 47 60 59 47 52 62 58 61 58 59 63 66 72 71 73 68 67 66 80 79 74 72 66 56 47 48
38 29 43 37 36 39 47 47 51 51 49 46 61 58 51 49 50 59 58 56 53 53 53 58 68 67 63 60 66 67 58 56 61 63 61 70 72 66 55 45 40 44 44 24
24 28 27 29 40 42 44 42 48 49 50 52 47 64 59 55 48 52 66 61 58 64 64 79 88 77 69 76 84 96 74 66 76 68 61 49 46 49 43 31 22 25 25 16
12 18 18 26 30 36 38 42 47 42 45 42 43 54 66 70 62 51 48 50 59 70 82 73 69 69 80 75 84 75 59 56 52 50 37 32 29 20 16 16 16 14 14 16
8 14 16 25 24 20 27 34 38 45 49 45 46 50 62 64 64 52 49 53 70 98 95 84 78 77 66 64 53 44 43 46 44 28 17 17 15 13 13 11 10 10 12 12
9 13 17 29 24 35 32 29 30 33 36 36 57 59 54 61 67 60 53 58 64 66 62 63 61 59 53 47 38 33 34 33 22 13 12 14 12 11 10 10 10 18 15 22
10 10 16 21 26 29 27 25 24 25 30 40 50 49 53 54 61 61 62 63 66 63 58 53 50 51 45 40 31 29 28 21 18 14 12 12 11 11 12 11 11 29 17 62
8 11 13 25 25 39 38 36 21 30 41 47 51 48 57 66 65 68 70 69 66 75 71 60 52 54 52 38 28 33 21 17 13 14 12 13 14 14 12 11 13 14 38 48
10 10 17 32 27 33 56 70 45 39 38 38 50 58 65 72 70 66 71 84 82 71 66 56 46 51 44 37 35 27 19 16 17 15 16 17 19 18 17 14 15 16 35 69
17 14 15 23 32 32 35 53 65 50 42 48 66 71 73 81 79 78 80 89 83 70 61 46 48 52 43 31 27 23 18 18 21 21 22 30 49 58 47 45 34 27 38 76
14 16 20 23 22 29 50 71 64 63 52 67 79 83 94 85 87 91 84 82 78 68 62 54 52 43 31 29 26 19 20 23 32 41 76 98 88 92 98 62 66 70 56 88
38 22 28 28 28 31 34 40 48 58 67 78 80 82 95 93 91 77 68 71 71 77 56 47 47 33 23 30 25 22 27 44 40 91 95 100 100 100 100 100 100 100 100 100
65 51 48 54 58 72 84 79 76 77 76 82 82 86 93 89 73 64 70 74 68 72 76 54 41 28 26 28 26 25 47 54 92 100 100 100 100 100 100 100 100 100 100 100
71 69 68 75 79 75 74 80 76 76 77 76 80 92 91 63 53 59 83 75 86 80 73 58 33 26 28 30 29 37 87 89 100 100 100 100 100 100 100 100 100 100 100 100
71 66 94 100 97 97 98 85 86 88 74 80 85 90 70 62 63 65 73 73 56 54 53 37 24 23 31 30 35 80 100 98 100 100 100 100 100 100 100 100 100 100 100 100
94 100 100 100 100 100 98 96 95 90 89 91 98 90 58 57 53 51 54 51 51 52 49 26 18 24 26 29 55 94 94 100 100 100 100 100 100 100 100 100 100 100 100 100
100 99 93 92 92 95 94 89 86 80 78 74 75 71 65 45 36 34 31 26 25 20 21 17 20 22 23 29 84 97 100 100 100 100 100 100 100 100 100 100 100 100 100 100
94 97 97 94 94 88 85 80 72 65 63 56 54 49 33 21 23 20 15 16 16 14 14 13 17 19 23 36 90 100 100 100 100 100 100 100 100 100 100 100 100 100 100 99
89 92 98 98 95 83 71 60 56 48 41 32 26 20 16 16 17 20 20 20 20 18 16 17 18 20 26 50 93 100 100 100 100 100 100 100 100 100 100 100 100 100 100 92
96 99 98 88 74 59 52 48 43 34 25 22 21 19 17 15 14 13 14 14 15 16 19 24 22 24 32 68 95 100 100 100 100 100 100 100 100 100 100 100 100 100 96 100
96 91 74 67 57 52 52 40 31 24 21 19 16 13 12 11 11 11 11 11 13 15 18 24 24 27 39 80 94 100 100 100 100 100 100 100 100 100 100 95 99 100 100 71
79 72 61 56 59 53 36 26 22 19 17 15 13 11 10 9 9 10 11 13 14 14 18 24 28 29 41 80 93 100 100 100 100 100 100 100 100 100 100 100 100 100 91 60
66 60 61 61 45 29 23 19 17 16 13 10 10 9 9 9 10 11 12 14 15 16 17 24 33 34 50 83 96 100 100 100 100 100 100 100 100 100 100 100 100 100 93 92
63 59 47 34 28 22 20 18 15 12 11 11 10 11 11 12 13 15 16 15 15 18 18 23 32 36 41 81 98 100 100 100 100 100 100 100 100 100 100 100 100 100 100 100
55 46 28 22 25 21 19 15 14 13 12 12 11 13 14 12 14 18 18 15 14 16 19 20 28 34 40 68 86 100 100 100 100 100 100 100 100 100 100 90 96 100 100 100
40 29 24 23 21 19 17 14 15 15 14 15 16 16 17 17 16 18 20 18 17 17 19 21 22 30 38 46 81 96 100 100 100 100 100 100 100 100 100 100 98 85 100 100

GFSCGP_250_rhum_105.txt.gz
RH
40 36 39 52 45 40 47 51 61 48 54 42 37 41 56 76 67 60 53 45 48 47 49 47 43 40 38 41 43 46 49 45 47 50 58 59 68 74 66 72 84 82 96 100
41 33 39 39 39 38 39 26 41 51 54 48 43 41 49 53 58 58 56 48 45 50 60 52 48 43 39 39 47 50 45 51 55 67 86 86 84 78 83 100 100 100 98 84
34 30 25 21 21 20 24 23 25 34 37 41 42 43 52 52 59 61 57 48 50 47 56 65 56 52 44 45 44 41 47 66 79 75 70 65 68 82 90 85 66 66 64 56
23 19 11 10 11 14 12 14 18 17 22 38 36 34 45 55 49 51 53 53 53 48 47 46 55 65 64 48 41 39 45 61 65 57 46 44 52 58 46 40 36 37 25 29
18 11 8 6 7 7 9 11 12 14 18 26 30 29 35 44 48 48 46 47 49 48 45 41 39 51 52 50 46 42 46 57 43 48 48 46 47 41 30 23 19 23 23 16
12 7 6 7 6 6 8 8 12 17 19 19 30 29 35 36 40 45 44 44 49 52 48 42 42 50 49 54 51 49 48 44 38 39 38 38 32 20 14 12 12 12 19 13
9 8 7 8 8 10 13 16 27 30 28 34 56 39 93 41 29 34 38 46 44 44 37 42 43 48 55 53 51 53 51 44 39 42 42 35 22 14 11 11 11 24 46 16
9 8 10 11 10 12 13 14 30 68 93 54 91 61 69 46 32 48 47 42 37 32 32 45 47 48 52 54 57 57 49 45 37 41 37 25 15 14 12 12 10 21 43 15
9 10 11 14 16 14 16 28 47 96 89 100 100 100 100 80 73 74 58 47 40 39 46 49 45 48 57 59 64 58 54 47 36 40 32 20 16 14 12 15 12 38 43 23
13 12 15 15 21 19 21 36 52 100 100 100 100 100 100 85 65 50 54 56 64 61 53 49 57 63 62 64 63 59 48 42 40 36 23 20 16 17 56 76 55 52 48 24
18 14 17 26 21 28 27 21 42 82 100 100 100 100 100 100 83 76 81 65 70 74 66 54 62 61 60 61 66 61 43 41 42 26 24 19 27 35 90 81 75 64 57 30
28 20 28 29 42 38 24 27 47 76 90 100 100 100 100 100 78 78 69 74 76 70 82 83 76 63 68 72 62 50 43 42 32 28 21 38 53 55 89 98 81 73 43 45
37 28 42 44 42 48 37 37 44 50 82 100 100 100 100 100 97 77 66 72 74 77 78 83 85 74 62 64 50 46 41 36 29 26 39 78 87 87 94 100 99 97 69 66
36 48 59 66 62 60 42 43 83 95 95 100 100 89 80 74 81 69 70 84 56 70 80 86 80 69 56 51 41 30 44 31 33 37 77 100 100 100 94 100 100 100 100 94
54 57 45 59 72 71 77 76 84 93 100 98 90 97 95 80 94 85 77 85 80 78 90 87 67 58 53 43 30 29 38 32 46 82 100 100 100 100 100 100 100 100 100 100
54 67 79 90 97 93 82 97 100 100 95 95 100 94 88 100 92 99 89 90 90 81 84 79 76 72 58 44 33 28 35 38 77 100 100 100 100 100 100 100 100 100 100 100
89 96 94 97 99 96 99 100 100 99 99 100 100 92 99 96 94 87 85 83 92 97 88 80 64 45 34 24 21 32 33 60 88 100 100 100 100 100 100 100 100 100 100 100
98 98 100 100 100 99 96 91 92 94 94 94 96 88 84 72 63 62 56 54 51 50 44 38 32 31 26 25 22 25 32 68 92 100 100 100 100 100 100 100 100 100 100 100
100 98 98 98 95 98 93 95 94 93 90 83 78 71 58 44 36 27 24 25 24 22 18 13 16 16 21 17 16 22 33 79 99 100 100 100 100 100 100 100 100 100 100 100
100 100 100 100 90 80 79 75 70 65 64 52 45 38 29 21 17 16 18 21 19 18 16 20 20 24 24 18 17 25 39 88 100 100 100 100 100 100 100 100 100 100 100 100
99 100 97 91 81 73 68 60 55 52 44 30 26 23 20 19 18 16 15 15 14 15 16 17 20 23 26 22 24 32 64 97 100 100 100 100 100 100 100 100 100 97 97 100
97 92 89 84 72 65 60 57 50 40 30 23 18 15 14 13 12 11 11 12 12 13 14 17 20 23 26 24 32 46 87 100 100 100 100 100 100 100 100 100 100 98 100 100
96 85 80 69 57 59 55 44 34 25 20 18 15 14 13 12 10 10 10 10 10 12 14 18 21 26 30 31 35 59 87 100 100 100 100 100 100 100 100 100 100 100 100 100
68 65 60 55 60 51 39 30 26 21 18 16 13 11 10 11 11 11 11 12 12 14 17 21 23 29 35 39 45 74 92 100 100 100 100 100 100 100 100 96 100 100 100 100
63 63 59 59 52 39 29 24 22 18 15 12 12 12 10 10 12 12 14 16 16 16 18 23 24 28 39 43 50 78 85 95 100 98 100 100 100 100 100 100 100 100 100 100
59 59 59 49 35 26 25 21 19 17 14 14 15 14 13 14 15 19 20 20 18 20 21 24 27 29 40 47 50 78 82 82 95 98 94 100 100 100 100 100 100 100 100 100

GFSCGP_250_rhum_108.txt.gz
RH
62 52 99 100 92 65 67 68 66 55 57 54 49 47 44 43 60 55 58 81 61 52 47 49 56 76 71 54 48 45 46 50 49 42 40 38 37 39 41 40 43 44 52 64
90 70 99 98 88 83 79 73 58 58 59 62 43 42 43 41 40 46 48 57 70 62 54 47 53 63 60 55 51 46 43 47 51 51 43 39 37 37 36 46 61 64 77 69
59 78 86 60 63 67 57 54 62 34 26 24 17 20 30 17 24 33 38 47 59 64 58 53 60 61 58 58 54 48 47 45 43 49 51 51 51 46 38 37 39 59 61 58
38 43 39 45 38 44 27 30 21 16 13 9 11 8 12 14 20 24 31 36 30 43 61 60 58 60 58 62 60 55 51 45 43 43 38 38 46 45 41 43 51 47 36 32
53 27 32 38 39 27 14 16 11 9 8 8 8 7 12 18 18 19 22 25 19 24 32 52 59 52 54 55 56 55 48 48 48 45 40 40 39 41 44 43 41 40 29 31
34 20 37 49 34 20 14 10 8 7 7 5 8 9 13 20 18 26 26 16 17 19 32 40 39 37 44 54 51 47 43 42 41 41 42 42 40 46 46 42 37 33 26 21
27 33 47 40 24 20 12 9 9 9 9 8 8 10 12 36 26 45 28 31 27 31 38 40 40 37 35 43 46 46 42 38 41 39 41 35 36 41 37 35 30 24 19 14
31 44 56 33 25 16 12 10 12 10 10 10 16 20 46 68 93 64 60 68 52 51 43 40 44 41 37 43 40 41 42 40 41 40 40 31 35 38 38 32 23 19 13 22
49 58 34 26 15 13 13 18 13 13 16 13 36 81 100 100 100 100 100 100 85 88 88 44 48 61 61 43 48 54 48 47 46 49 44 32 35 39 36 26 20 15 13 12
51 36 22 15 15 12 17 22 21 22 27 22 38 96 100 100 100 100 100 100 100 100 92 85 79 66 49 41 48 53 74 72 56 48 37 36 36 41 34 22 18 28 56 40
46 24 18 14 12 12 20 35 27 29 43 34 46 98 100 100 100 100 100 100 100 100 98 60 57 65 63 66 71 69 76 70 47 41 40 36 42 40 28 19 23 95 71 81
19 19 17 14 12 14 25 34 46 50 68 47 60 100 100 100 100 100 78 81 100 100 100 87 92 85 99 89 79 78 87 80 56 51 45 44 49 39 24 24 29 64 71 62
19 16 15 15 19 19 40 40 45 51 62 65 78 95 100 100 100 60 66 100 100 100 100 99 96 100 96 79 71 73 71 65 59 55 42 59 49 32 25 28 48 82 60 98
16 16 16 19 29 31 49 51 64 71 64 62 63 63 86 80 79 94 93 100 100 100 97 85 97 100 99 83 63 57 72 73 60 45 52 64 40 28 41 37 100 92 70 99
17 20 20 23 37 46 72 72 86 98 100 83 75 61 41 70 100 100 100 72 72 90 100 98 100 100 100 98 76 72 68 55 50 51 62 48 34 44 56 97 100 99 96 97
23 31 36 49 57 79 74 83 100 100 99 100 99 72 59 75 95 91 88 93 89 83 100 98 82 84 86 80 77 68 62 54 51 49 53 38 39 84 93 100 100 100 100 100
38 57 52 61 95 82 87 100 94 100 98 100 98 91 96 100 91 100 100 100 100 100 98 78 81 79 79 73 73 71 66 52 47 51 46 49 80 94 98 100 100 100 100 99
48 52 66 86 92 94 100 89 96 98 99 99 92 93 98 98 100 100 100 99 98 98 85 81 78 70 63 66 67 69 69 47 37 41 44 76 99 100 100 100 100 100 100 100
58 81 96 93 98 100 99 100 100 100 100 99 99 97 94 89 91 76 71 68 64 65 69 65 59 57 61 62 62 55 41 34 28 36 48 90 100 100 100 100 100 100 100 100
84 94 100 100 100 100 99 100 99 99 99 85 82 80 77 72 59 40 40 38 33 31 32 33 31 31 33 32 31 30 28 21 23 31 50 100 100 100 100 100 100 100 100 100
100 100 100 100 100 100 100 100 100 94 82 76 70 60 45 36 30 30 26 24 23 23 23 21 20 21 22 25 27 26 23 21 24 30 66 100 100 100 100 100 100 100 100 100
100 100 100 100 100 99 92 87 83 75 70 56 44 35 34 29 24 21 20 19 18 17 17 17 17 18 19 20 23 24 24 24 30 45 88 100 100 100 100 100 100 100 100 100
100 100 100 97 91 81 72 73 72 70 52 43 38 26 20 17 17 16 14 13 13 13 14 14 15 16 18 20 23 27 29 32 37 74 98 100 100 100 100 100 100 100 100 100
99 98 93 85 75 73 66 66 72 59 43 31 22 19 18 16 13 11 11 11 12 12 14 15 17 20 21 24 28 37 40 44 62 83 100 100 100 100 100 100 100 100 100 100
98 97 87 77 67 64 68 68 52 38 27 23 21 19 16 14 14 14 13 13 14 16 17 19 22 24 25 30 39 44 46 54 79 84 100 100 100 100 100 100 100 100 100 100
97 91 78 71 65 69 62 47 39 26 24 21 18 15 14 14 13 14 16 18 19 19 20 21 26 29 31 35 44 55 54 56 74 87 85 96 100 100 100 100 100 100 100 100

GFSCGP_250_rhum_111.txt.gz
RH
50 43 51 60 53 47 52 48 43 48 55 58 69 78 54 69 100 81 79 88 82 73 51 38 50 53 87 90 75 74 75 58 62 53 50 49 51 47 48 48 47 42 41 40
92 74 72 65 57 56 59 55 47 40 41 53 42 42 51 76 87 73 61 60 63 66 70 46 44 53 46 68 64 68 80 73 66 65 63 63 54 50 45 41 38 37 36 34
68 72 99 84 74 70 50 45 30 24 25 29 41 26 25 28 30 29 26 28 30 28 28 29 38 44 47 55 56 71 78 75 70 64 64 64 60 56 51 45 41 40 40 36
64 87 69 69 77 72 41 36 24 22 21 22 24 14 14 13 12 11 15 20 16 12 10 13 24 51 57 40 38 41 43 68 71 65 65 65 64 62 55 52 45 40 38 38
80 76 52 63 70 53 42 28 28 24 21 13 15 16 10 9 8 8 10 14 12 8 10 15 29 34 29 36 41 37 43 47 63 75 70 60 57 56 58 51 42 37 38 35
100 76 72 70 56 53 44 38 42 34 15 11 12 12 9 8 7 7 8 10 10 9 9 13 20 24 24 31 32 33 37 39 41 49 56 51 51 49 51 48 44 37 38 35
83 87 67 53 49 52 44 53 41 21 18 13 10 9 8 10 8 8 8 8 8 13 13 15 18 18 23 28 29 29 31 42 45 41 54 46 37 40 44 45 43 39 35 31
80 73 66 60 54 45 57 69 25 19 18 10 10 11 13 12 13 13 19 25 19 20 26 38 41 35 26 29 29 36 54 58 61 57 53 53 42 37 38 44 40 34 31 29
76 54 64 48 71 85 86 48 30 20 14 9 11 20 21 30 53 100 100 76 81 95 100 86 62 94 76 72 60 61 61 66 65 58 54 46 39 43 47 44 42 37 28 29
72 49 47 63 91 80 60 34 23 15 14 13 13 35 36 52 100 100 100 100 94 97 69 97 99 100 100 100 89 78 64 50 46 56 54 54 63 44 47 50 38 36 29 32
53 41 68 88 62 73 44 23 17 13 14 15 20 40 67 77 100 100 100 100 94 96 98 81 98 100 89 87 78 70 59 56 67 84 89 93 78 62 56 49 38 29 35 31
53 55 60 56 59 47 21 19 17 16 18 24 28 33 87 93 78 63 100 100 100 100 96 90 89 91 78 81 85 91 93 94 96 88 89 86 90 73 51 35 33 31 34 26
82 66 52 45 39 21 17 17 18 17 34 39 32 41 68 82 81 65 100 95 100 100 100 100 99 94 98 92 75 77 78 80 73 75 99 89 75 63 47 40 40 36 29 20
45 50 40 19 18 16 18 17 18 26 40 48 60 42 60 72 86 97 95 91 98 98 85 91 98 93 90 93 94 85 100 98 98 100 100 100 80 58 61 55 39 33 23 22
40 37 22 19 17 19 20 21 26 42 55 58 47 49 79 94 94 100 100 100 95 80 73 85 85 84 87 100 100 100 100 100 100 100 100 98 85 60 67 60 41 30 25 61
30 21 18 17 17 20 22 40 75 57 58 75 69 78 96 99 89 76 83 95 99 96 86 81 74 71 72 89 100 96 94 89 89 81 78 62 60 58 89 59 43 29 45 99
20 20 19 19 22 25 45 97 83 62 74 84 79 92 100 90 87 85 78 81 90 97 93 90 86 82 76 81 92 73 69 65 69 78 61 52 62 67 91 60 38 46 96 100
20 20 20 23 32 46 89 78 78 84 95 97 99 98 100 100 97 98 100 99 97 100 97 92 92 90 83 75 66 63 65 69 70 69 62 59 63 75 80 46 36 90 100 100
20 20 23 36 61 78 96 92 84 97 98 96 89 100 100 100 100 98 100 100 98 90 79 69 60 62 65 68 69 74 78 76 77 76 69 57 54 55 54 44 65 100 100 100
21 28 48 76 78 83 100 86 94 100 100 99 99 100 100 97 93 77 78 71 65 64 60 55 52 53 52 53 58 61 61 63 61 52 43 35 35 42 40 44 88 100 100 100
32 63 70 80 94 96 91 98 97 99 99 100 100 91 85 78 64 51 45 38 36 34 30 26 26 26 26 26 29 32 32 30 31 30 28 26 27 28 34 57 96 100 100 100
66 75 89 96 96 97 98 100 100 100 96 98 94 85 66 51 42 39 34 30 24 21 20 19 19 19 20 21 23 25 27 28 30 28 25 24 25 28 43 83 100 100 100 100
86 90 99 100 97 99 100 100 98 100 96 84 75 57 48 44 36 25 21 18 17 16 15 15 15 15 16 17 19 21 24 27 29 30 32 32 32 36 92 100 100 100 100 100
97 100 100 99 96 100 100 100 100 89 79 67 52 53 41 28 22 19 18 16 14 13 14 14 14 15 17 18 20 22 24 27 30 32 38 35 34 53 98 100 100 100 100 100
100 99 99 99 100 100 100 93 81 77 73 61 51 35 27 23 20 18 16 15 15 16 17 17 18 20 22 24 26 26 27 29 30 37 45 44 43 63 100 100 100 100 100 100
99 100 99 99 100 100 93 86 86 82 65 50 36 28 25 21 19 17 17 17 18 20 22 24 26 28 29 33 33 36 37 35 34 43 47 47 43 64 100 100 100 100 100 100

GFSCGP_250_rhum_114.txt.gz
RH
82 80 86 74 63 56 53 47 48 61 60 56 62 44 35 44 50 42 33 27 35 50 71 59 85 100 100 93 89 74 63 67 78 70 77 82 80 66 64 60 53 41 47 44
96 80 77 79 71 53 51 51 50 52 65 69 62 46 48 49 37 41 27 20 22 28 37 20 32 64 88 100 99 89 74 63 64 76 83 74 71 60 54 69 63 53 45 44
97 86 94 88 64 69 65 69 68 60 76 77 56 44 46 37 27 23 18 14 14 14 14 13 17 23 41 60 72 96 81 67 59 56 55 56 53 54 51 56 65 63 52 51
73 87 91 90 91 98 84 81 69 65 56 51 51 36 35 28 23 14 10 9 9 11 10 10 11 11 16 23 34 56 95 65 66 57 54 55 54 53 52 53 56 69 62 57
77 81 78 69 83 84 77 87 81 67 54 33 46 40 24 20 17 16 11 10 10 10 10 8 9 12 12 14 19 25 33 42 51 61 63 60 61 56 60 70 68 69 67 65
92 77 80 90 81 90 82 70 71 63 50 37 37 38 20 16 19 15 10 9 9 8 11 10 10 10 14 17 15 17 26 37 47 53 64 70 72 64 52 62 64 63 63 60
93 98 97 92 99 96 80 70 84 57 41 42 37 27 26 22 19 15 11 9 8 9 8 8 10 10 12 14 15 16 18 21 27 35 52 57 56 49 48 56 50 54 60 47
92 100 98 100 95 74 76 68 56 38 44 37 37 33 30 21 16 13 11 12 10 10 10 12 13 13 12 14 11 14 16 20 21 24 29 33 34 42 47 51 46 46 52 49
85 73 84 82 56 51 57 48 42 41 42 34 35 36 23 20 13 15 25 22 18 18 28 67 67 46 66 56 25 30 28 35 37 39 29 39 40 44 51 48 44 51 41 47
81 78 85 80 59 50 48 44 50 52 46 37 36 25 20 18 14 24 46 50 71 62 82 84 94 84 82 91 91 88 79 79 70 69 52 47 68 48 52 49 36 61 52 41
48 64 83 56 50 44 50 48 54 66 47 30 32 17 17 17 25 50 63 100 100 100 100 100 100 81 100 95 100 100 100 95 89 100 87 94 70 63 56 60 65 74 84 73
41 45 42 50 45 41 56 73 59 47 32 28 18 14 16 22 53 61 83 60 100 100 100 100 64 82 91 82 96 100 100 100 100 100 96 92 92 86 87 74 74 80 73 65
47 46 53 50 49 43 50 54 40 39 20 19 16 16 20 43 65 100 94 98 87 99 95 96 95 70 86 68 91 100 99 100 100 100 100 98 92 95 90 82 69 60 62 57
53 50 52 58 48 42 36 34 49 24 18 17 18 20 27 52 77 86 100 100 100 100 97 86 90 71 95 100 100 89 86 95 99 87 97 100 100 89 90 80 68 66 77 64
47 51 44 50 66 51 30 40 30 18 20 17 21 33 60 50 65 77 81 100 97 98 98 100 89 88 76 99 90 80 83 74 79 81 79 87 86 98 95 99 99 90 72 58
43 35 37 37 35 30 38 29 21 20 19 20 29 60 65 60 58 84 100 100 98 89 95 99 91 76 79 84 90 91 87 81 76 72 74 85 94 100 100 87 77 65 52 50
28 28 33 27 32 32 23 25 23 20 20 43 71 78 76 62 69 77 86 98 95 88 84 82 76 69 54 56 77 74 71 73 80 76 84 92 100 99 94 84 61 44 51 47
22 24 20 26 31 20 23 21 19 26 55 62 71 85 93 95 88 76 89 93 93 91 94 96 94 88 78 64 57 63 64 58 58 58 59 60 60 53 53 54 56 57 81 60
18 18 26 24 22 22 21 32 34 55 78 73 75 88 90 99 94 91 85 78 72 75 81 76 70 69 69 65 64 64 64 66 67 65 66 74 77 71 64 63 65 76 85 63
23 26 23 22 21 23 33 40 62 77 76 81 90 87 90 93 82 91 95 98 90 78 70 64 58 52 50 53 60 65 66 63 64 66 69 71 61 54 49 48 52 64 79 50
22 21 21 21 25 55 72 70 91 79 77 82 84 88 96 100 96 92 82 74 61 58 52 44 38 34 30 32 32 34 35 38 42 46 48 46 44 41 36 34 35 42 56 34
22 22 23 33 78 89 83 83 86 91 94 85 86 92 95 92 79 63 50 50 46 39 34 30 24 22 22 22 24 28 31 32 35 35 33 32 30 27 27 28 28 32 36 42
24 26 41 77 85 89 98 97 93 89 86 95 97 96 88 71 51 48 51 40 29 24 20 19 18 18 17 18 19 20 22 23 25 27 28 27 27 27 25 25 25 27 32 42
33 53 78 84 83 86 94 94 94 94 100 100 100 89 70 53 50 44 29 24 21 18 16 15 14 14 15 15 16 17 18 20 22 24 25 25 26 27 29 31 30 29 38 54
56 76 78 80 85 87 96 93 88 94 100 100 88 74 62 54 38 26 23 20 18 16 15 15 15 15 16 16 17 18 19 20 22 24 25 25 26 31 38 39 46 48 57 85
68 76 76 82 88 96 93 91 100 100 98 93 86 66 62 41 29 24 20 20 18 18 19 20 22 23 22 22 24 25 25 25 27 27 29 29 32 37 47 55 58 56 72 99

GFSCGP_250_rhum_120.txt.gz
RH
74 67 73 69 67 63 62 62 66 74 91 95 100 100 100 85 84 84 76 84 76 59 53 51 45 39 36 37 39 43 43 39 34 27 30 29 33 50 55 66 76 76 76 72
72 65 71 86 86 78 75 69 79 98 100 100 100 100 98 91 88 87 81 72 58 54 52 49 44 35 26 25 22 26 25 25 24 22 21 26 30 39 62 49 88 91 82 79
69 78 90 78 85 93 86 83 87 79 84 94 85 87 77 80 84 75 64 58 58 54 49 42 31 23 22 16 15 14 12 13 15 15 15 19 27 25 52 88 63 80 92 93
88 100 86 87 100 100 100 100 90 87 84 82 82 77 74 72 77 68 64 59 56 52 47 36 29 23 16 15 12 10 10 11 12 12 13 14 18 27 25 54 80 73 87 94
94 96 89 79 87 89 100 100 100 90 83 84 96 93 80 70 72 67 66 69 70 55 45 34 24 15 13 11 10 9 9 11 15 13 13 13 17 18 21 32 62 80 72 77
91 81 87 93 99 95 96 96 96 95 90 92 97 85 74 78 73 67 63 56 49 48 40 25 17 14 13 11 10 10 10 12 15 16 16 18 19 16 20 20 38 61 75 84
92 89 93 82 87 91 91 88 94 88 80 71 72 77 82 80 70 59 49 44 38 34 30 18 16 16 12 12 11 11 11 12 14 16 18 24 21 22 18 18 22 34 45 62
100 100 100 100 85 80 88 96 99 88 68 63 66 66 75 78 69 57 49 45 31 32 25 19 19 19 15 12 12 13 19 21 19 24 21 25 26 27 24 23 23 26 38 54
88 84 87 87 92 84 75 93 87 77 58 46 45 50 58 65 68 59 43 29 28 29 24 24 25 23 15 13 13 23 62 70 49 51 38 30 31 41 36 27 27 27 30 41
87 78 78 91 94 84 79 69 69 76 70 50 41 33 37 47 39 34 29 27 25 32 29 30 30 22 17 21 19 21 54 59 78 59 46 46 48 34 38 31 28 28 29 30
91 95 87 88 87 81 70 76 66 63 56 48 36 33 39 34 30 30 28 31 27 35 32 28 27 18 27 55 38 23 33 72 71 74 69 76 61 41 34 37 38 41 39 32
100 100 91 79 71 79 80 60 58 52 52 43 37 32 34 33 36 38 38 34 30 29 27 22 21 18 39 70 67 50 48 67 88 84 54 76 68 65 66 61 67 66 71 65
98 99 90 64 61 57 52 57 48 45 49 42 37 33 39 40 44 52 44 32 30 31 22 21 22 23 32 80 83 84 56 86 98 95 92 99 93 82 81 94 100 87 98 100
74 73 75 53 48 42 42 38 51 52 52 52 43 38 41 55 58 62 38 34 34 25 20 20 21 48 46 64 61 67 68 80 100 100 92 89 93 100 99 100 100 96 75 79
66 54 54 47 37 34 40 59 58 62 67 68 78 54 45 63 51 53 40 37 28 18 18 19 20 44 61 54 57 53 53 88 82 81 62 60 68 99 100 100 100 96 96 99
48 50 45 38 45 47 43 52 62 64 74 69 64 59 60 41 41 43 37 28 19 18 17 18 26 37 53 65 62 54 70 81 80 75 81 68 64 68 75 88 97 87 86 82
51 44 43 35 47 44 35 64 47 41 46 52 37 41 36 35 35 34 27 21 19 21 28 41 47 50 56 69 70 65 70 71 68 70 76 74 78 77 76 75 81 90 87 88
36 35 29 32 45 39 45 38 31 30 28 28 25 26 28 34 34 27 22 20 30 47 67 74 72 71 70 81 80 92 93 85 83 80 84 91 87 84 74 66 68 68 76 79
26 18 22 30 28 20 19 27 20 17 19 21 26 37 32 36 27 23 20 40 59 72 75 76 78 84 83 83 79 88 93 95 93 95 92 87 91 85 74 64 52 44 49 49
12 11 16 17 14 13 18 21 17 16 24 28 26 28 37 26 21 26 58 82 91 91 89 93 88 80 80 79 80 80 79 80 81 80 76 82 85 77 73 70 68 58 55 55
13 12 11 9 11 16 20 17 16 20 26 22 33 29 24 24 40 72 96 98 98 96 91 86 80 74 68 67 67 68 68 67 64 63 62 63 60 54 50 50 57 64 72 76
11 10 11 13 16 20 16 16 18 20 25 30 25 23 29 57 86 99 100 99 96 89 73 63 55 47 41 36 34 34 35 35 36 37 37 37 38 38 39 38 38 40 44 46
10 11 14 14 19 19 17 19 22 28 26 24 24 40 76 94 100 100 98 88 73 68 59 50 44 40 36 31 28 24 22 21 21 22 22 23 25 27 30 34 36 37 37 38
12 13 16 17 22 21 21 24 25 23 24 31 58 89 100 100 100 98 83 78 67 59 56 47 33 26 22 20 19 18 18 18 18 19 20 21 22 25 26 28 30 31 31 33
14 16 18 21 21 23 24 24 25 28 46 79 96 100 100 100 96 86 78 70 63 56 44 30 24 20 18 19 19 18 18 17 18 18 20 21 22 23 24 26 27 28 30 31
17 19 23 26 30 29 29 30 34 65 90 100 100 100 100 100 92 80 68 66 60 44 30 23 21 19 20 20 19 20 22 22 20 20 22 23 26 27 28 29 31 35 35 32

GFSCGP_250_rhum_123.txt.gz
RH
76 84 99 90 100 89 68 75 70 63 59 57 65 58 62 62 74 100 100 100 100 100 100 100 100 100 97 91 72 65 56 51 48 46 38 30 25 23 32 44 48 49 52 41
73 68 83 93 93 88 78 72 72 69 63 64 73 77 81 99 100 100 100 100 100 100 100 92 85 87 79 78 66 56 51 48 40 37 37 34 27 21 17 22 34 38 37 47
68 75 91 84 94 90 75 84 86 69 77 71 71 67 76 100 99 99 100 100 100 100 100 100 91 81 67 55 51 48 40 36 34 29 26 21 18 16 16 15 18 24 31 33
80 98 87 94 98 99 93 87 87 87 81 82 85 81 82 86 90 97 91 84 79 79 83 79 66 58 52 51 51 44 34 25 22 20 15 13 15 15 14 13 12 13 17 20
78 72 94 100 100 100 100 100 96 91 98 98 98 85 70 74 83 88 100 95 90 77 66 62 60 48 44 40 34 32 24 18 16 14 13 15 16 17 14 14 13 11 13 14
80 80 89 100 100 100 99 100 100 99 89 83 81 77 72 73 76 90 88 76 67 58 53 53 47 38 31 29 28 23 17 14 13 12 15 17 17 19 15 18 16 15 14 12
79 93 96 100 100 100 100 99 92 80 77 73 77 69 84 91 84 77 71 60 53 53 48 38 30 24 23 23 20 18 17 16 18 16 16 16 19 28 34 22 24 21 16 14
82 94 100 100 97 100 97 83 86 75 69 70 72 78 84 84 78 73 64 58 48 39 34 29 24 22 18 16 18 20 19 18 20 18 16 17 24 28 39 39 39 20 20 18
93 85 91 93 99 98 98 96 81 76 70 71 74 70 74 79 68 53 47 38 29 26 25 27 25 19 19 18 21 23 26 23 22 24 19 22 25 46 58 61 43 45 37 25
90 88 82 80 84 98 95 86 84 91 85 73 68 60 63 56 53 46 34 31 27 26 25 25 23 22 23 23 22 26 30 40 30 42 33 45 58 51 51 60 66 66 46 32
90 76 71 69 89 83 76 71 78 86 80 64 49 49 58 51 43 33 31 29 31 30 25 25 27 26 28 25 25 25 31 41 45 58 68 60 74 77 90 62 77 76 66 56
89 76 61 60 62 72 89 87 74 72 73 71 52 43 47 39 34 36 34 34 33 31 38 38 35 29 27 27 25 20 29 42 55 63 78 84 79 69 72 64 71 80 56 73
96 89 78 63 65 77 82 98 85 76 72 60 54 45 47 50 45 42 43 38 42 55 56 44 32 27 25 29 21 19 22 41 71 73 80 76 70 76 75 86 73 64 61 66
94 87 79 74 78 72 67 75 91 77 55 56 45 58 55 59 58 52 36 54 60 53 48 38 26 26 34 26 18 17 18 34 65 80 96 83 75 81 97 93 98 80 79 82
83 71 78 77 72 62 72 63 63 60 54 56 58 56 58 72 76 68 40 42 44 48 45 28 23 30 29 20 18 17 18 31 61 85 86 95 85 72 85 97 99 98 100 100
71 65 74 76 84 78 64 54 60 56 57 56 77 59 63 54 61 55 38 43 38 42 32 29 29 24 18 18 17 18 23 35 65 80 82 73 70 70 61 58 84 86 88 88
80 94 75 55 67 57 26 51 45 48 58 73 54 50 47 51 42 33 33 39 32 33 36 32 23 19 18 28 39 46 47 50 70 83 88 94 80 61 76 76 72 69 66 87
56 59 52 51 58 41 34 33 50 46 62 44 29 40 40 30 23 20 25 25 28 40 33 23 18 25 42 51 51 52 56 60 66 84 87 92 99 89 83 74 75 78 73 78
48 55 52 58 48 27 13 33 49 55 35 32 33 26 21 18 17 22 22 26 36 33 25 21 38 56 59 58 60 63 62 60 63 66 73 85 97 98 97 97 90 85 76 73
70 67 52 31 25 13 15 26 44 34 19 30 18 16 18 19 23 23 31 31 34 25 26 61 72 71 74 74 73 71 69 70 69 68 67 65 70 84 86 75 73 72 76 67
37 45 30 20 10 10 15 22 26 15 16 19 17 18 19 22 26 28 35 32 25 40 77 86 81 81 79 78 68 62 60 57 56 60 61 62 66 71 70 69 67 64 64 63
16 15 14 13 10 11 15 15 14 15 15 16 17 17 19 23 29 36 28 27 61 93 92 86 86 82 77 69 59 51 44 42 40 40 40 41 45 48 50 53 51 49 50 49
12 11 10 9 11 13 17 15 14 15 15 18 20 20 23 32 30 26 37 81 96 93 94 90 80 67 59 55 48 42 35 30 29 29 29 32 34 35 37 40 42 44 43 44
10 11 10 11 14 13 12 13 15 17 18 19 21 27 31 27 28 56 94 97 94 95 88 74 65 54 52 40 28 24 22 20 19 19 19 20 20 22 23 23 24 26 26 28
12 12 12 13 12 13 16 17 18 22 23 29 33 28 28 39 71 94 96 97 95 86 73 64 61 49 34 25 22 20 18 18 18 18 18 18 19 19 20 22 24 25 27 29
12 12 13 12 13 15 17 18 20 24 29 28 24 27 61 90 97 97 97 94 88 77 68 63 50 35 26 23 20 20 22 24 24 25 27 27 28 29 31 32 32 33 34 33